Time,TemperatureF,DewpointF,PressureIn,WindDirection,WindDirectionDegrees,WindSpeedMPH,WindSpeedGustMPH,Humidity,HourlyPrecipIn,Conditions,Clouds,dailyrainin,SoftwareType,DateUTC
2013-05-06 00:00:00,57.5,27.1,29.94,SE,132,0.0,7.0,31,0.00,,---,0.00,VWS V14.00,2013-05-06 04:00:00,
2013-05-06 00:01:00,57.5,27.9,29.94,ESE,119,1.0,1.0,32,0.00,,---,0.00,VWS V14.00,2013-05-06 04:01:00,
2013-05-06 00:02:00,57.5,27.9,29.94,South,179,2.0,2.0,32,0.00,,---,0.00,VWS V14.00,2013-05-06 04:02:00,
2013-05-06 00:03:00,57.4,27.8,29.94,SE,134,1.0,5.0,32,0.00,,---,0.00,VWS V14.00,2013-05-06 04:03:00,
2013-05-06 00:04:00,57.4,28.5,29.94,SE,141,0.0,5.0,33,0.00,,---,0.00,VWS V14.00,2013-05-06 04:04:00,
2013-05-06 00:05:00,57.3,27.7,29.94,ESE,103,0.0,5.0,32,0.00,,---,0.00,VWS V14.00,2013-05-06 04:05:00,
2013-05-06 00:06:00,57.2,27.6,29.94,South,178,0.0,5.0,32,0.00,,---,0.00,VWS V14.00,2013-05-06 04:06:00,
2013-05-06 00:07:00,57.2,28.4,29.94,SE,128,0.0,5.0,33,0.00,,---,0.00,VWS V14.00,2013-05-06 04:07:00,
2013-05-06 00:08:00,57.1,28.3,29.94,SSE,152,0.0,5.0,33,0.00,,---,0.00,VWS V14.00,2013-05-06 04:08:00,
2013-05-06 00:09:00,57.1,28.3,29.94,SSE,152,0.0,5.0,33,0.00,,---,0.00,VWS V14.00,2013-05-06 04:09:00,
2013-05-06 00:10:00,57.0,28.2,29.94,South,173,0.0,5.0,33,0.00,,---,0.00,VWS V14.00,2013-05-06 04:10:00,
2013-05-06 00:11:00,56.9,27.4,29.94,South,176,0.0,5.0,32,0.00,,---,0.00,VWS V14.00,2013-05-06 04:11:00,
2013-05-06 00:12:00,56.9,28.1,29.94,South,179,0.0,5.0,33,0.00,,---,0.00,VWS V14.00,2013-05-06 04:12:00,
2013-05-06 00:13:00,56.9,28.1,29.94,South,169,5.0,5.0,33,0.00,,---,0.00,VWS V14.00,2013-05-06 04:13:00,
2013-05-06 00:14:00,56.9,28.1,29.94,SE,124,4.0,8.0,33,0.00,,---,0.00,VWS V14.00,2013-05-06 04:14:00,
2013-05-06 00:15:00,56.8,28.0,29.94,SSE,160,0.0,8.0,33,0.00,,---,0.00,VWS V14.00,2013-05-06 04:15:00,
2013-05-06 00:16:00,56.8,28.0,29.94,SSE,150,0.0,3.0,33,0.00,,---,0.00,VWS V14.00,2013-05-06 04:16:00,
2013-05-06 00:17:00,56.8,28.8,29.94,South,184,0.0,3.0,34,0.00,,---,0.00,VWS V14.00,2013-05-06 04:17:00,
2013-05-06 00:18:00,56.8,28.0,29.94,ESE,106,5.0,5.0,33,0.00,,---,0.00,VWS V14.00,2013-05-06 04:18:00,
2013-05-06 00:19:00,56.7,27.9,29.94,South,187,0.0,5.0,33,0.00,,---,0.00,VWS V14.00,2013-05-06 04:19:00,
2013-05-06 00:20:00,56.7,28.7,29.94,South,188,0.0,5.0,34,0.00,,---,0.00,VWS V14.00,2013-05-06 04:20:00,
2013-05-06 00:21:00,56.7,27.9,29.94,ESE,121,0.0,5.0,33,0.00,,---,0.00,VWS V14.00,2013-05-06 04:21:00,
2013-05-06 00:22:00,56.6,28.6,29.94,ESE,114,1.0,5.0,34,0.00,,---,0.00,VWS V14.00,2013-05-06 04:22:00,
2013-05-06 00:23:00,56.5,29.2,29.94,ESE,114,0.0,5.0,35,0.00,,---,0.00,VWS V14.00,2013-05-06 04:23:00,
2013-05-06 00:24:00,56.4,29.1,29.94,ESE,117,2.0,5.0,35,0.00,,---,0.00,VWS V14.00,2013-05-06 04:24:00,
2013-05-06 00:25:00,56.3,29.0,29.94,ESE,117,1.0,5.0,35,0.00,,---,0.00,VWS V14.00,2013-05-06 04:25:00,
2013-05-06 00:26:00,56.2,28.9,29.94,ESE,119,0.0,5.0,35,0.00,,---,0.00,VWS V14.00,2013-05-06 04:26:00,
2013-05-06 00:27:00,56.1,28.8,29.94,ESE,109,0.0,5.0,35,0.00,,---,0.00,VWS V14.00,2013-05-06 04:27:00,
2013-05-06 00:28:00,56.0,28.8,29.94,SSE,153,0.0,6.0,35,0.00,,---,0.00,VWS V14.00,2013-05-06 04:28:00,
2013-05-06 00:29:00,56.0,28.8,29.94,SE,137,0.0,6.0,35,0.00,,---,0.00,VWS V14.00,2013-05-06 04:29:00,
2013-05-06 00:30:00,55.9,29.4,29.94,ESE,117,0.0,6.0,36,0.00,,---,0.00,VWS V14.00,2013-05-06 04:30:00,
2013-05-06 00:31:00,55.8,28.6,29.94,SSE,167,0.0,4.0,35,0.00,,---,0.00,VWS V14.00,2013-05-06 04:31:00,
2013-05-06 00:32:00,55.8,28.6,29.94,SSE,167,0.0,4.0,35,0.00,,---,0.00,VWS V14.00,2013-05-06 04:32:00,
2013-05-06 00:33:00,55.8,29.3,29.94,SSE,167,1.0,4.0,36,0.00,,---,0.00,VWS V14.00,2013-05-06 04:33:00,
2013-05-06 00:34:00,55.7,29.2,29.94,South,172,0.0,6.0,36,0.00,,---,0.00,VWS V14.00,2013-05-06 04:34:00,
2013-05-06 00:35:00,55.7,29.2,29.94,South,180,0.0,6.0,36,0.00,,---,0.00,VWS V14.00,2013-05-06 04:35:00,
2013-05-06 00:36:00,55.6,28.4,29.94,South,169,2.0,6.0,35,0.00,,---,0.00,VWS V14.00,2013-05-06 04:36:00,
2013-05-06 00:37:00,55.6,28.4,29.94,South,176,1.0,6.0,35,0.00,,---,0.00,VWS V14.00,2013-05-06 04:37:00,
2013-05-06 00:38:00,55.5,29.0,29.94,South,176,0.0,6.0,36,0.00,,---,0.00,VWS V14.00,2013-05-06 04:38:00,
2013-05-06 00:39:00,55.5,29.0,29.94,South,176,0.0,6.0,36,0.00,,---,0.00,VWS V14.00,2013-05-06 04:39:00,
2013-05-06 00:40:00,55.5,29.0,29.94,South,173,0.0,6.0,36,0.00,,---,0.00,VWS V14.00,2013-05-06 04:40:00,
2013-05-06 00:41:00,55.5,29.0,29.94,South,180,0.0,6.0,36,0.00,,---,0.00,VWS V14.00,2013-05-06 04:41:00,
2013-05-06 00:42:00,55.4,28.9,29.94,South,179,0.0,6.0,36,0.00,,---,0.00,VWS V14.00,2013-05-06 04:42:00,
2013-05-06 00:43:00,55.4,28.9,29.94,South,171,1.0,6.0,36,0.00,,---,0.00,VWS V14.00,2013-05-06 04:43:00,
2013-05-06 00:44:00,55.3,29.5,29.94,South,179,0.0,6.0,37,0.00,,---,0.00,VWS V14.00,2013-05-06 04:44:00,
2013-05-06 00:45:00,55.3,29.5,29.94,South,173,0.0,6.0,37,0.00,,---,0.00,VWS V14.00,2013-05-06 04:45:00,
2013-05-06 00:46:00,55.3,28.8,29.94,South,173,0.0,0.0,36,0.00,,---,0.00,VWS V14.00,2013-05-06 04:46:00,
2013-05-06 00:47:00,55.2,29.4,29.94,South,173,1.0,1.0,37,0.00,,---,0.00,VWS V14.00,2013-05-06 04:47:00,
2013-05-06 00:48:00,55.2,29.4,29.94,South,180,1.0,2.0,37,0.00,,---,0.00,VWS V14.00,2013-05-06 04:48:00,
2013-05-06 00:49:00,55.2,29.4,29.94,South,189,1.0,2.0,37,0.00,,---,0.00,VWS V14.00,2013-05-06 04:49:00,
2013-05-06 00:50:00,55.1,29.3,29.94,SE,142,4.0,4.0,37,0.00,,---,0.00,VWS V14.00,2013-05-06 04:50:00,
2013-05-06 00:51:00,55.2,29.4,29.94,SSE,161,0.0,4.0,37,0.00,,---,0.00,VWS V14.00,2013-05-06 04:51:00,
2013-05-06 00:52:00,55.2,29.4,29.94,South,186,0.0,4.0,37,0.00,,---,0.00,VWS V14.00,2013-05-06 04:52:00,
2013-05-06 00:53:00,55.2,29.4,29.94,SSE,165,0.0,5.0,37,0.00,,---,0.00,VWS V14.00,2013-05-06 04:53:00,
2013-05-06 00:54:00,55.2,30.1,29.94,SSE,156,5.0,6.0,38,0.00,,---,0.00,VWS V14.00,2013-05-06 04:54:00,
2013-05-06 00:55:00,55.2,29.4,29.94,South,178,7.0,7.0,37,0.00,,---,0.00,VWS V14.00,2013-05-06 04:55:00,
2013-05-06 00:56:00,55.2,30.1,29.94,SSE,157,5.0,7.0,38,0.00,,---,0.00,VWS V14.00,2013-05-06 04:56:00,
2013-05-06 00:57:00,55.2,30.1,29.94,South,181,2.0,7.0,38,0.00,,---,0.00,VWS V14.00,2013-05-06 04:57:00,
2013-05-06 00:58:00,55.1,30.0,29.94,SSW,195,4.0,7.0,38,0.00,,---,0.00,VWS V14.00,2013-05-06 04:58:00,
2013-05-06 00:59:00,55.1,30.6,29.94,SSW,193,5.0,7.0,39,0.00,,---,0.00,VWS V14.00,2013-05-06 04:59:00,
2013-05-06 01:00:00,55.1,30.0,29.94,South,190,3.0,7.0,38,0.00,,---,0.00,VWS V14.00,2013-05-06 05:00:00,
2013-05-06 01:01:00,55.1,30.0,29.94,SE,124,0.0,8.0,38,0.00,,---,0.00,VWS V14.00,2013-05-06 05:01:00,
2013-05-06 01:02:00,55.1,30.6,29.94,South,184,0.0,8.0,39,0.00,,---,0.00,VWS V14.00,2013-05-06 05:02:00,
2013-05-06 01:03:00,55.1,30.6,29.94,SSW,197,3.0,8.0,39,0.00,,---,0.00,VWS V14.00,2013-05-06 05:03:00,
2013-05-06 01:04:00,55.1,30.6,29.94,SSW,192,1.0,8.0,39,0.00,,---,0.00,VWS V14.00,2013-05-06 05:04:00,
2013-05-06 01:05:00,55.1,30.6,29.94,South,179,1.0,8.0,39,0.00,,---,0.00,VWS V14.00,2013-05-06 05:05:00,
2013-05-06 01:06:00,55.1,30.6,29.94,SE,128,0.0,8.0,39,0.00,,---,0.00,VWS V14.00,2013-05-06 05:06:00,
2013-05-06 01:07:00,55.1,30.6,29.94,South,178,4.0,8.0,39,0.00,,---,0.00,VWS V14.00,2013-05-06 05:07:00,
2013-05-06 01:08:00,55.1,31.2,29.94,SSE,166,7.0,8.0,40,0.00,,---,0.00,VWS V14.00,2013-05-06 05:08:00,
2013-05-06 01:09:00,55.1,31.2,29.94,SSE,165,4.0,8.0,40,0.00,,---,0.00,VWS V14.00,2013-05-06 05:09:00,
2013-05-06 01:10:00,55.1,31.2,29.94,South,189,3.0,8.0,40,0.00,,---,0.00,VWS V14.00,2013-05-06 05:10:00,
2013-05-06 01:11:00,55.1,31.2,29.94,South,171,0.0,8.0,40,0.00,,---,0.00,VWS V14.00,2013-05-06 05:11:00,
2013-05-06 01:12:00,55.0,31.1,29.94,South,170,6.0,8.0,40,0.00,,---,0.00,VWS V14.00,2013-05-06 05:12:00,
2013-05-06 01:13:00,55.0,31.1,29.94,SSE,156,5.0,8.0,40,0.00,,---,0.00,VWS V14.00,2013-05-06 05:13:00,
2013-05-06 01:14:00,55.0,31.1,29.94,South,169,6.0,9.0,40,0.00,,---,0.00,VWS V14.00,2013-05-06 05:14:00,
2013-05-06 01:15:00,55.0,31.1,29.94,SSW,197,5.0,9.0,40,0.00,,---,0.00,VWS V14.00,2013-05-06 05:15:00,
2013-05-06 01:16:00,55.0,31.1,29.94,South,173,2.0,5.0,40,0.00,,---,0.00,VWS V14.00,2013-05-06 05:16:00,
2013-05-06 01:17:00,55.0,31.8,29.94,South,173,1.0,5.0,41,0.00,,---,0.00,VWS V14.00,2013-05-06 05:17:00,
2013-05-06 01:18:00,54.9,31.7,29.94,South,182,2.0,6.0,41,0.00,,---,0.00,VWS V14.00,2013-05-06 05:18:00,
2013-05-06 01:19:00,54.9,31.7,29.94,SSW,199,5.0,7.0,41,0.00,,---,0.00,VWS V14.00,2013-05-06 05:19:00,
2013-05-06 01:20:00,54.9,31.7,29.94,SE,128,6.0,7.0,41,0.00,,---,0.00,VWS V14.00,2013-05-06 05:20:00,
2013-05-06 01:21:00,54.8,31.6,29.94,SSE,148,0.0,7.0,41,0.00,,---,0.00,VWS V14.00,2013-05-06 05:21:00,
2013-05-06 01:22:00,54.8,31.6,29.94,SSE,159,1.0,8.0,41,0.00,,---,0.00,VWS V14.00,2013-05-06 05:22:00,
2013-05-06 01:23:00,54.8,31.6,29.94,SE,136,1.0,8.0,41,0.00,,---,0.00,VWS V14.00,2013-05-06 05:23:00,
2013-05-06 01:24:00,54.8,31.6,29.94,SSE,157,2.0,8.0,41,0.00,,---,0.00,VWS V14.00,2013-05-06 05:24:00,
2013-05-06 01:25:00,54.8,31.6,29.94,SSE,148,0.0,8.0,41,0.00,,---,0.00,VWS V14.00,2013-05-06 05:25:00,
2013-05-06 01:26:00,54.7,31.5,29.94,SSE,155,0.0,8.0,41,0.00,,---,0.00,VWS V14.00,2013-05-06 05:26:00,
2013-05-06 01:27:00,54.7,31.5,29.94,South,186,0.0,8.0,41,0.00,,---,0.00,VWS V14.00,2013-05-06 05:27:00,
2013-05-06 01:28:00,54.6,32.0,29.94,SE,125,6.0,8.0,42,0.00,,---,0.00,VWS V14.00,2013-05-06 05:28:00,
2013-05-06 01:29:00,54.6,32.0,29.94,SE,129,0.0,8.0,42,0.00,,---,0.00,VWS V14.00,2013-05-06 05:29:00,
2013-05-06 01:30:00,54.5,31.9,29.94,South,169,1.0,8.0,42,0.00,,---,0.00,VWS V14.00,2013-05-06 05:30:00,
2013-05-06 01:31:00,54.5,31.9,29.94,South,174,0.0,2.0,42,0.00,,---,0.00,VWS V14.00,2013-05-06 05:31:00,
2013-05-06 01:32:00,54.5,31.9,29.94,SE,131,5.0,5.0,42,0.00,,---,0.00,VWS V14.00,2013-05-06 05:32:00,
2013-05-06 01:33:00,54.5,31.9,29.94,South,178,4.0,8.0,42,0.00,,---,0.00,VWS V14.00,2013-05-06 05:33:00,
2013-05-06 01:34:00,54.5,31.9,29.95,SSE,167,2.0,8.0,42,0.00,,---,0.00,VWS V14.00,2013-05-06 05:34:00,
2013-05-06 01:35:00,54.4,31.8,29.94,SE,146,0.0,8.0,42,0.00,,---,0.00,VWS V14.00,2013-05-06 05:35:00,
2013-05-06 01:36:00,54.4,31.8,29.95,South,180,4.0,8.0,42,0.00,,---,0.00,VWS V14.00,2013-05-06 05:36:00,
2013-05-06 01:37:00,54.3,31.7,29.95,SSE,165,0.0,8.0,42,0.00,,---,0.00,VWS V14.00,2013-05-06 05:37:00,
2013-05-06 01:38:00,54.3,31.7,29.95,SE,138,0.0,8.0,42,0.00,,---,0.00,VWS V14.00,2013-05-06 05:38:00,
2013-05-06 01:39:00,54.2,32.2,29.95,South,181,0.0,8.0,43,0.00,,---,0.00,VWS V14.00,2013-05-06 05:39:00,
2013-05-06 01:40:00,54.2,32.2,29.95,SE,128,5.0,8.0,43,0.00,,---,0.00,VWS V14.00,2013-05-06 05:40:00,
2013-05-06 01:41:00,54.2,32.2,29.95,ESE,119,0.0,8.0,43,0.00,,---,0.00,VWS V14.00,2013-05-06 05:41:00,
2013-05-06 01:42:00,54.1,32.7,29.95,SE,129,0.0,8.0,44,0.00,,---,0.00,VWS V14.00,2013-05-06 05:42:00,
2013-05-06 01:43:00,54.1,32.1,29.95,SE,128,0.0,8.0,43,0.00,,---,0.00,VWS V14.00,2013-05-06 05:43:00,
2013-05-06 01:44:00,54.0,32.6,29.95,SSE,148,5.0,8.0,44,0.00,,---,0.00,VWS V14.00,2013-05-06 05:44:00,
2013-05-06 01:45:00,53.9,32.5,29.95,SE,140,0.0,8.0,44,0.00,,---,0.00,VWS V14.00,2013-05-06 05:45:00,
2013-05-06 01:46:00,53.9,32.5,29.95,SE,127,0.0,5.0,44,0.00,,---,0.00,VWS V14.00,2013-05-06 05:46:00,
2013-05-06 01:47:00,53.8,32.4,29.95,SE,127,1.0,7.0,44,0.00,,---,0.00,VWS V14.00,2013-05-06 05:47:00,
2013-05-06 01:48:00,53.8,32.4,29.95,ESE,112,4.0,7.0,44,0.00,,---,0.00,VWS V14.00,2013-05-06 05:48:00,
2013-05-06 01:49:00,53.7,32.3,29.95,SE,134,0.0,7.0,44,0.00,,---,0.00,VWS V14.00,2013-05-06 05:49:00,
2013-05-06 01:50:00,53.7,32.9,29.95,SE,134,0.0,7.0,45,0.00,,---,0.00,VWS V14.00,2013-05-06 05:50:00,
2013-05-06 01:51:00,53.7,32.3,29.95,ESE,121,6.0,9.0,44,0.00,,---,0.00,VWS V14.00,2013-05-06 05:51:00,
2013-05-06 01:52:00,53.6,32.2,29.95,ESE,121,4.0,9.0,44,0.00,,---,0.00,VWS V14.00,2013-05-06 05:52:00,
2013-05-06 01:53:00,53.6,32.2,29.95,SE,126,0.0,9.0,44,0.00,,---,0.00,VWS V14.00,2013-05-06 05:53:00,
2013-05-06 01:54:00,53.6,32.2,29.95,SE,126,1.0,9.0,44,0.00,,---,0.00,VWS V14.00,2013-05-06 05:54:00,
2013-05-06 01:55:00,53.5,32.7,29.95,SE,135,0.0,9.0,45,0.00,,---,0.00,VWS V14.00,2013-05-06 05:55:00,
2013-05-06 01:56:00,53.5,32.7,29.95,SE,134,6.0,9.0,45,0.00,,---,0.00,VWS V14.00,2013-05-06 05:56:00,
2013-05-06 01:57:00,53.4,32.0,29.95,ESE,112,0.0,9.0,44,0.00,,---,0.00,VWS V14.00,2013-05-06 05:57:00,
2013-05-06 01:58:00,53.3,32.5,29.95,ESE,109,5.0,9.0,45,0.00,,---,0.00,VWS V14.00,2013-05-06 05:58:00,
2013-05-06 01:59:00,53.3,32.5,29.95,ESE,119,6.0,9.0,45,0.00,,---,0.00,VWS V14.00,2013-05-06 05:59:00,
2013-05-06 02:00:00,53.2,32.4,29.95,SE,126,2.0,9.0,45,0.00,,---,0.00,VWS V14.00,2013-05-06 06:00:00,
2013-05-06 02:01:00,53.2,32.4,29.95,ESE,107,0.0,4.0,45,0.00,,---,0.00,VWS V14.00,2013-05-06 06:01:00,
2013-05-06 02:02:00,53.1,32.3,29.95,SE,124,0.0,5.0,45,0.00,,---,0.00,VWS V14.00,2013-05-06 06:02:00,
2013-05-06 02:03:00,53.1,32.3,29.95,SE,130,1.0,5.0,45,0.00,,---,0.00,VWS V14.00,2013-05-06 06:03:00,
2013-05-06 02:04:00,53.0,32.2,29.95,ESE,118,6.0,6.0,45,0.00,,---,0.00,VWS V14.00,2013-05-06 06:04:00,
2013-05-06 02:05:00,53.0,32.8,29.95,SSE,153,0.0,6.0,46,0.00,,---,0.00,VWS V14.00,2013-05-06 06:05:00,
2013-05-06 02:06:00,53.0,32.8,29.95,South,189,0.0,6.0,46,0.00,,---,0.00,VWS V14.00,2013-05-06 06:06:00,
2013-05-06 02:07:00,53.0,32.8,29.95,ESE,109,7.0,7.0,46,0.00,,---,0.00,VWS V14.00,2013-05-06 06:07:00,
2013-05-06 02:08:00,53.0,32.8,29.95,SE,130,2.0,7.0,46,0.00,,---,0.00,VWS V14.00,2013-05-06 06:08:00,
2013-05-06 02:09:00,53.0,32.8,29.95,ESE,119,2.0,7.0,46,0.00,,---,0.00,VWS V14.00,2013-05-06 06:09:00,
2013-05-06 02:10:00,53.0,32.8,29.95,SSE,155,0.0,7.0,46,0.00,,---,0.00,VWS V14.00,2013-05-06 06:10:00,
2013-05-06 02:11:00,53.0,32.8,29.95,SE,128,0.0,7.0,46,0.00,,---,0.00,VWS V14.00,2013-05-06 06:11:00,
2013-05-06 02:12:00,53.0,32.8,29.95,SSE,157,0.0,7.0,46,0.00,,---,0.00,VWS V14.00,2013-05-06 06:12:00,
2013-05-06 02:13:00,53.0,33.3,29.95,SSW,205,2.0,8.0,47,0.00,,---,0.00,VWS V14.00,2013-05-06 06:13:00,
2013-05-06 02:14:00,53.0,33.3,29.95,SE,132,1.0,8.0,47,0.00,,---,0.00,VWS V14.00,2013-05-06 06:14:00,
2013-05-06 02:15:00,53.0,33.3,29.95,SSE,153,0.0,8.0,47,0.00,,---,0.00,VWS V14.00,2013-05-06 06:15:00,
2013-05-06 02:16:00,52.9,33.2,29.95,South,182,1.0,2.0,47,0.00,,---,0.00,VWS V14.00,2013-05-06 06:16:00,
2013-05-06 02:17:00,52.9,33.2,29.95,SW,215,1.0,4.0,47,0.00,,---,0.00,VWS V14.00,2013-05-06 06:17:00,
2013-05-06 02:18:00,52.9,33.2,29.95,SE,126,1.0,6.0,47,0.00,,---,0.00,VWS V14.00,2013-05-06 06:18:00,
2013-05-06 02:19:00,52.8,33.2,29.95,SE,138,4.0,6.0,47,0.00,,---,0.00,VWS V14.00,2013-05-06 06:19:00,
2013-05-06 02:20:00,52.8,33.7,29.95,South,169,1.0,6.0,48,0.00,,---,0.00,VWS V14.00,2013-05-06 06:20:00,
2013-05-06 02:21:00,52.9,33.8,29.95,SSE,156,5.0,7.0,48,0.00,,---,0.00,VWS V14.00,2013-05-06 06:21:00,
2013-05-06 02:22:00,52.8,33.7,29.95,ESE,119,5.0,7.0,48,0.00,,---,0.00,VWS V14.00,2013-05-06 06:22:00,
2013-05-06 02:23:00,52.8,33.7,29.95,ESE,123,6.0,7.0,48,0.00,,---,0.00,VWS V14.00,2013-05-06 06:23:00,
2013-05-06 02:24:00,52.8,33.7,29.95,South,186,3.0,7.0,48,0.00,,---,0.00,VWS V14.00,2013-05-06 06:24:00,
2013-05-06 02:25:00,52.7,33.6,29.95,SE,137,0.0,7.0,48,0.00,,---,0.00,VWS V14.00,2013-05-06 06:25:00,
2013-05-06 02:26:00,52.8,33.7,29.95,SSE,163,0.0,7.0,48,0.00,,---,0.00,VWS V14.00,2013-05-06 06:26:00,
2013-05-06 02:27:00,52.7,34.1,29.95,SSE,153,1.0,7.0,49,0.00,,---,0.00,VWS V14.00,2013-05-06 06:27:00,
2013-05-06 02:28:00,52.7,34.1,29.95,ESE,121,2.0,7.0,49,0.00,,---,0.00,VWS V14.00,2013-05-06 06:28:00,
2013-05-06 02:29:00,52.7,34.1,29.95,SSE,153,4.0,7.0,49,0.00,,---,0.00,VWS V14.00,2013-05-06 06:29:00,
2013-05-06 02:30:00,52.6,34.0,29.95,East,101,1.0,8.0,49,0.00,,---,0.00,VWS V14.00,2013-05-06 06:30:00,
2013-05-06 02:31:00,52.6,34.0,29.95,SSE,163,0.0,2.0,49,0.00,,---,0.00,VWS V14.00,2013-05-06 06:31:00,
2013-05-06 02:32:00,52.6,34.0,29.95,SE,125,1.0,6.0,49,0.00,,---,0.00,VWS V14.00,2013-05-06 06:32:00,
2013-05-06 02:33:00,52.5,33.9,29.95,SE,126,4.0,7.0,49,0.00,,---,0.00,VWS V14.00,2013-05-06 06:33:00,
2013-05-06 02:34:00,52.5,33.9,29.95,SSE,155,2.0,13.0,49,0.00,,---,0.00,VWS V14.00,2013-05-06 06:34:00,
2013-05-06 02:35:00,52.5,34.4,29.95,South,170,1.0,13.0,50,0.00,,---,0.00,VWS V14.00,2013-05-06 06:35:00,
2013-05-06 02:36:00,52.5,34.4,29.95,SSE,166,1.0,13.0,50,0.00,,---,0.00,VWS V14.00,2013-05-06 06:36:00,
2013-05-06 02:37:00,52.5,34.4,29.95,SE,141,2.0,13.0,50,0.00,,---,0.00,VWS V14.00,2013-05-06 06:37:00,
2013-05-06 02:38:00,52.5,34.4,29.95,ESE,103,4.0,13.0,50,0.00,,---,0.00,VWS V14.00,2013-05-06 06:38:00,
2013-05-06 02:39:00,52.4,34.3,29.94,SE,142,0.0,13.0,50,0.00,,---,0.00,VWS V14.00,2013-05-06 06:39:00,
2013-05-06 02:40:00,52.4,34.3,29.94,SSE,165,5.0,13.0,50,0.00,,---,0.00,VWS V14.00,2013-05-06 06:40:00,
2013-05-06 02:41:00,52.3,34.7,29.94,South,191,2.0,13.0,51,0.00,,---,0.00,VWS V14.00,2013-05-06 06:41:00,
2013-05-06 02:42:00,52.3,34.2,29.94,South,186,4.0,13.0,50,0.00,,---,0.00,VWS V14.00,2013-05-06 06:42:00,
2013-05-06 02:43:00,52.3,34.2,29.94,SSE,159,0.0,13.0,50,0.00,,---,0.00,VWS V14.00,2013-05-06 06:43:00,
2013-05-06 02:44:00,52.3,34.7,29.94,South,173,1.0,13.0,51,0.00,,---,0.00,VWS V14.00,2013-05-06 06:44:00,
2013-05-06 02:45:00,52.2,34.6,29.94,ESE,116,5.0,13.0,51,0.00,,---,0.00,VWS V14.00,2013-05-06 06:45:00,
2013-05-06 02:46:00,52.2,34.6,29.94,SSW,206,2.0,4.0,51,0.00,,---,0.00,VWS V14.00,2013-05-06 06:46:00,
2013-05-06 02:47:00,52.2,34.6,29.94,SSE,161,1.0,5.0,51,0.00,,---,0.00,VWS V14.00,2013-05-06 06:47:00,
2013-05-06 02:48:00,52.1,34.5,29.94,SE,140,0.0,5.0,51,0.00,,---,0.00,VWS V14.00,2013-05-06 06:48:00,
2013-05-06 02:49:00,52.1,34.5,29.94,South,190,2.0,6.0,51,0.00,,---,0.00,VWS V14.00,2013-05-06 06:49:00,
2013-05-06 02:50:00,52.0,34.5,29.94,SE,129,4.0,6.0,51,0.00,,---,0.00,VWS V14.00,2013-05-06 06:50:00,
2013-05-06 02:51:00,52.0,34.5,29.94,ESE,107,1.0,6.0,51,0.00,,---,0.00,VWS V14.00,2013-05-06 06:51:00,
2013-05-06 02:52:00,52.0,34.5,29.94,South,173,1.0,6.0,51,0.00,,---,0.00,VWS V14.00,2013-05-06 06:52:00,
2013-05-06 02:53:00,51.9,34.4,29.94,ESE,115,6.0,6.0,51,0.00,,---,0.00,VWS V14.00,2013-05-06 06:53:00,
2013-05-06 02:54:00,51.9,34.4,29.94,SSE,153,1.0,6.0,51,0.00,,---,0.00,VWS V14.00,2013-05-06 06:54:00,
2013-05-06 02:55:00,51.9,34.4,29.94,SE,133,0.0,6.0,51,0.00,,---,0.00,VWS V14.00,2013-05-06 06:55:00,
2013-05-06 02:56:00,51.9,34.8,29.94,SSW,202,0.0,6.0,52,0.00,,---,0.00,VWS V14.00,2013-05-06 06:56:00,
2013-05-06 02:57:00,51.8,34.8,29.94,ESE,119,4.0,6.0,52,0.00,,---,0.00,VWS V14.00,2013-05-06 06:57:00,
2013-05-06 02:58:00,51.8,34.8,29.94,SSW,196,0.0,6.0,52,0.00,,---,0.00,VWS V14.00,2013-05-06 06:58:00,
2013-05-06 02:59:00,51.8,34.8,29.94,ESE,123,2.0,6.0,52,0.00,,---,0.00,VWS V14.00,2013-05-06 06:59:00,
2013-05-06 03:00:00,51.8,34.8,29.94,South,190,1.0,7.0,52,0.00,,---,0.00,VWS V14.00,2013-05-06 07:00:00,
2013-05-06 03:01:00,51.7,34.7,29.94,SW,229,1.0,5.0,52,0.00,,---,0.00,VWS V14.00,2013-05-06 07:01:00,
2013-05-06 03:02:00,51.7,35.1,29.94,WSW,256,1.0,5.0,53,0.00,,---,0.00,VWS V14.00,2013-05-06 07:02:00,
2013-05-06 03:03:00,51.7,35.1,29.94,SE,142,4.0,5.0,53,0.00,,---,0.00,VWS V14.00,2013-05-06 07:03:00,
2013-05-06 03:04:00,51.6,35.0,29.94,SE,141,1.0,5.0,53,0.00,,---,0.00,VWS V14.00,2013-05-06 07:04:00,
2013-05-06 03:05:00,51.6,35.0,29.94,SSW,200,0.0,5.0,53,0.00,,---,0.00,VWS V14.00,2013-05-06 07:05:00,
2013-05-06 03:06:00,51.6,35.0,29.94,ESE,111,2.0,6.0,53,0.00,,---,0.00,VWS V14.00,2013-05-06 07:06:00,
2013-05-06 03:07:00,51.6,35.0,29.94,South,179,5.0,7.0,53,0.00,,---,0.00,VWS V14.00,2013-05-06 07:07:00,
2013-05-06 03:08:00,51.6,35.0,29.94,South,174,4.0,7.0,53,0.00,,---,0.00,VWS V14.00,2013-05-06 07:08:00,
2013-05-06 03:09:00,51.6,35.0,29.94,South,178,1.0,7.0,53,0.00,,---,0.00,VWS V14.00,2013-05-06 07:09:00,
2013-05-06 03:10:00,51.7,35.1,29.94,ESE,120,0.0,7.0,53,0.00,,---,0.00,VWS V14.00,2013-05-06 07:10:00,
2013-05-06 03:11:00,51.6,35.0,29.94,ESE,119,1.0,7.0,53,0.00,,---,0.00,VWS V14.00,2013-05-06 07:11:00,
2013-05-06 03:12:00,51.6,35.0,29.94,SSE,161,0.0,7.0,53,0.00,,---,0.00,VWS V14.00,2013-05-06 07:12:00,
2013-05-06 03:13:00,51.6,35.0,29.94,ESE,102,0.0,7.0,53,0.00,,---,0.00,VWS V14.00,2013-05-06 07:13:00,
2013-05-06 03:14:00,51.5,35.0,29.94,SE,140,2.0,9.0,53,0.00,,---,0.00,VWS V14.00,2013-05-06 07:14:00,
2013-05-06 03:15:00,51.6,35.0,29.94,ESE,121,4.0,9.0,53,0.00,,---,0.00,VWS V14.00,2013-05-06 07:15:00,
2013-05-06 03:16:00,51.6,35.0,29.94,SE,137,4.0,11.0,53,0.00,,---,0.00,VWS V14.00,2013-05-06 07:16:00,
2013-05-06 03:17:00,51.6,35.5,29.94,SSE,148,0.0,11.0,54,0.00,,---,0.00,VWS V14.00,2013-05-06 07:17:00,
2013-05-06 03:18:00,51.6,35.5,29.94,SE,141,0.0,11.0,54,0.00,,---,0.00,VWS V14.00,2013-05-06 07:18:00,
2013-05-06 03:19:00,51.5,35.4,29.94,SSW,194,2.0,11.0,54,0.00,,---,0.00,VWS V14.00,2013-05-06 07:19:00,
2013-05-06 03:20:00,51.5,35.4,29.94,SSW,192,4.0,11.0,54,0.00,,---,0.00,VWS V14.00,2013-05-06 07:20:00,
2013-05-06 03:21:00,51.5,35.4,29.94,ESE,122,5.0,11.0,54,0.00,,---,0.00,VWS V14.00,2013-05-06 07:21:00,
2013-05-06 03:22:00,51.5,35.4,29.94,SE,136,0.0,11.0,54,0.00,,---,0.00,VWS V14.00,2013-05-06 07:22:00,
2013-05-06 03:23:00,51.4,35.3,29.94,SE,126,11.0,11.0,54,0.00,,---,0.00,VWS V14.00,2013-05-06 07:23:00,
2013-05-06 03:24:00,51.4,35.3,29.94,ESE,121,9.0,11.0,54,0.00,,---,0.00,VWS V14.00,2013-05-06 07:24:00,
2013-05-06 03:25:00,51.4,35.8,29.94,South,171,4.0,11.0,55,0.00,,---,0.00,VWS V14.00,2013-05-06 07:25:00,
2013-05-06 03:26:00,51.4,35.8,29.94,South,180,4.0,11.0,55,0.00,,---,0.00,VWS V14.00,2013-05-06 07:26:00,
2013-05-06 03:27:00,51.4,35.8,29.94,SE,132,4.0,11.0,55,0.00,,---,0.00,VWS V14.00,2013-05-06 07:27:00,
2013-05-06 03:28:00,51.4,35.8,29.94,SW,225,0.0,12.0,55,0.00,,---,0.00,VWS V14.00,2013-05-06 07:28:00,
2013-05-06 03:29:00,51.4,35.8,29.94,South,182,3.0,12.0,55,0.00,,---,0.00,VWS V14.00,2013-05-06 07:29:00,
2013-05-06 03:30:00,51.4,35.8,29.94,SSW,192,1.0,12.0,55,0.00,,---,0.00,VWS V14.00,2013-05-06 07:30:00,
2013-05-06 03:31:00,51.4,35.8,29.94,SSE,153,5.0,6.0,55,0.00,,---,0.00,VWS V14.00,2013-05-06 07:31:00,
2013-05-06 03:32:00,51.4,35.8,29.94,South,169,0.0,6.0,55,0.00,,---,0.00,VWS V14.00,2013-05-06 07:32:00,
2013-05-06 03:33:00,51.4,35.8,29.94,SW,224,2.0,6.0,55,0.00,,---,0.00,VWS V14.00,2013-05-06 07:33:00,
2013-05-06 03:34:00,51.4,35.8,29.94,South,176,2.0,7.0,55,0.00,,---,0.00,VWS V14.00,2013-05-06 07:34:00,
2013-05-06 03:35:00,51.3,35.7,29.94,South,179,2.0,7.0,55,0.00,,---,0.00,VWS V14.00,2013-05-06 07:35:00,
2013-05-06 03:36:00,51.3,35.7,29.94,SSE,158,5.0,7.0,55,0.00,,---,0.00,VWS V14.00,2013-05-06 07:36:00,
2013-05-06 03:37:00,51.3,35.7,29.94,SE,142,2.0,9.0,55,0.00,,---,0.00,VWS V14.00,2013-05-06 07:37:00,
2013-05-06 03:38:00,51.3,35.7,29.94,SE,128,6.0,9.0,55,0.00,,---,0.00,VWS V14.00,2013-05-06 07:38:00,
2013-05-06 03:39:00,51.3,35.7,29.94,SSE,164,0.0,9.0,55,0.00,,---,0.00,VWS V14.00,2013-05-06 07:39:00,
2013-05-06 03:40:00,51.3,35.7,29.94,SSW,194,2.0,9.0,55,0.00,,---,0.00,VWS V14.00,2013-05-06 07:40:00,
2013-05-06 03:41:00,51.3,36.2,29.94,East,96,0.0,10.0,56,0.00,,---,0.00,VWS V14.00,2013-05-06 07:41:00,
2013-05-06 03:42:00,51.2,35.6,29.94,South,182,5.0,10.0,55,0.00,,---,0.00,VWS V14.00,2013-05-06 07:42:00,
2013-05-06 03:43:00,51.2,36.1,29.94,South,183,1.0,10.0,56,0.00,,---,0.00,VWS V14.00,2013-05-06 07:43:00,
2013-05-06 03:44:00,51.2,36.1,29.94,SE,145,0.0,10.0,56,0.00,,---,0.00,VWS V14.00,2013-05-06 07:44:00,
2013-05-06 03:45:00,51.2,36.1,29.94,South,182,0.0,10.0,56,0.00,,---,0.00,VWS V14.00,2013-05-06 07:45:00,
2013-05-06 03:46:00,51.2,36.1,29.94,SSE,166,0.0,5.0,56,0.00,,---,0.00,VWS V14.00,2013-05-06 07:46:00,
2013-05-06 03:47:00,51.2,36.1,29.94,South,172,0.0,7.0,56,0.00,,---,0.00,VWS V14.00,2013-05-06 07:47:00,
2013-05-06 03:48:00,51.2,36.1,29.94,South,180,7.0,7.0,56,0.00,,---,0.00,VWS V14.00,2013-05-06 07:48:00,
2013-05-06 03:49:00,51.1,36.0,29.94,South,189,5.0,7.0,56,0.00,,---,0.00,VWS V14.00,2013-05-06 07:49:00,
2013-05-06 03:50:00,51.0,35.9,29.94,East,90,4.0,7.0,56,0.00,,---,0.00,VWS V14.00,2013-05-06 07:50:00,
2013-05-06 03:51:00,51.0,35.9,29.94,SE,132,0.0,7.0,56,0.00,,---,0.00,VWS V14.00,2013-05-06 07:51:00,
2013-05-06 03:52:00,51.0,36.3,29.94,SSE,167,5.0,7.0,57,0.00,,---,0.00,VWS V14.00,2013-05-06 07:52:00,
2013-05-06 03:53:00,50.9,36.2,29.94,SSW,193,0.0,7.0,57,0.00,,---,0.00,VWS V14.00,2013-05-06 07:53:00,
2013-05-06 03:54:00,50.9,36.2,29.94,SE,140,2.0,7.0,57,0.00,,---,0.00,VWS V14.00,2013-05-06 07:54:00,
2013-05-06 03:55:00,50.9,36.2,29.94,South,181,2.0,11.0,57,0.00,,---,0.00,VWS V14.00,2013-05-06 07:55:00,
2013-05-06 03:56:00,50.8,36.1,29.94,ESE,111,0.0,11.0,57,0.00,,---,0.00,VWS V14.00,2013-05-06 07:56:00,
2013-05-06 03:57:00,50.8,36.1,29.94,South,184,3.0,11.0,57,0.00,,---,0.00,VWS V14.00,2013-05-06 07:57:00,
2013-05-06 03:58:00,50.8,36.1,29.94,South,186,3.0,11.0,57,0.00,,---,0.00,VWS V14.00,2013-05-06 07:58:00,
2013-05-06 03:59:00,50.8,36.1,29.94,SE,132,0.0,11.0,57,0.00,,---,0.00,VWS V14.00,2013-05-06 07:59:00,
2013-05-06 04:00:00,50.7,35.6,29.94,South,171,0.0,11.0,56,0.00,,---,0.00,VWS V14.00,2013-05-06 08:00:00,
2013-05-06 04:01:00,50.8,35.7,29.94,ESE,123,2.0,5.0,56,0.00,,---,0.00,VWS V14.00,2013-05-06 08:01:00,
2013-05-06 04:02:00,50.7,35.6,29.94,South,186,3.0,7.0,56,0.00,,---,0.00,VWS V14.00,2013-05-06 08:02:00,
2013-05-06 04:03:00,50.7,35.6,29.94,ESE,116,7.0,7.0,56,0.00,,---,0.00,VWS V14.00,2013-05-06 08:03:00,
2013-05-06 04:04:00,50.6,35.9,29.94,SSE,157,1.0,7.0,57,0.00,,---,0.00,VWS V14.00,2013-05-06 08:04:00,
2013-05-06 04:05:00,50.6,35.9,29.94,ESE,108,7.0,7.0,57,0.00,,---,0.00,VWS V14.00,2013-05-06 08:05:00,
2013-05-06 04:06:00,50.6,35.9,29.94,South,175,1.0,7.0,57,0.00,,---,0.00,VWS V14.00,2013-05-06 08:06:00,
2013-05-06 04:07:00,50.5,35.8,29.94,SE,143,6.0,8.0,57,0.00,,---,0.00,VWS V14.00,2013-05-06 08:07:00,
2013-05-06 04:08:00,50.5,35.8,29.94,ESE,103,5.0,8.0,57,0.00,,---,0.00,VWS V14.00,2013-05-06 08:08:00,
2013-05-06 04:09:00,50.5,35.8,29.94,SSE,158,0.0,8.0,57,0.00,,---,0.00,VWS V14.00,2013-05-06 08:09:00,
2013-05-06 04:10:00,50.5,35.8,29.94,ESE,117,8.0,8.0,57,0.00,,---,0.00,VWS V14.00,2013-05-06 08:10:00,
2013-05-06 04:11:00,50.5,35.8,29.94,South,184,2.0,9.0,57,0.00,,---,0.00,VWS V14.00,2013-05-06 08:11:00,
2013-05-06 04:12:00,50.5,35.8,29.94,SSE,150,4.0,9.0,57,0.00,,---,0.00,VWS V14.00,2013-05-06 08:12:00,
2013-05-06 04:13:00,50.5,36.3,29.94,South,190,0.0,9.0,58,0.00,,---,0.00,VWS V14.00,2013-05-06 08:13:00,
2013-05-06 04:14:00,50.5,36.3,29.94,SE,128,7.0,11.0,58,0.00,,---,0.00,VWS V14.00,2013-05-06 08:14:00,
2013-05-06 04:15:00,50.5,36.3,29.94,SSE,167,5.0,11.0,58,0.00,,---,0.00,VWS V14.00,2013-05-06 08:15:00,
2013-05-06 04:16:00,50.4,36.2,29.94,South,177,4.0,6.0,58,0.00,,---,0.00,VWS V14.00,2013-05-06 08:16:00,
2013-05-06 04:17:00,50.4,36.2,29.94,SE,128,5.0,8.0,58,0.00,,---,0.00,VWS V14.00,2013-05-06 08:17:00,
2013-05-06 04:18:00,50.4,36.2,29.94,SE,144,0.0,8.0,58,0.00,,---,0.00,VWS V14.00,2013-05-06 08:18:00,
2013-05-06 04:19:00,50.3,36.1,29.94,SE,140,4.0,8.0,58,0.00,,---,0.00,VWS V14.00,2013-05-06 08:19:00,
2013-05-06 04:20:00,50.3,36.1,29.94,SSE,168,1.0,8.0,58,0.00,,---,0.00,VWS V14.00,2013-05-06 08:20:00,
2013-05-06 04:21:00,50.3,36.1,29.94,South,172,2.0,8.0,58,0.00,,---,0.00,VWS V14.00,2013-05-06 08:21:00,
2013-05-06 04:22:00,50.3,36.1,29.94,SSW,192,3.0,8.0,58,0.00,,---,0.00,VWS V14.00,2013-05-06 08:22:00,
2013-05-06 04:23:00,50.2,36.0,29.94,ESE,107,2.0,8.0,58,0.00,,---,0.00,VWS V14.00,2013-05-06 08:23:00,
2013-05-06 04:24:00,50.2,36.0,29.94,SE,140,0.0,8.0,58,0.00,,---,0.00,VWS V14.00,2013-05-06 08:24:00,
2013-05-06 04:25:00,50.2,36.4,29.94,ESE,114,2.0,8.0,59,0.00,,---,0.00,VWS V14.00,2013-05-06 08:25:00,
2013-05-06 04:26:00,50.1,36.3,29.94,SE,142,0.0,8.0,59,0.00,,---,0.00,VWS V14.00,2013-05-06 08:26:00,
2013-05-06 04:27:00,50.0,36.2,29.94,South,180,3.0,8.0,59,0.00,,---,0.00,VWS V14.00,2013-05-06 08:27:00,
2013-05-06 04:28:00,50.0,36.2,29.94,South,188,10.0,12.0,59,0.00,,---,0.00,VWS V14.00,2013-05-06 08:28:00,
2013-05-06 04:29:00,50.0,36.2,29.94,ESE,113,4.0,12.0,59,0.00,,---,0.00,VWS V14.00,2013-05-06 08:29:00,
2013-05-06 04:30:00,50.0,36.2,29.94,East,101,2.0,12.0,59,0.00,,---,0.00,VWS V14.00,2013-05-06 08:30:00,
2013-05-06 04:31:00,50.0,36.7,29.94,ESE,113,7.0,7.0,60,0.00,,---,0.00,VWS V14.00,2013-05-06 08:31:00,
2013-05-06 04:32:00,49.9,36.2,29.94,South,178,4.0,11.0,59,0.00,,---,0.00,VWS V14.00,2013-05-06 08:32:00,
2013-05-06 04:33:00,49.9,36.2,29.94,SE,140,4.0,11.0,59,0.00,,---,0.00,VWS V14.00,2013-05-06 08:33:00,
2013-05-06 04:34:00,49.9,36.6,29.94,South,177,2.0,11.0,60,0.00,,---,0.00,VWS V14.00,2013-05-06 08:34:00,
2013-05-06 04:35:00,49.9,36.6,29.94,East,96,4.0,11.0,60,0.00,,---,0.00,VWS V14.00,2013-05-06 08:35:00,
2013-05-06 04:36:00,49.9,36.6,29.94,ESE,122,2.0,11.0,60,0.00,,---,0.00,VWS V14.00,2013-05-06 08:36:00,
2013-05-06 04:37:00,49.9,36.6,29.94,SSE,161,0.0,11.0,60,0.00,,---,0.00,VWS V14.00,2013-05-06 08:37:00,
2013-05-06 04:38:00,49.8,36.5,29.94,SW,232,3.0,11.0,60,0.00,,---,0.00,VWS V14.00,2013-05-06 08:38:00,
2013-05-06 04:39:00,49.8,36.5,29.94,South,174,2.0,11.0,60,0.00,,---,0.00,VWS V14.00,2013-05-06 08:39:00,
2013-05-06 04:40:00,49.8,36.5,29.94,ESE,111,5.0,11.0,60,0.00,,---,0.00,VWS V14.00,2013-05-06 08:40:00,
2013-05-06 04:41:00,49.8,36.5,29.94,South,182,3.0,11.0,60,0.00,,---,0.00,VWS V14.00,2013-05-06 08:41:00,
2013-05-06 04:42:00,49.8,36.5,29.94,ESE,122,5.0,11.0,60,0.00,,---,0.00,VWS V14.00,2013-05-06 08:42:00,
2013-05-06 04:43:00,49.7,36.4,29.94,South,178,2.0,11.0,60,0.00,,---,0.00,VWS V14.00,2013-05-06 08:43:00,
2013-05-06 04:44:00,49.7,36.4,29.94,ESE,106,4.0,11.0,60,0.00,,---,0.00,VWS V14.00,2013-05-06 08:44:00,
2013-05-06 04:45:00,49.7,36.4,29.94,East,101,6.0,11.0,60,0.00,,---,0.00,VWS V14.00,2013-05-06 08:45:00,
2013-05-06 04:46:00,49.6,36.7,29.94,SE,136,6.0,7.0,61,0.00,,---,0.00,VWS V14.00,2013-05-06 08:46:00,
2013-05-06 04:47:00,49.6,36.7,29.94,South,190,2.0,7.0,61,0.00,,---,0.00,VWS V14.00,2013-05-06 08:47:00,
2013-05-06 04:48:00,49.6,36.7,29.94,SSE,166,1.0,7.0,61,0.00,,---,0.00,VWS V14.00,2013-05-06 08:48:00,
2013-05-06 04:49:00,49.6,36.7,29.94,ESE,112,0.0,7.0,61,0.00,,---,0.00,VWS V14.00,2013-05-06 08:49:00,
2013-05-06 04:50:00,49.5,36.6,29.94,ESE,112,0.0,7.0,61,0.00,,---,0.00,VWS V14.00,2013-05-06 08:50:00,
2013-05-06 04:51:00,49.5,36.6,29.94,SW,217,1.0,7.0,61,0.00,,---,0.00,VWS V14.00,2013-05-06 08:51:00,
2013-05-06 04:52:00,49.5,36.6,29.94,South,178,2.0,7.0,61,0.00,,---,0.00,VWS V14.00,2013-05-06 08:52:00,
2013-05-06 04:53:00,49.5,36.6,29.94,SSE,156,0.0,7.0,61,0.00,,---,0.00,VWS V14.00,2013-05-06 08:53:00,
2013-05-06 04:54:00,49.4,36.9,29.94,SSW,194,4.0,9.0,62,0.00,,---,0.00,VWS V14.00,2013-05-06 08:54:00,
2013-05-06 04:55:00,49.4,36.9,29.94,ESE,123,0.0,9.0,62,0.00,,---,0.00,VWS V14.00,2013-05-06 08:55:00,
2013-05-06 04:56:00,49.4,36.9,29.94,ESE,122,5.0,11.0,62,0.00,,---,0.00,VWS V14.00,2013-05-06 08:56:00,
2013-05-06 04:57:00,49.4,36.9,29.94,SE,132,1.0,11.0,62,0.00,,---,0.00,VWS V14.00,2013-05-06 08:57:00,
2013-05-06 04:58:00,49.4,36.9,29.94,SSW,211,2.0,11.0,62,0.00,,---,0.00,VWS V14.00,2013-05-06 08:58:00,
2013-05-06 04:59:00,49.3,36.8,29.94,ESE,112,5.0,11.0,62,0.00,,---,0.00,VWS V14.00,2013-05-06 08:59:00,
2013-05-06 05:00:00,49.3,37.2,29.94,SSE,153,1.0,11.0,63,0.00,,---,0.00,VWS V14.00,2013-05-06 09:00:00,
2013-05-06 05:01:00,49.3,37.2,29.94,ESE,123,0.0,5.0,63,0.00,,---,0.00,VWS V14.00,2013-05-06 09:01:00,
2013-05-06 05:02:00,49.3,37.2,29.94,SE,129,4.0,6.0,63,0.00,,---,0.00,VWS V14.00,2013-05-06 09:02:00,
2013-05-06 05:03:00,49.2,37.2,29.94,ESE,111,2.0,6.0,63,0.00,,---,0.00,VWS V14.00,2013-05-06 09:03:00,
2013-05-06 05:04:00,49.2,37.2,29.94,SE,128,6.0,6.0,63,0.00,,---,0.00,VWS V14.00,2013-05-06 09:04:00,
2013-05-06 05:05:00,49.1,37.1,29.94,SSE,167,1.0,8.0,63,0.00,,---,0.00,VWS V14.00,2013-05-06 09:05:00,
2013-05-06 05:06:00,49.1,37.1,29.94,SE,140,5.0,8.0,63,0.00,,---,0.00,VWS V14.00,2013-05-06 09:06:00,
2013-05-06 05:07:00,49.0,37.0,29.94,SSE,163,5.0,8.0,63,0.00,,---,0.00,VWS V14.00,2013-05-06 09:07:00,
2013-05-06 05:08:00,49.0,37.4,29.94,South,174,2.0,8.0,64,0.00,,---,0.00,VWS V14.00,2013-05-06 09:08:00,
2013-05-06 05:09:00,49.0,37.4,29.94,South,174,0.0,8.0,64,0.00,,---,0.00,VWS V14.00,2013-05-06 09:09:00,
2013-05-06 05:10:00,49.0,37.4,29.94,South,179,0.0,8.0,64,0.00,,---,0.00,VWS V14.00,2013-05-06 09:10:00,
2013-05-06 05:11:00,49.0,37.4,29.94,ESE,105,4.0,8.0,64,0.00,,---,0.00,VWS V14.00,2013-05-06 09:11:00,
2013-05-06 05:12:00,49.0,37.4,29.94,SE,134,0.0,8.0,64,0.00,,---,0.00,VWS V14.00,2013-05-06 09:12:00,
2013-05-06 05:13:00,49.0,37.4,29.95,SSE,154,0.0,8.0,64,0.00,,---,0.00,VWS V14.00,2013-05-06 09:13:00,
2013-05-06 05:14:00,49.0,37.4,29.95,SSE,167,0.0,8.0,64,0.00,,---,0.00,VWS V14.00,2013-05-06 09:14:00,
2013-05-06 05:15:00,49.0,37.4,29.95,SSE,158,1.0,8.0,64,0.00,,---,0.00,VWS V14.00,2013-05-06 09:15:00,
2013-05-06 05:16:00,48.9,37.3,29.95,South,189,0.0,3.0,64,0.00,,---,0.00,VWS V14.00,2013-05-06 09:16:00,
2013-05-06 05:17:00,48.9,37.3,29.95,South,189,0.0,3.0,64,0.00,,---,0.00,VWS V14.00,2013-05-06 09:17:00,
2013-05-06 05:18:00,48.9,37.7,29.95,South,171,1.0,3.0,65,0.00,,---,0.00,VWS V14.00,2013-05-06 09:18:00,
2013-05-06 05:19:00,48.8,37.6,29.95,South,177,2.0,3.0,65,0.00,,---,0.00,VWS V14.00,2013-05-06 09:19:00,
2013-05-06 05:20:00,48.8,37.6,29.95,SE,133,4.0,4.0,65,0.00,,---,0.00,VWS V14.00,2013-05-06 09:20:00,
2013-05-06 05:21:00,48.8,37.6,29.95,SSW,201,0.0,8.0,65,0.00,,---,0.00,VWS V14.00,2013-05-06 09:21:00,
2013-05-06 05:22:00,48.8,37.6,29.95,SSW,193,0.0,8.0,65,0.00,,---,0.00,VWS V14.00,2013-05-06 09:22:00,
2013-05-06 05:23:00,48.7,37.5,29.95,SSW,192,1.0,8.0,65,0.00,,---,0.00,VWS V14.00,2013-05-06 09:23:00,
2013-05-06 05:24:00,48.7,37.5,29.95,SE,142,4.0,8.0,65,0.00,,---,0.00,VWS V14.00,2013-05-06 09:24:00,
2013-05-06 05:25:00,48.7,37.5,29.95,South,173,0.0,8.0,65,0.00,,---,0.00,VWS V14.00,2013-05-06 09:25:00,
2013-05-06 05:26:00,48.7,37.5,29.95,SSE,159,0.0,8.0,65,0.00,,---,0.00,VWS V14.00,2013-05-06 09:26:00,
2013-05-06 05:27:00,48.7,37.5,29.95,SE,129,1.0,8.0,65,0.00,,---,0.00,VWS V14.00,2013-05-06 09:27:00,
2013-05-06 05:28:00,48.7,37.9,29.95,South,180,0.0,8.0,66,0.00,,---,0.00,VWS V14.00,2013-05-06 09:28:00,
2013-05-06 05:29:00,48.7,37.9,29.95,South,181,0.0,8.0,66,0.00,,---,0.00,VWS V14.00,2013-05-06 09:29:00,
2013-05-06 05:30:00,48.6,37.8,29.95,SSE,163,1.0,8.0,66,0.00,,---,0.00,VWS V14.00,2013-05-06 09:30:00,
2013-05-06 05:31:00,48.6,37.8,29.95,ESE,119,1.0,5.0,66,0.00,,---,0.00,VWS V14.00,2013-05-06 09:31:00,
2013-05-06 05:32:00,48.6,37.8,29.95,SE,131,0.0,5.0,66,0.00,,---,0.00,VWS V14.00,2013-05-06 09:32:00,
2013-05-06 05:33:00,48.6,37.8,29.95,SE,131,0.0,6.0,66,0.00,,---,0.00,VWS V14.00,2013-05-06 09:33:00,
2013-05-06 05:34:00,48.6,37.8,29.95,ESE,115,4.0,6.0,66,0.00,,---,0.00,VWS V14.00,2013-05-06 09:34:00,
2013-05-06 05:35:00,48.6,37.8,29.95,SE,128,0.0,6.0,66,0.00,,---,0.00,VWS V14.00,2013-05-06 09:35:00,
2013-05-06 05:36:00,48.5,37.7,29.95,ESE,119,4.0,6.0,66,0.00,,---,0.00,VWS V14.00,2013-05-06 09:36:00,
2013-05-06 05:37:00,48.5,37.7,29.95,SE,140,0.0,6.0,66,0.00,,---,0.00,VWS V14.00,2013-05-06 09:37:00,
2013-05-06 05:38:00,48.5,37.7,29.95,SSE,150,2.0,6.0,66,0.00,,---,0.00,VWS V14.00,2013-05-06 09:38:00,
2013-05-06 05:39:00,48.5,37.7,29.95,SSW,205,2.0,6.0,66,0.00,,---,0.00,VWS V14.00,2013-05-06 09:39:00,
2013-05-06 05:40:00,48.4,38.0,29.95,ESE,123,6.0,6.0,67,0.00,,---,0.00,VWS V14.00,2013-05-06 09:40:00,
2013-05-06 05:41:00,48.4,38.0,29.95,ESE,110,6.0,8.0,67,0.00,,---,0.00,VWS V14.00,2013-05-06 09:41:00,
2013-05-06 05:42:00,48.4,38.0,29.95,SSE,168,0.0,8.0,67,0.00,,---,0.00,VWS V14.00,2013-05-06 09:42:00,
2013-05-06 05:43:00,48.4,38.0,29.95,SE,132,4.0,8.0,67,0.00,,---,0.00,VWS V14.00,2013-05-06 09:43:00,
2013-05-06 05:44:00,48.4,38.0,29.95,SE,130,4.0,8.0,67,0.00,,---,0.00,VWS V14.00,2013-05-06 09:44:00,
2013-05-06 05:45:00,48.4,38.0,29.95,SE,132,6.0,8.0,67,0.00,,---,0.00,VWS V14.00,2013-05-06 09:45:00,
2013-05-06 05:46:00,48.4,38.0,29.95,SE,138,4.0,6.0,67,0.00,,---,0.00,VWS V14.00,2013-05-06 09:46:00,
2013-05-06 05:47:00,48.4,38.0,29.95,ESE,109,0.0,6.0,67,0.00,,---,0.00,VWS V14.00,2013-05-06 09:47:00,
2013-05-06 05:48:00,48.4,38.0,29.95,ESE,117,4.0,6.0,67,0.00,,---,0.00,VWS V14.00,2013-05-06 09:48:00,
2013-05-06 05:49:00,48.4,38.0,29.95,ESE,119,1.0,6.0,67,0.00,,---,0.00,VWS V14.00,2013-05-06 09:49:00,
2013-05-06 05:50:00,48.4,38.0,29.95,ESE,122,4.0,6.0,67,0.00,,---,0.00,VWS V14.00,2013-05-06 09:50:00,
2013-05-06 05:51:00,48.3,37.9,29.95,South,179,7.0,7.0,67,0.00,,---,0.00,VWS V14.00,2013-05-06 09:51:00,
2013-05-06 05:52:00,48.4,38.3,29.95,South,182,0.0,7.0,68,0.00,,---,0.00,VWS V14.00,2013-05-06 09:52:00,
2013-05-06 05:53:00,48.4,38.3,29.95,South,190,0.0,8.0,68,0.00,,---,0.00,VWS V14.00,2013-05-06 09:53:00,
2013-05-06 05:54:00,48.4,38.3,29.96,South,169,0.0,8.0,68,0.00,,---,0.00,VWS V14.00,2013-05-06 09:54:00,
2013-05-06 05:55:00,48.4,38.3,29.95,ESE,115,5.0,8.0,68,0.00,,---,0.00,VWS V14.00,2013-05-06 09:55:00,
2013-05-06 05:56:00,48.4,38.3,29.95,SSE,165,0.0,8.0,68,0.00,,---,0.00,VWS V14.00,2013-05-06 09:56:00,
2013-05-06 05:57:00,48.4,38.3,29.95,SE,132,0.0,8.0,68,0.00,,---,0.00,VWS V14.00,2013-05-06 09:57:00,
2013-05-06 05:58:00,48.4,38.3,29.95,SE,140,0.0,8.0,68,0.00,,---,0.00,VWS V14.00,2013-05-06 09:58:00,
2013-05-06 05:59:00,48.4,38.3,29.96,South,186,4.0,8.0,68,0.00,,---,0.00,VWS V14.00,2013-05-06 09:59:00,
2013-05-06 06:00:00,48.4,38.3,29.95,SSW,196,0.0,9.0,68,0.00,,---,0.00,VWS V14.00,2013-05-06 10:00:00,
2013-05-06 06:01:00,48.4,38.3,29.95,ESE,107,2.0,5.0,68,0.00,,---,0.00,VWS V14.00,2013-05-06 10:01:00,
2013-05-06 06:02:00,48.4,38.3,29.95,ESE,121,5.0,5.0,68,0.00,,---,0.00,VWS V14.00,2013-05-06 10:02:00,
2013-05-06 06:03:00,48.5,38.4,29.95,ESE,110,4.0,5.0,68,0.00,,---,0.00,VWS V14.00,2013-05-06 10:03:00,
2013-05-06 06:04:00,48.4,38.3,29.95,SSE,166,1.0,5.0,68,0.00,,---,0.00,VWS V14.00,2013-05-06 10:04:00,
2013-05-06 06:05:00,48.5,38.4,29.95,SE,126,0.0,5.0,68,0.00,,---,0.00,VWS V14.00,2013-05-06 10:05:00,
2013-05-06 06:06:00,48.5,38.4,29.96,ESE,113,4.0,5.0,68,0.00,,---,0.00,VWS V14.00,2013-05-06 10:06:00,
2013-05-06 06:07:00,48.5,38.4,29.96,SE,128,5.0,8.0,68,0.00,,---,0.00,VWS V14.00,2013-05-06 10:07:00,
2013-05-06 06:08:00,48.5,38.4,29.95,South,189,1.0,8.0,68,0.00,,---,0.00,VWS V14.00,2013-05-06 10:08:00,
2013-05-06 06:09:00,48.5,38.4,29.96,ESE,104,4.0,8.0,68,0.00,,---,0.00,VWS V14.00,2013-05-06 10:09:00,
2013-05-06 06:10:00,48.5,38.4,29.96,ESE,103,0.0,8.0,68,0.00,,---,0.00,VWS V14.00,2013-05-06 10:10:00,
2013-05-06 06:11:00,48.5,38.4,29.96,SSE,159,0.0,8.0,68,0.00,,---,0.00,VWS V14.00,2013-05-06 10:11:00,
2013-05-06 06:12:00,48.5,38.4,29.96,SSE,161,2.0,8.0,68,0.00,,---,0.00,VWS V14.00,2013-05-06 10:12:00,
2013-05-06 06:13:00,48.5,38.4,29.96,South,188,0.0,8.0,68,0.00,,---,0.00,VWS V14.00,2013-05-06 10:13:00,
2013-05-06 06:14:00,48.5,38.4,29.96,ESE,114,2.0,8.0,68,0.00,,---,0.00,VWS V14.00,2013-05-06 10:14:00,
2013-05-06 06:15:00,48.5,38.4,29.96,ESE,109,5.0,8.0,68,0.00,,---,0.00,VWS V14.00,2013-05-06 10:15:00,
2013-05-06 06:16:00,48.6,38.5,29.96,SSE,149,0.0,5.0,68,0.00,,---,0.00,VWS V14.00,2013-05-06 10:16:00,
2013-05-06 06:17:00,48.6,38.5,29.96,East,99,4.0,6.0,68,0.00,,---,0.00,VWS V14.00,2013-05-06 10:17:00,
2013-05-06 06:18:00,48.6,38.5,29.96,ESE,114,0.0,6.0,68,0.00,,---,0.00,VWS V14.00,2013-05-06 10:18:00,
2013-05-06 06:19:00,48.6,38.5,29.96,ESE,115,9.0,11.0,68,0.00,,---,0.00,VWS V14.00,2013-05-06 10:19:00,
2013-05-06 06:20:00,48.6,38.5,29.96,South,172,5.0,11.0,68,0.00,,---,0.00,VWS V14.00,2013-05-06 10:20:00,
2013-05-06 06:21:00,48.6,38.5,29.96,SSE,165,0.0,11.0,68,0.00,,---,0.00,VWS V14.00,2013-05-06 10:21:00,
2013-05-06 06:22:00,48.7,38.6,29.96,SE,131,0.0,11.0,68,0.00,,---,0.00,VWS V14.00,2013-05-06 10:22:00,
2013-05-06 06:23:00,48.7,38.6,29.96,SSE,157,4.0,11.0,68,0.00,,---,0.00,VWS V14.00,2013-05-06 10:23:00,
2013-05-06 06:24:00,48.7,38.6,29.96,SE,146,0.0,11.0,68,0.00,,---,0.00,VWS V14.00,2013-05-06 10:24:00,
2013-05-06 06:25:00,48.7,38.6,29.96,SSW,209,3.0,11.0,68,0.00,,---,0.00,VWS V14.00,2013-05-06 10:25:00,
2013-05-06 06:26:00,48.8,38.7,29.96,South,174,2.0,11.0,68,0.00,,---,0.00,VWS V14.00,2013-05-06 10:26:00,
2013-05-06 06:27:00,48.8,38.7,29.96,ESE,116,5.0,11.0,68,0.00,,---,0.00,VWS V14.00,2013-05-06 10:27:00,
2013-05-06 06:28:00,48.9,38.8,29.96,SE,140,7.0,11.0,68,0.00,,---,0.00,VWS V14.00,2013-05-06 10:28:00,
2013-05-06 06:29:00,48.9,38.8,29.96,SSE,148,7.0,11.0,68,0.00,,---,0.00,VWS V14.00,2013-05-06 10:29:00,
2013-05-06 06:30:00,49.0,38.9,29.96,ESE,109,7.0,11.0,68,0.00,,---,0.00,VWS V14.00,2013-05-06 10:30:00,
2013-05-06 06:31:00,49.1,39.0,29.96,ESE,107,2.0,4.0,68,0.00,,---,0.00,VWS V14.00,2013-05-06 10:31:00,
2013-05-06 06:32:00,49.1,39.0,29.96,SE,127,0.0,6.0,68,0.00,,---,0.00,VWS V14.00,2013-05-06 10:32:00,
2013-05-06 06:33:00,49.2,39.1,29.96,South,190,4.0,8.0,68,0.00,,---,0.00,VWS V14.00,2013-05-06 10:33:00,
2013-05-06 06:34:00,49.3,39.2,29.96,East,90,4.0,8.0,68,0.00,,---,0.00,VWS V14.00,2013-05-06 10:34:00,
2013-05-06 06:35:00,49.3,38.8,29.96,SE,144,1.0,8.0,67,0.00,,---,0.00,VWS V14.00,2013-05-06 10:35:00,
2013-05-06 06:36:00,49.4,38.9,29.96,SSW,203,0.0,8.0,67,0.00,,---,0.00,VWS V14.00,2013-05-06 10:36:00,
2013-05-06 06:37:00,49.4,39.3,29.97,WSW,254,1.0,8.0,68,0.00,,---,0.00,VWS V14.00,2013-05-06 10:37:00,
2013-05-06 06:38:00,49.5,39.4,29.96,SE,128,6.0,8.0,68,0.00,,---,0.00,VWS V14.00,2013-05-06 10:38:00,
2013-05-06 06:39:00,49.5,39.0,29.97,South,177,6.0,8.0,67,0.00,,---,0.00,VWS V14.00,2013-05-06 10:39:00,
2013-05-06 06:40:00,49.6,39.1,29.97,SE,128,5.0,8.0,67,0.00,,---,0.00,VWS V14.00,2013-05-06 10:40:00,
2013-05-06 06:41:00,49.6,39.1,29.97,South,179,0.0,8.0,67,0.00,,---,0.00,VWS V14.00,2013-05-06 10:41:00,
2013-05-06 06:42:00,49.7,39.2,29.97,ESE,109,2.0,8.0,67,0.00,,---,0.00,VWS V14.00,2013-05-06 10:42:00,
2013-05-06 06:43:00,49.7,39.2,29.97,SSE,168,1.0,8.0,67,0.00,,---,0.00,VWS V14.00,2013-05-06 10:43:00,
2013-05-06 06:44:00,49.8,39.3,29.97,SSW,200,6.0,12.0,67,0.00,,---,0.00,VWS V14.00,2013-05-06 10:44:00,
2013-05-06 06:45:00,49.8,39.3,29.97,ESE,115,4.0,12.0,67,0.00,,---,0.00,VWS V14.00,2013-05-06 10:45:00,
2013-05-06 06:46:00,49.8,39.3,29.97,ESE,123,1.0,4.0,67,0.00,,---,0.00,VWS V14.00,2013-05-06 10:46:00,
2013-05-06 06:47:00,49.9,39.4,29.97,South,179,0.0,7.0,67,0.00,,---,0.00,VWS V14.00,2013-05-06 10:47:00,
2013-05-06 06:48:00,49.9,39.4,29.97,SSE,148,0.0,7.0,67,0.00,,---,0.00,VWS V14.00,2013-05-06 10:48:00,
2013-05-06 06:49:00,49.9,39.4,29.97,SE,137,1.0,8.0,67,0.00,,---,0.00,VWS V14.00,2013-05-06 10:49:00,
2013-05-06 06:50:00,49.9,39.0,29.97,SSE,158,1.0,8.0,66,0.00,,---,0.00,VWS V14.00,2013-05-06 10:50:00,
2013-05-06 06:51:00,50.0,39.5,29.97,SE,136,7.0,8.0,67,0.00,,---,0.00,VWS V14.00,2013-05-06 10:51:00,
2013-05-06 06:52:00,50.0,40.2,29.97,ESE,120,0.0,8.0,69,0.00,,---,0.00,VWS V14.00,2013-05-06 10:52:00,
2013-05-06 06:53:00,50.0,39.5,29.97,ESE,118,1.0,9.0,67,0.00,,---,0.00,VWS V14.00,2013-05-06 10:53:00,
2013-05-06 06:54:00,50.1,39.6,29.97,ESE,114,9.0,9.0,67,0.00,,---,0.00,VWS V14.00,2013-05-06 10:54:00,
2013-05-06 06:55:00,50.1,39.2,29.97,SSE,149,7.0,11.0,66,0.00,,---,0.00,VWS V14.00,2013-05-06 10:55:00,
2013-05-06 06:56:00,50.2,39.3,29.97,South,186,2.0,11.0,66,0.00,,---,0.00,VWS V14.00,2013-05-06 10:56:00,
2013-05-06 06:57:00,50.2,39.7,29.97,SSW,203,5.0,11.0,67,0.00,,---,0.00,VWS V14.00,2013-05-06 10:57:00,
2013-05-06 06:58:00,50.3,39.4,29.97,SSE,148,8.0,11.0,66,0.00,,---,0.00,VWS V14.00,2013-05-06 10:58:00,
2013-05-06 06:59:00,50.3,39.4,29.97,SSE,161,0.0,11.0,66,0.00,,---,0.00,VWS V14.00,2013-05-06 10:59:00,
2013-05-06 07:00:00,50.3,39.8,29.97,South,186,0.0,11.0,67,0.00,,---,0.00,VWS V14.00,2013-05-06 11:00:00,
2013-05-06 07:01:00,50.4,39.5,29.97,SE,133,0.0,6.0,66,0.00,,---,0.00,VWS V14.00,2013-05-06 11:01:00,
2013-05-06 07:02:00,50.5,39.6,29.97,SE,124,5.0,6.0,66,0.00,,---,0.00,VWS V14.00,2013-05-06 11:02:00,
2013-05-06 07:03:00,50.5,39.6,29.97,SE,146,8.0,14.0,66,0.00,,---,0.00,VWS V14.00,2013-05-06 11:03:00,
2013-05-06 07:04:00,50.6,39.7,29.97,East,98,4.0,14.0,66,0.00,,---,0.00,VWS V14.00,2013-05-06 11:04:00,
2013-05-06 07:05:00,50.7,39.8,29.97,ESE,105,11.0,14.0,66,0.00,,---,0.00,VWS V14.00,2013-05-06 11:05:00,
2013-05-06 07:06:00,50.7,39.8,29.97,SE,138,5.0,14.0,66,0.00,,---,0.00,VWS V14.00,2013-05-06 11:06:00,
2013-05-06 07:07:00,50.8,39.9,29.97,ESE,109,7.0,14.0,66,0.00,,---,0.00,VWS V14.00,2013-05-06 11:07:00,
2013-05-06 07:08:00,50.8,39.9,29.97,SSW,204,2.0,14.0,66,0.00,,---,0.00,VWS V14.00,2013-05-06 11:08:00,
2013-05-06 07:09:00,50.9,40.0,29.97,SE,129,7.0,14.0,66,0.00,,---,0.00,VWS V14.00,2013-05-06 11:09:00,
2013-05-06 07:10:00,50.9,39.6,29.97,South,184,2.0,14.0,65,0.00,,---,0.00,VWS V14.00,2013-05-06 11:10:00,
2013-05-06 07:11:00,50.9,39.6,29.97,ESE,109,4.0,14.0,65,0.00,,---,0.00,VWS V14.00,2013-05-06 11:11:00,
2013-05-06 07:12:00,51.0,39.7,29.98,SE,140,5.0,14.0,65,0.00,,---,0.00,VWS V14.00,2013-05-06 11:12:00,
2013-05-06 07:13:00,51.0,39.7,29.97,SSE,167,1.0,14.0,65,0.00,,---,0.00,VWS V14.00,2013-05-06 11:13:00,
2013-05-06 07:14:00,51.1,39.8,29.97,SE,138,4.0,14.0,65,0.00,,---,0.00,VWS V14.00,2013-05-06 11:14:00,
2013-05-06 07:15:00,51.1,39.8,29.97,South,182,3.0,14.0,65,0.00,,---,0.00,VWS V14.00,2013-05-06 11:15:00,
2013-05-06 07:16:00,51.2,39.8,29.97,South,180,2.0,9.0,65,0.00,,---,0.00,VWS V14.00,2013-05-06 11:16:00,
2013-05-06 07:17:00,51.2,39.8,29.97,SE,132,2.0,12.0,65,0.00,,---,0.00,VWS V14.00,2013-05-06 11:17:00,
2013-05-06 07:18:00,51.3,40.0,29.97,ESE,120,7.0,12.0,65,0.00,,---,0.00,VWS V14.00,2013-05-06 11:18:00,
2013-05-06 07:19:00,51.3,40.0,29.97,East,84,3.0,12.0,65,0.00,,---,0.00,VWS V14.00,2013-05-06 11:19:00,
2013-05-06 07:20:00,51.4,40.0,29.97,South,180,4.0,12.0,65,0.00,,---,0.00,VWS V14.00,2013-05-06 11:20:00,
2013-05-06 07:21:00,51.4,40.0,29.97,South,175,4.0,12.0,65,0.00,,---,0.00,VWS V14.00,2013-05-06 11:21:00,
2013-05-06 07:22:00,51.5,39.7,29.97,South,184,1.0,12.0,64,0.00,,---,0.00,VWS V14.00,2013-05-06 11:22:00,
2013-05-06 07:23:00,51.5,40.1,29.97,South,173,0.0,12.0,65,0.00,,---,0.00,VWS V14.00,2013-05-06 11:23:00,
2013-05-06 07:24:00,51.6,40.2,29.97,ESE,110,12.0,14.0,65,0.00,,---,0.00,VWS V14.00,2013-05-06 11:24:00,
2013-05-06 07:25:00,51.7,39.9,29.97,SSE,152,10.0,14.0,64,0.00,,---,0.00,VWS V14.00,2013-05-06 11:25:00,
2013-05-06 07:26:00,51.7,39.9,29.97,SW,229,2.0,14.0,64,0.00,,---,0.00,VWS V14.00,2013-05-06 11:26:00,
2013-05-06 07:27:00,51.8,40.0,29.97,SE,143,1.0,14.0,64,0.00,,---,0.00,VWS V14.00,2013-05-06 11:27:00,
2013-05-06 07:28:00,51.8,40.0,29.97,SSW,204,6.0,14.0,64,0.00,,---,0.00,VWS V14.00,2013-05-06 11:28:00,
2013-05-06 07:29:00,51.9,40.1,29.97,SSE,155,7.0,14.0,64,0.00,,---,0.00,VWS V14.00,2013-05-06 11:29:00,
2013-05-06 07:30:00,51.9,40.1,29.97,SE,146,6.0,14.0,64,0.00,,---,0.00,VWS V14.00,2013-05-06 11:30:00,
2013-05-06 07:31:00,51.9,40.1,29.97,ESE,119,5.0,11.0,64,0.00,,---,0.00,VWS V14.00,2013-05-06 11:31:00,
2013-05-06 07:32:00,52.0,39.8,29.97,SE,126,0.0,11.0,63,0.00,,---,0.00,VWS V14.00,2013-05-06 11:32:00,
2013-05-06 07:33:00,52.0,39.8,29.97,SSE,151,1.0,11.0,63,0.00,,---,0.00,VWS V14.00,2013-05-06 11:33:00,
2013-05-06 07:34:00,52.0,39.8,29.97,North,355,3.0,15.0,63,0.00,,---,0.00,VWS V14.00,2013-05-06 11:34:00,
2013-05-06 07:35:00,52.1,39.9,29.97,SE,131,9.0,15.0,63,0.00,,---,0.00,VWS V14.00,2013-05-06 11:35:00,
2013-05-06 07:36:00,52.1,39.9,29.97,SSE,155,7.0,15.0,63,0.00,,---,0.00,VWS V14.00,2013-05-06 11:36:00,
2013-05-06 07:37:00,52.1,39.9,29.97,SSE,161,1.0,15.0,63,0.00,,---,0.00,VWS V14.00,2013-05-06 11:37:00,
2013-05-06 07:38:00,52.1,39.5,29.97,South,175,6.0,15.0,62,0.00,,---,0.00,VWS V14.00,2013-05-06 11:38:00,
2013-05-06 07:39:00,52.2,40.0,29.97,ESE,105,7.0,15.0,63,0.00,,---,0.00,VWS V14.00,2013-05-06 11:39:00,
2013-05-06 07:40:00,52.3,40.1,29.97,South,172,4.0,15.0,63,0.00,,---,0.00,VWS V14.00,2013-05-06 11:40:00,
2013-05-06 07:41:00,52.3,40.1,29.97,SSW,211,5.0,15.0,63,0.00,,---,0.00,VWS V14.00,2013-05-06 11:41:00,
2013-05-06 07:42:00,52.4,39.8,29.97,South,188,3.0,15.0,62,0.00,,---,0.00,VWS V14.00,2013-05-06 11:42:00,
2013-05-06 07:43:00,52.5,40.3,29.97,South,180,14.0,15.0,63,0.00,,---,0.00,VWS V14.00,2013-05-06 11:43:00,
2013-05-06 07:44:00,52.6,40.0,29.97,South,173,7.0,15.0,62,0.00,,---,0.00,VWS V14.00,2013-05-06 11:44:00,
2013-05-06 07:45:00,52.6,40.0,29.97,South,184,5.0,15.0,62,0.00,,---,0.00,VWS V14.00,2013-05-06 11:45:00,
2013-05-06 07:46:00,52.7,40.1,29.97,South,181,0.0,6.0,62,0.00,,---,0.00,VWS V14.00,2013-05-06 11:46:00,
2013-05-06 07:47:00,52.8,40.2,29.97,South,169,5.0,6.0,62,0.00,,---,0.00,VWS V14.00,2013-05-06 11:47:00,
2013-05-06 07:48:00,52.9,40.2,29.97,South,169,8.0,12.0,62,0.00,,---,0.00,VWS V14.00,2013-05-06 11:48:00,
2013-05-06 07:49:00,53.0,39.9,29.97,ESE,117,2.0,12.0,61,0.00,,---,0.00,VWS V14.00,2013-05-06 11:49:00,
2013-05-06 07:50:00,53.0,39.9,29.97,ENE,61,2.0,13.0,61,0.00,,---,0.00,VWS V14.00,2013-05-06 11:50:00,
2013-05-06 07:51:00,53.1,40.0,29.97,South,185,3.0,13.0,61,0.00,,---,0.00,VWS V14.00,2013-05-06 11:51:00,
2013-05-06 07:52:00,53.1,40.0,29.97,South,191,0.0,13.0,61,0.00,,---,0.00,VWS V14.00,2013-05-06 11:52:00,
2013-05-06 07:53:00,53.2,40.1,29.97,SSW,195,6.0,13.0,61,0.00,,---,0.00,VWS V14.00,2013-05-06 11:53:00,
2013-05-06 07:54:00,53.3,40.2,29.97,South,169,0.0,13.0,61,0.00,,---,0.00,VWS V14.00,2013-05-06 11:54:00,
2013-05-06 07:55:00,53.3,40.6,29.97,ESE,117,6.0,13.0,62,0.00,,---,0.00,VWS V14.00,2013-05-06 11:55:00,
2013-05-06 07:56:00,53.5,40.4,29.97,South,176,2.0,13.0,61,0.00,,---,0.00,VWS V14.00,2013-05-06 11:56:00,
2013-05-06 07:57:00,53.6,40.5,29.97,SE,133,6.0,13.0,61,0.00,,---,0.00,VWS V14.00,2013-05-06 11:57:00,
2013-05-06 07:58:00,53.6,40.5,29.97,South,188,5.0,13.0,61,0.00,,---,0.00,VWS V14.00,2013-05-06 11:58:00,
2013-05-06 07:59:00,53.7,40.6,29.97,South,178,12.0,13.0,61,0.00,,---,0.00,VWS V14.00,2013-05-06 11:59:00,
2013-05-06 08:00:00,53.7,40.2,29.97,South,175,9.0,14.0,60,0.00,,---,0.00,VWS V14.00,2013-05-06 12:00:00,
2013-05-06 08:01:00,53.7,40.2,29.97,SE,126,8.0,11.0,60,0.00,,---,0.00,VWS V14.00,2013-05-06 12:01:00,
2013-05-06 08:02:00,53.7,40.6,29.97,SSE,153,6.0,11.0,61,0.00,,---,0.00,VWS V14.00,2013-05-06 12:02:00,
2013-05-06 08:03:00,53.7,40.6,29.97,East,99,8.0,11.0,61,0.00,,---,0.00,VWS V14.00,2013-05-06 12:03:00,
2013-05-06 08:04:00,53.8,40.7,29.97,ESE,113,2.0,11.0,61,0.00,,---,0.00,VWS V14.00,2013-05-06 12:04:00,
2013-05-06 08:05:00,53.9,40.3,29.97,SSW,192,12.0,12.0,60,0.00,,---,0.00,VWS V14.00,2013-05-06 12:05:00,
2013-05-06 08:06:00,53.9,40.3,29.97,SE,130,7.0,12.0,60,0.00,,---,0.00,VWS V14.00,2013-05-06 12:06:00,
2013-05-06 08:07:00,54.0,40.4,29.97,ESE,111,8.0,12.0,60,0.00,,---,0.00,VWS V14.00,2013-05-06 12:07:00,
2013-05-06 08:08:00,54.1,40.5,29.97,ESE,123,9.0,12.0,60,0.00,,---,0.00,VWS V14.00,2013-05-06 12:08:00,
2013-05-06 08:09:00,54.1,40.5,29.97,ESE,105,7.0,12.0,60,0.00,,---,0.00,VWS V14.00,2013-05-06 12:09:00,
2013-05-06 08:10:00,54.1,40.1,29.97,South,188,6.0,12.0,59,0.00,,---,0.00,VWS V14.00,2013-05-06 12:10:00,
2013-05-06 08:11:00,54.1,40.1,29.97,ESE,105,12.0,12.0,59,0.00,,---,0.00,VWS V14.00,2013-05-06 12:11:00,
2013-05-06 08:12:00,54.1,40.5,29.97,SSW,192,7.0,12.0,60,0.00,,---,0.00,VWS V14.00,2013-05-06 12:12:00,
2013-05-06 08:13:00,54.0,40.0,29.97,South,176,5.0,12.0,59,0.00,,---,0.00,VWS V14.00,2013-05-06 12:13:00,
2013-05-06 08:14:00,54.0,40.0,29.97,East,96,2.0,12.0,59,0.00,,---,0.00,VWS V14.00,2013-05-06 12:14:00,
2013-05-06 08:15:00,54.0,40.4,29.97,SE,142,4.0,12.0,60,0.00,,---,0.00,VWS V14.00,2013-05-06 12:15:00,
2013-05-06 08:16:00,54.1,41.0,29.97,SE,130,2.0,5.0,61,0.00,,---,0.00,VWS V14.00,2013-05-06 12:16:00,
2013-05-06 08:17:00,54.1,40.5,29.97,SSE,164,6.0,8.0,60,0.00,,---,0.00,VWS V14.00,2013-05-06 12:17:00,
2013-05-06 08:18:00,54.2,40.6,29.97,East,99,8.0,11.0,60,0.00,,---,0.00,VWS V14.00,2013-05-06 12:18:00,
2013-05-06 08:19:00,54.2,40.6,29.97,SE,145,0.0,11.0,60,0.00,,---,0.00,VWS V14.00,2013-05-06 12:19:00,
2013-05-06 08:20:00,54.2,40.6,29.97,SSE,149,4.0,11.0,60,0.00,,---,0.00,VWS V14.00,2013-05-06 12:20:00,
2013-05-06 08:21:00,54.2,40.6,29.97,South,186,2.0,11.0,60,0.00,,---,0.00,VWS V14.00,2013-05-06 12:21:00,
2013-05-06 08:22:00,54.2,40.2,29.97,SSE,163,4.0,11.0,59,0.00,,---,0.00,VWS V14.00,2013-05-06 12:22:00,
2013-05-06 08:23:00,54.2,40.6,29.97,SE,124,1.0,11.0,60,0.00,,---,0.00,VWS V14.00,2013-05-06 12:23:00,
2013-05-06 08:24:00,54.2,40.6,29.97,SSW,195,4.0,11.0,60,0.00,,---,0.00,VWS V14.00,2013-05-06 12:24:00,
2013-05-06 08:25:00,54.3,40.3,29.97,SE,136,4.0,11.0,59,0.00,,---,0.00,VWS V14.00,2013-05-06 12:25:00,
2013-05-06 08:26:00,54.3,40.3,29.97,South,189,6.0,11.0,59,0.00,,---,0.00,VWS V14.00,2013-05-06 12:26:00,
2013-05-06 08:27:00,54.4,40.8,29.97,SE,145,0.0,11.0,60,0.00,,---,0.00,VWS V14.00,2013-05-06 12:27:00,
2013-05-06 08:28:00,54.4,40.8,29.97,SE,134,2.0,11.0,60,0.00,,---,0.00,VWS V14.00,2013-05-06 12:28:00,
2013-05-06 08:29:00,54.5,40.5,29.97,ESE,111,5.0,11.0,59,0.00,,---,0.00,VWS V14.00,2013-05-06 12:29:00,
2013-05-06 08:30:00,54.6,40.6,29.97,ESE,114,4.0,11.0,59,0.00,,---,0.00,VWS V14.00,2013-05-06 12:30:00,
2013-05-06 08:31:00,54.7,40.2,29.97,ESE,117,6.0,13.0,58,0.00,,---,0.00,VWS V14.00,2013-05-06 12:31:00,
2013-05-06 08:32:00,54.7,40.7,29.97,SSE,160,5.0,13.0,59,0.00,,---,0.00,VWS V14.00,2013-05-06 12:32:00,
2013-05-06 08:33:00,54.8,40.8,29.97,SSE,165,0.0,13.0,59,0.00,,---,0.00,VWS V14.00,2013-05-06 12:33:00,
2013-05-06 08:34:00,54.8,40.8,29.97,SSE,159,11.0,13.0,59,0.00,,---,0.00,VWS V14.00,2013-05-06 12:34:00,
2013-05-06 08:35:00,54.9,40.4,29.97,SSE,158,1.0,13.0,58,0.00,,---,0.00,VWS V14.00,2013-05-06 12:35:00,
2013-05-06 08:36:00,54.9,40.9,29.97,SE,136,1.0,13.0,59,0.00,,---,0.00,VWS V14.00,2013-05-06 12:36:00,
2013-05-06 08:37:00,55.0,41.0,29.97,SSE,166,6.0,13.0,59,0.00,,---,0.00,VWS V14.00,2013-05-06 12:37:00,
2013-05-06 08:38:00,55.1,40.6,29.97,SE,136,2.0,13.0,58,0.00,,---,0.00,VWS V14.00,2013-05-06 12:38:00,
2013-05-06 08:39:00,55.3,41.2,29.97,South,174,6.0,13.0,59,0.00,,---,0.00,VWS V14.00,2013-05-06 12:39:00,
2013-05-06 08:40:00,55.4,41.3,29.97,ESE,115,0.0,13.0,59,0.00,,---,0.00,VWS V14.00,2013-05-06 12:40:00,
2013-05-06 08:41:00,55.5,41.4,29.97,SSW,204,2.0,13.0,59,0.00,,---,0.00,VWS V14.00,2013-05-06 12:41:00,
2013-05-06 08:42:00,55.6,40.6,29.97,South,179,6.0,16.0,57,0.00,,---,0.00,VWS V14.00,2013-05-06 12:42:00,
2013-05-06 08:43:00,55.6,40.6,29.97,SSE,163,4.0,16.0,57,0.00,,---,0.00,VWS V14.00,2013-05-06 12:43:00,
2013-05-06 08:44:00,55.7,40.7,29.97,SE,133,8.0,16.0,57,0.00,,---,0.00,VWS V14.00,2013-05-06 12:44:00,
2013-05-06 08:45:00,55.6,40.6,29.97,SW,219,2.0,16.0,57,0.00,,---,0.00,VWS V14.00,2013-05-06 12:45:00,
2013-05-06 08:46:00,55.6,40.6,29.97,South,184,6.0,8.0,57,0.00,,---,0.00,VWS V14.00,2013-05-06 12:46:00,
2013-05-06 08:47:00,55.5,40.5,29.97,South,187,4.0,8.0,57,0.00,,---,0.00,VWS V14.00,2013-05-06 12:47:00,
2013-05-06 08:48:00,55.5,40.5,29.97,South,190,2.0,8.0,57,0.00,,---,0.00,VWS V14.00,2013-05-06 12:48:00,
2013-05-06 08:49:00,55.5,41.0,29.97,SSE,153,1.0,8.0,58,0.00,,---,0.00,VWS V14.00,2013-05-06 12:49:00,
2013-05-06 08:50:00,55.7,41.2,29.97,South,169,5.0,8.0,58,0.00,,---,0.00,VWS V14.00,2013-05-06 12:50:00,
2013-05-06 08:51:00,55.8,40.8,29.97,SSW,192,4.0,13.0,57,0.00,,---,0.00,VWS V14.00,2013-05-06 12:51:00,
2013-05-06 08:52:00,55.8,40.8,29.97,SSE,156,8.0,13.0,57,0.00,,---,0.00,VWS V14.00,2013-05-06 12:52:00,
2013-05-06 08:53:00,55.8,40.8,29.97,South,180,4.0,13.0,57,0.00,,---,0.00,VWS V14.00,2013-05-06 12:53:00,
2013-05-06 08:54:00,55.8,40.4,29.97,SW,229,3.0,13.0,56,0.00,,---,0.00,VWS V14.00,2013-05-06 12:54:00,
2013-05-06 08:55:00,55.8,40.4,29.97,ESE,111,7.0,13.0,56,0.00,,---,0.00,VWS V14.00,2013-05-06 12:55:00,
2013-05-06 08:56:00,55.7,40.3,29.97,South,186,3.0,13.0,56,0.00,,---,0.00,VWS V14.00,2013-05-06 12:56:00,
2013-05-06 08:57:00,55.7,40.3,29.97,ESE,118,7.0,13.0,56,0.00,,---,0.00,VWS V14.00,2013-05-06 12:57:00,
2013-05-06 08:58:00,55.7,40.3,29.97,South,169,1.0,13.0,56,0.00,,---,0.00,VWS V14.00,2013-05-06 12:58:00,
2013-05-06 08:59:00,55.7,40.3,29.97,SSE,158,9.0,13.0,56,0.00,,---,0.00,VWS V14.00,2013-05-06 12:59:00,
2013-05-06 09:00:00,55.7,40.3,29.97,South,177,8.0,13.0,56,0.00,,---,0.00,VWS V14.00,2013-05-06 13:00:00,
2013-05-06 09:01:00,55.7,40.3,29.97,SSE,153,1.0,9.0,56,0.00,,---,0.00,VWS V14.00,2013-05-06 13:01:00,
2013-05-06 09:02:00,55.7,40.3,29.97,SSW,203,8.0,10.0,56,0.00,,---,0.00,VWS V14.00,2013-05-06 13:02:00,
2013-05-06 09:03:00,55.7,40.3,29.97,ESE,108,7.0,10.0,56,0.00,,---,0.00,VWS V14.00,2013-05-06 13:03:00,
2013-05-06 09:04:00,55.8,40.4,29.97,SE,145,5.0,10.0,56,0.00,,---,0.00,VWS V14.00,2013-05-06 13:04:00,
2013-05-06 09:05:00,55.9,40.0,29.97,South,184,2.0,10.0,55,0.00,,---,0.00,VWS V14.00,2013-05-06 13:05:00,
2013-05-06 09:06:00,55.9,40.0,29.97,SSE,165,5.0,10.0,55,0.00,,---,0.00,VWS V14.00,2013-05-06 13:06:00,
2013-05-06 09:07:00,56.0,40.5,29.97,ESE,110,4.0,10.0,56,0.00,,---,0.00,VWS V14.00,2013-05-06 13:07:00,
2013-05-06 09:08:00,56.2,40.7,29.97,South,178,9.0,10.0,56,0.00,,---,0.00,VWS V14.00,2013-05-06 13:08:00,
2013-05-06 09:09:00,56.3,40.8,29.97,SSW,194,6.0,11.0,56,0.00,,---,0.00,VWS V14.00,2013-05-06 13:09:00,
2013-05-06 09:10:00,56.4,40.5,29.97,South,191,5.0,11.0,55,0.00,,---,0.00,VWS V14.00,2013-05-06 13:10:00,
2013-05-06 09:11:00,56.6,40.6,29.97,South,190,7.0,11.0,55,0.00,,---,0.00,VWS V14.00,2013-05-06 13:11:00,
2013-05-06 09:12:00,56.6,40.2,29.97,ESE,117,7.0,11.0,54,0.00,,---,0.00,VWS V14.00,2013-05-06 13:12:00,
2013-05-06 09:13:00,56.7,40.3,29.97,South,182,1.0,11.0,54,0.00,,---,0.00,VWS V14.00,2013-05-06 13:13:00,
2013-05-06 09:14:00,56.8,40.8,29.97,SSW,198,9.0,11.0,55,0.00,,---,0.00,VWS V14.00,2013-05-06 13:14:00,
2013-05-06 09:15:00,56.8,40.3,29.97,SSE,167,1.0,11.0,54,0.00,,---,0.00,VWS V14.00,2013-05-06 13:15:00,
2013-05-06 09:16:00,56.8,40.3,29.97,SE,126,4.0,9.0,54,0.00,,---,0.00,VWS V14.00,2013-05-06 13:16:00,
2013-05-06 09:17:00,56.9,40.4,29.97,SE,131,0.0,9.0,54,0.00,,---,0.00,VWS V14.00,2013-05-06 13:17:00,
2013-05-06 09:18:00,57.0,40.5,29.97,SSE,166,1.0,9.0,54,0.00,,---,0.00,VWS V14.00,2013-05-06 13:18:00,
2013-05-06 09:19:00,57.0,41.0,29.97,ESE,119,4.0,9.0,55,0.00,,---,0.00,VWS V14.00,2013-05-06 13:19:00,
2013-05-06 09:20:00,57.1,41.1,29.97,SE,127,5.0,9.0,55,0.00,,---,0.00,VWS V14.00,2013-05-06 13:20:00,
2013-05-06 09:21:00,57.2,41.2,29.97,South,184,3.0,9.0,55,0.00,,---,0.00,VWS V14.00,2013-05-06 13:21:00,
2013-05-06 09:22:00,57.3,40.3,29.97,SSW,204,4.0,9.0,53,0.00,,---,0.00,VWS V14.00,2013-05-06 13:22:00,
2013-05-06 09:23:00,57.4,40.9,29.97,South,183,4.0,9.0,54,0.00,,---,0.00,VWS V14.00,2013-05-06 13:23:00,
2013-05-06 09:24:00,57.4,40.9,29.97,South,170,1.0,9.0,54,0.00,,---,0.00,VWS V14.00,2013-05-06 13:24:00,
2013-05-06 09:25:00,57.5,40.5,29.97,South,171,4.0,9.0,53,0.00,,---,0.00,VWS V14.00,2013-05-06 13:25:00,
2013-05-06 09:26:00,57.6,41.1,29.97,South,175,6.0,10.0,54,0.00,,---,0.00,VWS V14.00,2013-05-06 13:26:00,
2013-05-06 09:27:00,57.7,40.7,29.97,South,183,4.0,10.0,53,0.00,,---,0.00,VWS V14.00,2013-05-06 13:27:00,
2013-05-06 09:28:00,57.8,40.8,29.97,South,190,8.0,10.0,53,0.00,,---,0.00,VWS V14.00,2013-05-06 13:28:00,
2013-05-06 09:29:00,57.9,40.4,29.97,South,178,2.0,10.0,52,0.00,,---,0.00,VWS V14.00,2013-05-06 13:29:00,
2013-05-06 09:30:00,58.0,41.5,29.97,ESE,123,6.0,10.0,54,0.00,,---,0.00,VWS V14.00,2013-05-06 13:30:00,
2013-05-06 09:31:00,58.2,41.2,29.97,SSE,148,1.0,10.0,53,0.00,,---,0.00,VWS V14.00,2013-05-06 13:31:00,
2013-05-06 09:32:00,58.3,41.3,29.97,South,171,0.0,10.0,53,0.00,,---,0.00,VWS V14.00,2013-05-06 13:32:00,
2013-05-06 09:33:00,58.4,41.3,29.97,South,188,4.0,10.0,53,0.00,,---,0.00,VWS V14.00,2013-05-06 13:33:00,
2013-05-06 09:34:00,58.6,41.0,29.97,SSE,159,5.0,10.0,52,0.00,,---,0.00,VWS V14.00,2013-05-06 13:34:00,
2013-05-06 09:35:00,58.7,41.1,29.97,SSE,164,6.0,10.0,52,0.00,,---,0.00,VWS V14.00,2013-05-06 13:35:00,
2013-05-06 09:36:00,58.8,41.2,29.97,SE,130,1.0,10.0,52,0.00,,---,0.00,VWS V14.00,2013-05-06 13:36:00,
2013-05-06 09:37:00,59.0,41.4,29.97,SSE,148,4.0,10.0,52,0.00,,---,0.00,VWS V14.00,2013-05-06 13:37:00,
2013-05-06 09:38:00,59.1,41.5,29.97,South,176,4.0,10.0,52,0.00,,---,0.00,VWS V14.00,2013-05-06 13:38:00,
2013-05-06 09:39:00,59.3,41.2,29.97,South,170,1.0,10.0,51,0.00,,---,0.00,VWS V14.00,2013-05-06 13:39:00,
2013-05-06 09:40:00,59.3,40.7,29.97,East,90,7.0,10.0,50,0.00,,---,0.00,VWS V14.00,2013-05-06 13:40:00,
2013-05-06 09:41:00,59.4,41.3,29.97,South,182,5.0,10.0,51,0.00,,---,0.00,VWS V14.00,2013-05-06 13:41:00,
2013-05-06 09:42:00,59.4,41.3,29.97,SSE,160,2.0,10.0,51,0.00,,---,0.00,VWS V14.00,2013-05-06 13:42:00,
2013-05-06 09:43:00,59.5,41.9,29.97,SE,133,1.0,10.0,52,0.00,,---,0.00,VWS V14.00,2013-05-06 13:43:00,
2013-05-06 09:44:00,59.7,42.1,29.97,ESE,111,4.0,10.0,52,0.00,,---,0.00,VWS V14.00,2013-05-06 13:44:00,
2013-05-06 09:45:00,59.8,42.2,29.97,SSW,202,8.0,10.0,52,0.00,,---,0.00,VWS V14.00,2013-05-06 13:45:00,
2013-05-06 09:46:00,59.9,41.2,29.97,SSE,150,4.0,9.0,50,0.00,,---,0.00,VWS V14.00,2013-05-06 13:46:00,
2013-05-06 09:47:00,59.8,40.6,29.97,SE,130,4.0,11.0,49,0.00,,---,0.00,VWS V14.00,2013-05-06 13:47:00,
2013-05-06 09:48:00,59.8,41.1,29.97,SE,144,1.0,11.0,50,0.00,,---,0.00,VWS V14.00,2013-05-06 13:48:00,
2013-05-06 09:49:00,59.8,41.1,29.97,ENE,77,2.0,11.0,50,0.00,,---,0.00,VWS V14.00,2013-05-06 13:49:00,
2013-05-06 09:50:00,59.9,41.2,29.97,ESE,107,7.0,11.0,50,0.00,,---,0.00,VWS V14.00,2013-05-06 13:50:00,
2013-05-06 09:51:00,60.0,41.3,29.97,South,183,3.0,11.0,50,0.00,,---,0.00,VWS V14.00,2013-05-06 13:51:00,
2013-05-06 09:52:00,59.9,40.2,29.97,SSE,159,5.0,11.0,48,0.00,,---,0.00,VWS V14.00,2013-05-06 13:52:00,
2013-05-06 09:53:00,59.9,40.7,29.97,South,182,2.0,11.0,49,0.00,,---,0.00,VWS V14.00,2013-05-06 13:53:00,
2013-05-06 09:54:00,59.9,40.2,29.97,South,180,8.0,11.0,48,0.00,,---,0.00,VWS V14.00,2013-05-06 13:54:00,
2013-05-06 09:55:00,59.9,41.2,29.97,South,177,1.0,11.0,50,0.00,,---,0.00,VWS V14.00,2013-05-06 13:55:00,
2013-05-06 09:56:00,59.9,40.7,29.97,SSW,195,6.0,11.0,49,0.00,,---,0.00,VWS V14.00,2013-05-06 13:56:00,
2013-05-06 09:57:00,59.9,40.7,29.97,SSW,192,8.0,11.0,49,0.00,,---,0.00,VWS V14.00,2013-05-06 13:57:00,
2013-05-06 09:58:00,59.9,40.7,29.97,SE,136,2.0,11.0,49,0.00,,---,0.00,VWS V14.00,2013-05-06 13:58:00,
2013-05-06 09:59:00,59.9,41.2,29.97,SSW,194,5.0,11.0,50,0.00,,---,0.00,VWS V14.00,2013-05-06 13:59:00,
2013-05-06 10:00:00,60.0,40.3,29.97,SE,132,6.0,11.0,48,0.00,,---,0.00,VWS V14.00,2013-05-06 14:00:00,
2013-05-06 10:01:00,60.0,40.3,29.97,South,178,8.0,8.0,48,0.00,,---,0.00,VWS V14.00,2013-05-06 14:01:00,
2013-05-06 10:02:00,60.1,40.4,29.97,ESE,121,7.0,12.0,48,0.00,,---,0.00,VWS V14.00,2013-05-06 14:02:00,
2013-05-06 10:03:00,60.1,40.9,29.97,ESE,117,5.0,12.0,49,0.00,,---,0.00,VWS V14.00,2013-05-06 14:03:00,
2013-05-06 10:04:00,60.2,41.0,29.97,SW,229,0.0,12.0,49,0.00,,---,0.00,VWS V14.00,2013-05-06 14:04:00,
2013-05-06 10:05:00,60.2,41.0,29.97,SE,134,7.0,12.0,49,0.00,,---,0.00,VWS V14.00,2013-05-06 14:05:00,
2013-05-06 10:06:00,60.4,41.2,29.97,SSE,155,4.0,12.0,49,0.00,,---,0.00,VWS V14.00,2013-05-06 14:06:00,
2013-05-06 10:07:00,60.4,40.6,29.97,SSE,159,8.0,12.0,48,0.00,,---,0.00,VWS V14.00,2013-05-06 14:07:00,
2013-05-06 10:08:00,60.5,39.6,29.97,SSE,165,7.0,12.0,46,0.00,,---,0.00,VWS V14.00,2013-05-06 14:08:00,
2013-05-06 10:09:00,60.5,40.7,29.97,South,188,2.0,12.0,48,0.00,,---,0.00,VWS V14.00,2013-05-06 14:09:00,
2013-05-06 10:10:00,60.5,41.3,29.97,South,173,2.0,12.0,49,0.00,,---,0.00,VWS V14.00,2013-05-06 14:10:00,
2013-05-06 10:11:00,60.6,40.8,29.97,SSW,193,12.0,12.0,48,0.00,,---,0.00,VWS V14.00,2013-05-06 14:11:00,
2013-05-06 10:12:00,60.6,40.8,29.98,South,188,6.0,12.0,48,0.00,,---,0.00,VWS V14.00,2013-05-06 14:12:00,
2013-05-06 10:13:00,60.6,40.8,29.97,SE,126,6.0,13.0,48,0.00,,---,0.00,VWS V14.00,2013-05-06 14:13:00,
2013-05-06 10:14:00,60.6,40.8,29.97,SE,142,0.0,13.0,48,0.00,,---,0.00,VWS V14.00,2013-05-06 14:14:00,
2013-05-06 10:15:00,60.7,40.9,29.97,ESE,121,5.0,13.0,48,0.00,,---,0.00,VWS V14.00,2013-05-06 14:15:00,
2013-05-06 10:16:00,60.8,41.5,29.97,South,169,0.0,7.0,49,0.00,,---,0.00,VWS V14.00,2013-05-06 14:16:00,
2013-05-06 10:17:00,60.9,40.5,29.97,SE,128,4.0,7.0,47,0.00,,---,0.00,VWS V14.00,2013-05-06 14:17:00,
2013-05-06 10:18:00,61.0,40.7,29.97,South,171,11.0,12.0,47,0.00,,---,0.00,VWS V14.00,2013-05-06 14:18:00,
2013-05-06 10:19:00,61.1,40.7,29.97,ESE,115,0.0,12.0,47,0.00,,---,0.00,VWS V14.00,2013-05-06 14:19:00,
2013-05-06 10:20:00,61.2,41.9,29.97,South,170,2.0,12.0,49,0.00,,---,0.00,VWS V14.00,2013-05-06 14:20:00,
2013-05-06 10:21:00,61.4,42.1,29.97,East,101,5.0,12.0,49,0.00,,---,0.00,VWS V14.00,2013-05-06 14:21:00,
2013-05-06 10:22:00,61.5,41.7,29.97,East,87,4.0,12.0,48,0.00,,---,0.00,VWS V14.00,2013-05-06 14:22:00,
2013-05-06 10:23:00,61.6,40.6,29.97,ENE,59,4.0,12.0,46,0.00,,---,0.00,VWS V14.00,2013-05-06 14:23:00,
2013-05-06 10:24:00,61.6,40.6,29.97,SE,126,7.0,12.0,46,0.00,,---,0.00,VWS V14.00,2013-05-06 14:24:00,
2013-05-06 10:25:00,61.6,41.2,29.97,SE,132,12.0,12.0,47,0.00,,---,0.00,VWS V14.00,2013-05-06 14:25:00,
2013-05-06 10:26:00,61.8,40.8,29.97,ESE,121,7.0,12.0,46,0.00,,---,0.00,VWS V14.00,2013-05-06 14:26:00,
2013-05-06 10:27:00,61.8,40.8,29.97,East,94,7.0,12.0,46,0.00,,---,0.00,VWS V14.00,2013-05-06 14:27:00,
2013-05-06 10:28:00,61.9,41.5,29.97,SSW,209,6.0,12.0,47,0.00,,---,0.00,VWS V14.00,2013-05-06 14:28:00,
2013-05-06 10:29:00,62.0,42.6,29.97,ESE,115,5.0,12.0,49,0.00,,---,0.00,VWS V14.00,2013-05-06 14:29:00,
2013-05-06 10:30:00,62.2,41.7,29.97,ESE,121,8.0,12.0,47,0.00,,---,0.00,VWS V14.00,2013-05-06 14:30:00,
2013-05-06 10:31:00,62.3,41.3,29.97,ESE,118,4.0,8.0,46,0.00,,---,0.00,VWS V14.00,2013-05-06 14:31:00,
2013-05-06 10:32:00,62.3,41.3,29.97,ESE,109,8.0,12.0,46,0.00,,---,0.00,VWS V14.00,2013-05-06 14:32:00,
2013-05-06 10:33:00,62.4,41.9,29.97,ESE,121,5.0,12.0,47,0.00,,---,0.00,VWS V14.00,2013-05-06 14:33:00,
2013-05-06 10:34:00,62.5,41.5,29.97,ESE,105,8.0,12.0,46,0.00,,---,0.00,VWS V14.00,2013-05-06 14:34:00,
2013-05-06 10:35:00,62.5,41.5,29.97,ESE,122,7.0,12.0,46,0.00,,---,0.00,VWS V14.00,2013-05-06 14:35:00,
2013-05-06 10:36:00,62.5,41.5,29.97,SE,130,2.0,12.0,46,0.00,,---,0.00,VWS V14.00,2013-05-06 14:36:00,
2013-05-06 10:37:00,62.6,41.0,29.97,SSW,192,5.0,12.0,45,0.00,,---,0.00,VWS V14.00,2013-05-06 14:37:00,
2013-05-06 10:38:00,62.6,42.1,29.97,South,190,3.0,12.0,47,0.00,,---,0.00,VWS V14.00,2013-05-06 14:38:00,
2013-05-06 10:39:00,62.8,42.8,29.97,SSW,203,6.0,12.0,48,0.00,,---,0.00,VWS V14.00,2013-05-06 14:39:00,
2013-05-06 10:40:00,62.8,41.2,29.97,SSW,193,2.0,12.0,45,0.00,,---,0.00,VWS V14.00,2013-05-06 14:40:00,
2013-05-06 10:41:00,62.8,41.7,29.97,South,188,6.0,12.0,46,0.00,,---,0.00,VWS V14.00,2013-05-06 14:41:00,
2013-05-06 10:42:00,62.7,41.1,29.97,SSE,164,5.0,12.0,45,0.00,,---,0.00,VWS V14.00,2013-05-06 14:42:00,
2013-05-06 10:43:00,62.7,40.5,29.97,South,185,5.0,12.0,44,0.00,,---,0.00,VWS V14.00,2013-05-06 14:43:00,
2013-05-06 10:44:00,62.7,40.5,29.97,ESE,106,4.0,12.0,44,0.00,,---,0.00,VWS V14.00,2013-05-06 14:44:00,
2013-05-06 10:45:00,62.7,40.5,29.97,East,98,12.0,15.0,44,0.00,,---,0.00,VWS V14.00,2013-05-06 14:45:00,
2013-05-06 10:46:00,62.8,41.2,29.97,East,82,5.0,9.0,45,0.00,,---,0.00,VWS V14.00,2013-05-06 14:46:00,
2013-05-06 10:47:00,62.8,41.2,29.97,ESE,107,5.0,13.0,45,0.00,,---,0.00,VWS V14.00,2013-05-06 14:47:00,
2013-05-06 10:48:00,62.9,41.3,29.97,SSW,198,4.0,13.0,45,0.00,,---,0.00,VWS V14.00,2013-05-06 14:48:00,
2013-05-06 10:49:00,63.0,41.3,29.97,SSW,200,4.0,13.0,45,0.00,,---,0.00,VWS V14.00,2013-05-06 14:49:00,
2013-05-06 10:50:00,63.0,40.8,29.97,South,190,2.0,13.0,44,0.00,,---,0.00,VWS V14.00,2013-05-06 14:50:00,
2013-05-06 10:51:00,63.0,40.8,29.97,South,180,7.0,13.0,44,0.00,,---,0.00,VWS V14.00,2013-05-06 14:51:00,
2013-05-06 10:52:00,63.0,41.3,29.97,South,178,5.0,13.0,45,0.00,,---,0.00,VWS V14.00,2013-05-06 14:52:00,
2013-05-06 10:53:00,63.0,41.3,29.97,SE,140,8.0,13.0,45,0.00,,---,0.00,VWS V14.00,2013-05-06 14:53:00,
2013-05-06 10:54:00,63.0,41.3,29.97,SE,146,6.0,13.0,45,0.00,,---,0.00,VWS V14.00,2013-05-06 14:54:00,
2013-05-06 10:55:00,63.1,40.9,29.97,SSW,208,6.0,13.0,44,0.00,,---,0.00,VWS V14.00,2013-05-06 14:55:00,
2013-05-06 10:56:00,63.1,42.0,29.97,ESE,114,1.0,13.0,46,0.00,,---,0.00,VWS V14.00,2013-05-06 14:56:00,
2013-05-06 10:57:00,63.3,42.8,29.97,SSW,200,0.0,13.0,47,0.00,,---,0.00,VWS V14.00,2013-05-06 14:57:00,
2013-05-06 10:58:00,63.4,42.3,29.97,SSE,153,0.0,13.0,46,0.00,,---,0.00,VWS V14.00,2013-05-06 14:58:00,
2013-05-06 10:59:00,63.5,40.6,29.97,SSW,204,4.0,13.0,43,0.00,,---,0.00,VWS V14.00,2013-05-06 14:59:00,
2013-05-06 11:00:00,63.6,41.9,29.97,SSW,193,0.0,13.0,45,0.00,,---,0.00,VWS V14.00,2013-05-06 15:00:00,
2013-05-06 11:01:00,63.7,41.4,29.97,SSW,193,1.0,1.0,44,0.00,,---,0.00,VWS V14.00,2013-05-06 15:01:00,
2013-05-06 11:02:00,63.8,41.5,29.97,South,187,1.0,6.0,44,0.00,,---,0.00,VWS V14.00,2013-05-06 15:02:00,
2013-05-06 11:03:00,64.0,41.7,29.97,SE,143,4.0,7.0,44,0.00,,---,0.00,VWS V14.00,2013-05-06 15:03:00,
2013-05-06 11:04:00,64.1,40.6,29.97,South,174,7.0,7.0,42,0.00,,---,0.00,VWS V14.00,2013-05-06 15:04:00,
2013-05-06 11:05:00,64.1,40.6,29.97,SSW,200,9.0,12.0,42,0.00,,---,0.00,VWS V14.00,2013-05-06 15:05:00,
2013-05-06 11:06:00,64.2,40.0,29.97,South,182,4.0,12.0,41,0.00,,---,0.00,VWS V14.00,2013-05-06 15:06:00,
2013-05-06 11:07:00,64.2,39.4,29.97,ESE,121,1.0,12.0,40,0.00,,---,0.00,VWS V14.00,2013-05-06 15:07:00,
2013-05-06 11:08:00,64.2,40.0,29.97,South,186,6.0,12.0,41,0.00,,---,0.00,VWS V14.00,2013-05-06 15:08:00,
2013-05-06 11:09:00,64.2,40.0,29.97,SSW,205,3.0,12.0,41,0.00,,---,0.00,VWS V14.00,2013-05-06 15:09:00,
2013-05-06 11:10:00,64.3,41.9,29.97,SSE,163,6.0,12.0,44,0.00,,---,0.00,VWS V14.00,2013-05-06 15:10:00,
2013-05-06 11:11:00,64.3,40.1,29.97,ESE,107,5.0,12.0,41,0.00,,---,0.00,VWS V14.00,2013-05-06 15:11:00,
2013-05-06 11:12:00,64.3,40.1,29.97,SSW,192,3.0,12.0,41,0.00,,---,0.00,VWS V14.00,2013-05-06 15:12:00,
2013-05-06 11:13:00,64.3,40.7,29.97,SSW,204,5.0,12.0,42,0.00,,---,0.00,VWS V14.00,2013-05-06 15:13:00,
2013-05-06 11:14:00,64.4,40.2,29.97,South,185,2.0,12.0,41,0.00,,---,0.00,VWS V14.00,2013-05-06 15:14:00,
2013-05-06 11:15:00,64.4,40.2,29.97,SSW,211,4.0,12.0,41,0.00,,---,0.00,VWS V14.00,2013-05-06 15:15:00,
2013-05-06 11:16:00,64.5,40.9,29.97,ESE,119,7.0,7.0,42,0.00,,---,0.00,VWS V14.00,2013-05-06 15:16:00,
2013-05-06 11:17:00,64.7,39.8,29.97,ESE,105,1.0,7.0,40,0.00,,---,0.00,VWS V14.00,2013-05-06 15:17:00,
2013-05-06 11:18:00,64.7,40.5,29.97,SE,126,8.0,12.0,41,0.00,,---,0.00,VWS V14.00,2013-05-06 15:18:00,
2013-05-06 11:19:00,64.7,39.2,29.97,East,96,4.0,12.0,39,0.00,,---,0.00,VWS V14.00,2013-05-06 15:19:00,
2013-05-06 11:20:00,64.6,39.8,29.97,ESE,103,5.0,12.0,40,0.00,,---,0.00,VWS V14.00,2013-05-06 15:20:00,
2013-05-06 11:21:00,64.5,39.0,29.97,ESE,103,6.0,12.0,39,0.00,,---,0.00,VWS V14.00,2013-05-06 15:21:00,
2013-05-06 11:22:00,64.4,40.2,29.97,ENE,73,0.0,12.0,41,0.00,,---,0.00,VWS V14.00,2013-05-06 15:22:00,
2013-05-06 11:23:00,64.4,40.2,29.97,NE,49,1.0,12.0,41,0.00,,---,0.00,VWS V14.00,2013-05-06 15:23:00,
2013-05-06 11:24:00,64.5,40.9,29.97,SSE,163,0.0,12.0,42,0.00,,---,0.00,VWS V14.00,2013-05-06 15:24:00,
2013-05-06 11:25:00,64.6,41.0,29.97,ESE,118,2.0,12.0,42,0.00,,---,0.00,VWS V14.00,2013-05-06 15:25:00,
2013-05-06 11:26:00,64.7,39.2,29.97,ESE,108,1.0,12.0,39,0.00,,---,0.00,VWS V14.00,2013-05-06 15:26:00,
2013-05-06 11:27:00,64.7,39.8,29.96,SE,128,1.0,12.0,40,0.00,,---,0.00,VWS V14.00,2013-05-06 15:27:00,
2013-05-06 11:28:00,64.8,39.9,29.96,SSE,149,2.0,12.0,40,0.00,,---,0.00,VWS V14.00,2013-05-06 15:28:00,
2013-05-06 11:29:00,64.9,41.3,29.96,South,171,0.0,12.0,42,0.00,,---,0.00,VWS V14.00,2013-05-06 15:29:00,
2013-05-06 11:30:00,65.0,42.0,29.96,SSE,160,8.0,12.0,43,0.00,,---,0.00,VWS V14.00,2013-05-06 15:30:00,
2013-05-06 11:31:00,65.2,39.6,29.96,South,191,5.0,7.0,39,0.00,,---,0.00,VWS V14.00,2013-05-06 15:31:00,
2013-05-06 11:32:00,65.2,39.0,29.96,SSE,157,2.0,9.0,38,0.00,,---,0.00,VWS V14.00,2013-05-06 15:32:00,
2013-05-06 11:33:00,65.3,39.1,29.96,South,169,0.0,9.0,38,0.00,,---,0.00,VWS V14.00,2013-05-06 15:33:00,
2013-05-06 11:34:00,65.4,41.1,29.96,SSW,198,6.0,9.0,41,0.00,,---,0.00,VWS V14.00,2013-05-06 15:34:00,
2013-05-06 11:35:00,65.5,41.8,29.96,ESE,119,5.0,9.0,42,0.00,,---,0.00,VWS V14.00,2013-05-06 15:35:00,
2013-05-06 11:36:00,65.6,41.9,29.96,South,187,3.0,9.0,42,0.00,,---,0.00,VWS V14.00,2013-05-06 15:36:00,
2013-05-06 11:37:00,65.8,40.2,29.96,SSW,203,1.0,9.0,39,0.00,,---,0.00,VWS V14.00,2013-05-06 15:37:00,
2013-05-06 11:38:00,66.0,39.7,29.96,SE,124,1.0,9.0,38,0.00,,---,0.00,VWS V14.00,2013-05-06 15:38:00,
2013-05-06 11:39:00,66.1,39.1,29.96,ENE,71,6.0,9.0,37,0.00,,---,0.00,VWS V14.00,2013-05-06 15:39:00,
2013-05-06 11:40:00,66.1,39.1,29.96,SSE,163,0.0,9.0,37,0.00,,---,0.00,VWS V14.00,2013-05-06 15:40:00,
2013-05-06 11:41:00,66.2,41.8,29.96,SSE,153,0.0,9.0,41,0.00,,---,0.00,VWS V14.00,2013-05-06 15:41:00,
2013-05-06 11:42:00,66.3,40.6,29.96,ESE,105,1.0,9.0,39,0.00,,---,0.00,VWS V14.00,2013-05-06 15:42:00,
2013-05-06 11:43:00,66.3,41.3,29.96,SSW,209,3.0,9.0,40,0.00,,---,0.00,VWS V14.00,2013-05-06 15:43:00,
2013-05-06 11:44:00,66.5,40.1,29.96,South,181,3.0,9.0,38,0.00,,---,0.00,VWS V14.00,2013-05-06 15:44:00,
2013-05-06 11:45:00,66.5,40.1,29.96,South,171,4.0,12.0,38,0.00,,---,0.00,VWS V14.00,2013-05-06 15:45:00,
2013-05-06 11:46:00,66.6,40.2,29.96,ESE,119,1.0,7.0,38,0.00,,---,0.00,VWS V14.00,2013-05-06 15:46:00,
2013-05-06 11:47:00,66.6,41.5,29.96,ENE,59,2.0,7.0,40,0.00,,---,0.00,VWS V14.00,2013-05-06 15:47:00,
2013-05-06 11:48:00,66.6,38.8,29.95,East,92,4.0,7.0,36,0.00,,---,0.00,VWS V14.00,2013-05-06 15:48:00,
2013-05-06 11:49:00,66.6,38.8,29.95,ENE,74,4.0,7.0,36,0.00,,---,0.00,VWS V14.00,2013-05-06 15:49:00,
2013-05-06 11:50:00,66.6,38.1,29.95,ENE,72,3.0,7.0,35,0.00,,---,0.00,VWS V14.00,2013-05-06 15:50:00,
2013-05-06 11:51:00,66.5,38.0,29.95,East,100,2.0,7.0,35,0.00,,---,0.00,VWS V14.00,2013-05-06 15:51:00,
2013-05-06 11:52:00,66.4,37.9,29.95,East,97,0.0,7.0,35,0.00,,---,0.00,VWS V14.00,2013-05-06 15:52:00,
2013-05-06 11:53:00,66.3,38.6,29.95,ESE,122,4.0,11.0,36,0.00,,---,0.00,VWS V14.00,2013-05-06 15:53:00,
2013-05-06 11:54:00,66.3,39.3,29.95,ESE,103,12.0,12.0,37,0.00,,---,0.00,VWS V14.00,2013-05-06 15:54:00,
2013-05-06 11:55:00,66.3,39.3,29.95,South,186,8.0,12.0,37,0.00,,---,0.00,VWS V14.00,2013-05-06 15:55:00,
2013-05-06 11:56:00,66.4,38.7,29.95,SSE,162,5.0,12.0,36,0.00,,---,0.00,VWS V14.00,2013-05-06 15:56:00,
2013-05-06 11:57:00,66.4,37.9,29.95,South,171,0.0,12.0,35,0.00,,---,0.00,VWS V14.00,2013-05-06 15:57:00,
2013-05-06 11:58:00,66.5,40.1,29.95,ESE,121,6.0,12.0,38,0.00,,---,0.00,VWS V14.00,2013-05-06 15:58:00,
2013-05-06 11:59:00,66.5,38.8,29.95,ESE,115,5.0,12.0,36,0.00,,---,0.00,VWS V14.00,2013-05-06 15:59:00,
2013-05-06 12:00:00,66.5,38.0,29.95,East,88,3.0,12.0,35,0.00,,---,0.00,VWS V14.00,2013-05-06 16:00:00,
2013-05-06 12:01:00,66.5,38.8,29.95,ENE,76,8.0,8.0,36,0.00,,---,0.00,VWS V14.00,2013-05-06 16:01:00,
2013-05-06 12:02:00,66.5,38.0,29.95,ENE,59,5.0,8.0,35,0.00,,---,0.00,VWS V14.00,2013-05-06 16:02:00,
2013-05-06 12:03:00,66.5,37.3,29.95,ESE,107,0.0,8.0,34,0.00,,---,0.00,VWS V14.00,2013-05-06 16:03:00,
2013-05-06 12:04:00,66.5,38.8,29.95,South,190,6.0,11.0,36,0.00,,---,0.00,VWS V14.00,2013-05-06 16:04:00,
2013-05-06 12:05:00,66.5,38.0,29.95,ESE,112,9.0,11.0,35,0.00,,---,0.00,VWS V14.00,2013-05-06 16:05:00,
2013-05-06 12:06:00,66.5,38.8,29.95,ESE,122,7.0,11.0,36,0.00,,---,0.00,VWS V14.00,2013-05-06 16:06:00,
2013-05-06 12:07:00,66.5,38.0,29.95,ESE,104,6.0,11.0,35,0.00,,---,0.00,VWS V14.00,2013-05-06 16:07:00,
2013-05-06 12:08:00,66.3,37.8,29.95,East,90,7.0,11.0,35,0.00,,---,0.00,VWS V14.00,2013-05-06 16:08:00,
2013-05-06 12:09:00,66.1,37.7,29.95,ENE,69,2.0,11.0,35,0.00,,---,0.00,VWS V14.00,2013-05-06 16:09:00,
2013-05-06 12:10:00,66.0,37.6,29.95,ENE,65,1.0,11.0,35,0.00,,---,0.00,VWS V14.00,2013-05-06 16:10:00,
2013-05-06 12:11:00,65.9,37.5,29.95,WSW,241,3.0,11.0,35,0.00,,---,0.00,VWS V14.00,2013-05-06 16:11:00,
2013-05-06 12:12:00,65.9,38.2,29.95,ENE,78,2.0,11.0,36,0.00,,---,0.00,VWS V14.00,2013-05-06 16:12:00,
2013-05-06 12:13:00,65.9,38.9,29.95,SE,146,1.0,11.0,37,0.00,,---,0.00,VWS V14.00,2013-05-06 16:13:00,
2013-05-06 12:14:00,66.0,39.0,29.95,South,175,0.0,11.0,37,0.00,,---,0.00,VWS V14.00,2013-05-06 16:14:00,
2013-05-06 12:15:00,66.1,39.1,29.95,South,190,3.0,11.0,37,0.00,,---,0.00,VWS V14.00,2013-05-06 16:15:00,
2013-05-06 12:16:00,66.1,39.1,29.95,ESE,111,4.0,4.0,37,0.00,,---,0.00,VWS V14.00,2013-05-06 16:16:00,
2013-05-06 12:17:00,66.1,39.8,29.95,East,84,1.0,4.0,38,0.00,,---,0.00,VWS V14.00,2013-05-06 16:17:00,
2013-05-06 12:18:00,66.1,39.1,29.95,ESE,122,6.0,11.0,37,0.00,,---,0.00,VWS V14.00,2013-05-06 16:18:00,
2013-05-06 12:19:00,66.1,39.8,29.95,SE,126,2.0,11.0,38,0.00,,---,0.00,VWS V14.00,2013-05-06 16:19:00,
2013-05-06 12:20:00,66.2,39.9,29.95,South,174,0.0,11.0,38,0.00,,---,0.00,VWS V14.00,2013-05-06 16:20:00,
2013-05-06 12:21:00,66.2,39.9,29.95,ESE,119,4.0,11.0,38,0.00,,---,0.00,VWS V14.00,2013-05-06 16:21:00,
2013-05-06 12:22:00,66.3,39.3,29.94,SE,129,0.0,11.0,37,0.00,,---,0.00,VWS V14.00,2013-05-06 16:22:00,
2013-05-06 12:23:00,66.3,40.6,29.94,SSW,200,4.0,11.0,39,0.00,,---,0.00,VWS V14.00,2013-05-06 16:23:00,
2013-05-06 12:24:00,66.3,39.3,29.94,SE,127,4.0,11.0,37,0.00,,---,0.00,VWS V14.00,2013-05-06 16:24:00,
2013-05-06 12:25:00,66.4,39.4,29.94,SSE,165,0.0,11.0,37,0.00,,---,0.00,VWS V14.00,2013-05-06 16:25:00,
2013-05-06 12:26:00,66.4,39.4,29.94,ESE,108,0.0,11.0,37,0.00,,---,0.00,VWS V14.00,2013-05-06 16:26:00,
2013-05-06 12:27:00,66.4,40.0,29.94,SSW,211,1.0,11.0,38,0.00,,---,0.00,VWS V14.00,2013-05-06 16:27:00,
2013-05-06 12:28:00,66.5,39.5,29.94,SSW,199,2.0,11.0,37,0.00,,---,0.00,VWS V14.00,2013-05-06 16:28:00,
2013-05-06 12:29:00,66.5,39.5,29.94,SSE,157,0.0,11.0,37,0.00,,---,0.00,VWS V14.00,2013-05-06 16:29:00,
2013-05-06 12:30:00,66.6,39.5,29.94,ESE,123,5.0,11.0,37,0.00,,---,0.00,VWS V14.00,2013-05-06 16:30:00,
2013-05-06 12:31:00,66.6,40.2,29.94,ESE,112,6.0,7.0,38,0.00,,---,0.00,VWS V14.00,2013-05-06 16:31:00,
2013-05-06 12:32:00,66.6,40.9,29.94,SSE,150,1.0,8.0,39,0.00,,---,0.00,VWS V14.00,2013-05-06 16:32:00,
2013-05-06 12:33:00,66.6,40.2,29.94,SSE,159,4.0,9.0,38,0.00,,---,0.00,VWS V14.00,2013-05-06 16:33:00,
2013-05-06 12:34:00,66.7,40.3,29.94,SE,144,1.0,9.0,38,0.00,,---,0.00,VWS V14.00,2013-05-06 16:34:00,
2013-05-06 12:35:00,66.8,40.4,29.94,SE,146,4.0,9.0,38,0.00,,---,0.00,VWS V14.00,2013-05-06 16:35:00,
2013-05-06 12:36:00,66.8,39.7,29.94,South,191,1.0,9.0,37,0.00,,---,0.00,VWS V14.00,2013-05-06 16:36:00,
2013-05-06 12:37:00,66.9,41.2,29.94,SSW,204,3.0,9.0,39,0.00,,---,0.00,VWS V14.00,2013-05-06 16:37:00,
2013-05-06 12:38:00,67.0,41.9,29.94,ESE,119,4.0,9.0,40,0.00,,---,0.00,VWS V14.00,2013-05-06 16:38:00,
2013-05-06 12:39:00,67.2,42.7,29.94,ESE,115,7.0,9.0,41,0.00,,---,0.00,VWS V14.00,2013-05-06 16:39:00,
2013-05-06 12:40:00,67.4,40.9,29.94,SSW,207,3.0,11.0,38,0.00,,---,0.00,VWS V14.00,2013-05-06 16:40:00,
2013-05-06 12:41:00,67.5,40.3,29.94,South,189,4.0,11.0,37,0.00,,---,0.00,VWS V14.00,2013-05-06 16:41:00,
2013-05-06 12:42:00,67.6,40.4,29.94,SE,129,0.0,11.0,37,0.00,,---,0.00,VWS V14.00,2013-05-06 16:42:00,
2013-05-06 12:43:00,67.7,41.9,29.94,South,184,0.0,11.0,39,0.00,,---,0.00,VWS V14.00,2013-05-06 16:43:00,
2013-05-06 12:44:00,67.8,40.6,29.94,SE,128,4.0,11.0,37,0.00,,---,0.00,VWS V14.00,2013-05-06 16:44:00,
2013-05-06 12:45:00,67.9,42.1,29.94,ESE,107,2.0,11.0,39,0.00,,---,0.00,VWS V14.00,2013-05-06 16:45:00,
2013-05-06 12:46:00,68.0,40.8,29.94,ESE,110,4.0,6.0,37,0.00,,---,0.00,VWS V14.00,2013-05-06 16:46:00,
2013-05-06 12:47:00,68.1,42.2,29.94,South,189,5.0,6.0,39,0.00,,---,0.00,VWS V14.00,2013-05-06 16:47:00,
2013-05-06 12:48:00,68.2,42.3,29.94,South,186,6.0,10.0,39,0.00,,---,0.00,VWS V14.00,2013-05-06 16:48:00,
2013-05-06 12:49:00,68.3,41.7,29.94,SSW,192,4.0,11.0,38,0.00,,---,0.00,VWS V14.00,2013-05-06 16:49:00,
2013-05-06 12:50:00,68.4,41.8,29.93,South,191,11.0,11.0,38,0.00,,---,0.00,VWS V14.00,2013-05-06 16:50:00,
2013-05-06 12:51:00,68.4,41.1,29.94,South,183,6.0,12.0,37,0.00,,---,0.00,VWS V14.00,2013-05-06 16:51:00,
2013-05-06 12:52:00,68.4,40.4,29.93,South,173,1.0,12.0,36,0.00,,---,0.00,VWS V14.00,2013-05-06 16:52:00,
2013-05-06 12:53:00,68.4,39.7,29.93,South,188,4.0,12.0,35,0.00,,---,0.00,VWS V14.00,2013-05-06 16:53:00,
2013-05-06 12:54:00,68.4,41.1,29.93,SSW,197,4.0,12.0,37,0.00,,---,0.00,VWS V14.00,2013-05-06 16:54:00,
2013-05-06 12:55:00,68.4,40.4,29.93,SE,128,0.0,12.0,36,0.00,,---,0.00,VWS V14.00,2013-05-06 16:55:00,
2013-05-06 12:56:00,68.5,40.5,29.93,South,188,7.0,12.0,36,0.00,,---,0.00,VWS V14.00,2013-05-06 16:56:00,
2013-05-06 12:57:00,68.5,40.5,29.93,SSE,163,7.0,12.0,36,0.00,,---,0.00,VWS V14.00,2013-05-06 16:57:00,
2013-05-06 12:58:00,68.6,40.6,29.93,South,169,4.0,12.0,36,0.00,,---,0.00,VWS V14.00,2013-05-06 16:58:00,
2013-05-06 12:59:00,68.6,42.0,29.93,South,188,8.0,12.0,38,0.00,,---,0.00,VWS V14.00,2013-05-06 16:59:00,
2013-05-06 13:00:00,68.6,39.9,29.93,SSW,195,5.0,12.0,35,0.00,,---,0.00,VWS V14.00,2013-05-06 17:00:00,
2013-05-06 13:01:00,68.7,41.4,29.93,South,190,9.0,9.0,37,0.00,,---,0.00,VWS V14.00,2013-05-06 17:01:00,
2013-05-06 13:02:00,68.8,40.8,29.93,SSW,192,7.0,11.0,36,0.00,,---,0.00,VWS V14.00,2013-05-06 17:02:00,
2013-05-06 13:03:00,68.8,41.5,29.93,South,173,6.0,11.0,37,0.00,,---,0.00,VWS V14.00,2013-05-06 17:03:00,
2013-05-06 13:04:00,68.8,40.8,29.93,South,183,4.0,11.0,36,0.00,,---,0.00,VWS V14.00,2013-05-06 17:04:00,
2013-05-06 13:05:00,68.9,41.6,29.93,SSW,199,3.0,11.0,37,0.00,,---,0.00,VWS V14.00,2013-05-06 17:05:00,
2013-05-06 13:06:00,69.0,40.2,29.93,ENE,75,3.0,11.0,35,0.00,,---,0.00,VWS V14.00,2013-05-06 17:06:00,
2013-05-06 13:07:00,69.0,40.2,29.93,SSW,197,2.0,11.0,35,0.00,,---,0.00,VWS V14.00,2013-05-06 17:07:00,
2013-05-06 13:08:00,69.0,41.7,29.93,South,181,0.0,11.0,37,0.00,,---,0.00,VWS V14.00,2013-05-06 17:08:00,
2013-05-06 13:09:00,69.1,42.5,29.93,South,188,3.0,11.0,38,0.00,,---,0.00,VWS V14.00,2013-05-06 17:09:00,
2013-05-06 13:10:00,69.2,42.5,29.92,South,169,0.0,11.0,38,0.00,,---,0.00,VWS V14.00,2013-05-06 17:10:00,
2013-05-06 13:11:00,69.3,44.0,29.92,SSW,196,6.0,11.0,40,0.00,,---,0.00,VWS V14.00,2013-05-06 17:11:00,
2013-05-06 13:12:00,69.5,42.8,29.92,SSW,205,8.0,11.0,38,0.00,,---,0.00,VWS V14.00,2013-05-06 17:12:00,
2013-05-06 13:13:00,69.7,43.7,29.92,SSW,198,5.0,11.0,39,0.00,,---,0.00,VWS V14.00,2013-05-06 17:13:00,
2013-05-06 13:14:00,69.8,41.7,29.92,SW,220,2.0,11.0,36,0.00,,---,0.00,VWS V14.00,2013-05-06 17:14:00,
2013-05-06 13:15:00,69.8,42.4,29.92,SSW,194,8.0,11.0,37,0.00,,---,0.00,VWS V14.00,2013-05-06 17:15:00,
2013-05-06 13:16:00,69.8,41.7,29.92,South,182,12.0,13.0,36,0.00,,---,0.00,VWS V14.00,2013-05-06 17:16:00,
2013-05-06 13:17:00,69.8,42.4,29.92,SSW,200,5.0,13.0,37,0.00,,---,0.00,VWS V14.00,2013-05-06 17:17:00,
2013-05-06 13:18:00,69.9,41.8,29.92,SSW,202,3.0,13.0,36,0.00,,---,0.00,VWS V14.00,2013-05-06 17:18:00,
2013-05-06 13:19:00,70.0,42.6,29.92,South,182,7.0,13.0,37,0.00,,---,0.00,VWS V14.00,2013-05-06 17:19:00,
2013-05-06 13:20:00,70.1,42.7,29.92,SSE,156,4.0,13.0,37,0.00,,---,0.00,VWS V14.00,2013-05-06 17:20:00,
2013-05-06 13:21:00,70.1,41.2,29.92,SSE,154,0.0,13.0,35,0.00,,---,0.00,VWS V14.00,2013-05-06 17:21:00,
2013-05-06 13:22:00,70.2,42.0,29.92,East,90,4.0,13.0,36,0.00,,---,0.00,VWS V14.00,2013-05-06 17:22:00,
2013-05-06 13:23:00,70.2,41.3,29.92,ESE,120,6.0,13.0,35,0.00,,---,0.00,VWS V14.00,2013-05-06 17:23:00,
2013-05-06 13:24:00,70.2,41.3,29.92,SE,128,6.0,13.0,35,0.00,,---,0.00,VWS V14.00,2013-05-06 17:24:00,
2013-05-06 13:25:00,70.1,40.5,29.92,SE,142,2.0,13.0,34,0.00,,---,0.00,VWS V14.00,2013-05-06 17:25:00,
2013-05-06 13:26:00,70.1,42.7,29.92,SE,132,7.0,13.0,37,0.00,,---,0.00,VWS V14.00,2013-05-06 17:26:00,
2013-05-06 13:27:00,70.2,42.0,29.92,South,170,4.0,13.0,36,0.00,,---,0.00,VWS V14.00,2013-05-06 17:27:00,
2013-05-06 13:28:00,70.3,42.8,29.92,SSE,163,7.0,13.0,37,0.00,,---,0.00,VWS V14.00,2013-05-06 17:28:00,
2013-05-06 13:29:00,70.3,42.1,29.92,SW,214,5.0,13.0,36,0.00,,---,0.00,VWS V14.00,2013-05-06 17:29:00,
2013-05-06 13:30:00,70.3,41.4,29.92,SSW,196,4.0,13.0,35,0.00,,---,0.00,VWS V14.00,2013-05-06 17:30:00,
2013-05-06 13:31:00,70.3,44.2,29.92,SSW,201,7.0,8.0,39,0.00,,---,0.00,VWS V14.00,2013-05-06 17:31:00,
2013-05-06 13:32:00,70.3,42.8,29.92,South,184,4.0,10.0,37,0.00,,---,0.00,VWS V14.00,2013-05-06 17:32:00,
2013-05-06 13:33:00,70.3,44.2,29.92,SSW,204,5.0,10.0,39,0.00,,---,0.00,VWS V14.00,2013-05-06 17:33:00,
2013-05-06 13:34:00,70.3,41.4,29.92,SW,233,2.0,10.0,35,0.00,,---,0.00,VWS V14.00,2013-05-06 17:34:00,
2013-05-06 13:35:00,70.3,42.8,29.92,SSW,203,3.0,10.0,37,0.00,,---,0.00,VWS V14.00,2013-05-06 17:35:00,
2013-05-06 13:36:00,70.4,42.9,29.92,SW,231,4.0,10.0,37,0.00,,---,0.00,VWS V14.00,2013-05-06 17:36:00,
2013-05-06 13:37:00,70.4,42.9,29.92,WSW,239,0.0,10.0,37,0.00,,---,0.00,VWS V14.00,2013-05-06 17:37:00,
2013-05-06 13:38:00,70.5,43.7,29.92,SSW,196,0.0,10.0,38,0.00,,---,0.00,VWS V14.00,2013-05-06 17:38:00,
2013-05-06 13:39:00,70.6,43.8,29.92,ESE,108,6.0,10.0,38,0.00,,---,0.00,VWS V14.00,2013-05-06 17:39:00,
2013-05-06 13:40:00,70.7,42.5,29.91,SSE,163,1.0,10.0,36,0.00,,---,0.00,VWS V14.00,2013-05-06 17:40:00,
2013-05-06 13:41:00,70.8,42.5,29.91,South,190,8.0,10.0,36,0.00,,---,0.00,VWS V14.00,2013-05-06 17:41:00,
2013-05-06 13:42:00,70.9,41.9,29.92,South,180,6.0,10.0,35,0.00,,---,0.00,VWS V14.00,2013-05-06 17:42:00,
2013-05-06 13:43:00,70.8,42.5,29.92,SSW,197,5.0,10.0,36,0.00,,---,0.00,VWS V14.00,2013-05-06 17:43:00,
2013-05-06 13:44:00,70.7,42.5,29.91,SSW,195,2.0,10.0,36,0.00,,---,0.00,VWS V14.00,2013-05-06 17:44:00,
2013-05-06 13:45:00,70.7,42.5,29.91,ESE,118,5.0,10.0,36,0.00,,---,0.00,VWS V14.00,2013-05-06 17:45:00,
2013-05-06 13:46:00,70.8,44.0,29.91,SW,220,3.0,8.0,38,0.00,,---,0.00,VWS V14.00,2013-05-06 17:46:00,
2013-05-06 13:47:00,70.8,41.8,29.91,South,173,0.0,8.0,35,0.00,,---,0.00,VWS V14.00,2013-05-06 17:47:00,
2013-05-06 13:48:00,70.9,44.0,29.91,SSW,205,4.0,8.0,38,0.00,,---,0.00,VWS V14.00,2013-05-06 17:48:00,
2013-05-06 13:49:00,71.0,44.1,29.91,South,188,4.0,8.0,38,0.00,,---,0.00,VWS V14.00,2013-05-06 17:49:00,
2013-05-06 13:50:00,71.1,44.9,29.91,SSE,156,2.0,10.0,39,0.00,,---,0.00,VWS V14.00,2013-05-06 17:50:00,
2013-05-06 13:51:00,71.2,43.6,29.91,South,184,8.0,12.0,37,0.00,,---,0.00,VWS V14.00,2013-05-06 17:51:00,
2013-05-06 13:52:00,71.2,42.9,29.91,SSE,153,2.0,12.0,36,0.00,,---,0.00,VWS V14.00,2013-05-06 17:52:00,
2013-05-06 13:53:00,71.3,43.7,29.91,South,186,2.0,12.0,37,0.00,,---,0.00,VWS V14.00,2013-05-06 17:53:00,
2013-05-06 13:54:00,71.3,45.8,29.91,SSW,192,4.0,12.0,40,0.00,,---,0.00,VWS V14.00,2013-05-06 17:54:00,
2013-05-06 13:55:00,71.4,45.8,29.91,SSE,153,0.0,12.0,40,0.00,,---,0.00,VWS V14.00,2013-05-06 17:55:00,
2013-05-06 13:56:00,71.6,44.7,29.91,South,185,8.0,12.0,38,0.00,,---,0.00,VWS V14.00,2013-05-06 17:56:00,
2013-05-06 13:57:00,71.7,45.5,29.91,South,169,2.0,12.0,39,0.00,,---,0.00,VWS V14.00,2013-05-06 17:57:00,
2013-05-06 13:58:00,71.9,44.9,29.91,SSW,194,6.0,12.0,38,0.00,,---,0.00,VWS V14.00,2013-05-06 17:58:00,
2013-05-06 13:59:00,71.9,44.2,29.91,SSW,204,9.0,12.0,37,0.00,,---,0.00,VWS V14.00,2013-05-06 17:59:00,
2013-05-06 14:00:00,71.9,43.5,29.91,SSW,205,6.0,12.0,36,0.00,,---,0.00,VWS V14.00,2013-05-06 18:00:00,
2013-05-06 14:01:00,71.7,44.1,29.91,SSW,199,3.0,8.0,37,0.00,,---,0.00,VWS V14.00,2013-05-06 18:01:00,
2013-05-06 14:02:00,71.7,44.1,29.91,SSE,153,1.0,8.0,37,0.00,,---,0.00,VWS V14.00,2013-05-06 18:02:00,
2013-05-06 14:03:00,71.7,44.8,29.91,South,178,0.0,8.0,38,0.00,,---,0.00,VWS V14.00,2013-05-06 18:03:00,
2013-05-06 14:04:00,71.8,46.2,29.90,South,180,1.0,8.0,40,0.00,,---,0.00,VWS V14.00,2013-05-06 18:04:00,
2013-05-06 14:05:00,71.9,44.2,29.91,SE,141,2.0,8.0,37,0.00,,---,0.00,VWS V14.00,2013-05-06 18:05:00,
2013-05-06 14:06:00,71.9,43.5,29.90,ESE,109,4.0,8.0,36,0.00,,---,0.00,VWS V14.00,2013-05-06 18:06:00,
2013-05-06 14:07:00,72.0,45.0,29.90,SSW,193,2.0,8.0,38,0.00,,---,0.00,VWS V14.00,2013-05-06 18:07:00,
2013-05-06 14:08:00,72.2,45.9,29.90,SE,124,8.0,8.0,39,0.00,,---,0.00,VWS V14.00,2013-05-06 18:08:00,
2013-05-06 14:09:00,72.2,44.5,29.90,ESE,105,13.0,14.0,37,0.00,,---,0.00,VWS V14.00,2013-05-06 18:09:00,
2013-05-06 14:10:00,72.2,43.8,29.90,ENE,65,11.0,14.0,36,0.00,,---,0.00,VWS V14.00,2013-05-06 18:10:00,
2013-05-06 14:11:00,72.0,42.9,29.90,SE,135,4.0,14.0,35,0.00,,---,0.00,VWS V14.00,2013-05-06 18:11:00,
2013-05-06 14:12:00,71.8,42.7,29.90,East,83,0.0,14.0,35,0.00,,---,0.00,VWS V14.00,2013-05-06 18:12:00,
2013-05-06 14:13:00,71.8,42.7,29.90,South,179,2.0,14.0,35,0.00,,---,0.00,VWS V14.00,2013-05-06 18:13:00,
2013-05-06 14:14:00,71.7,44.8,29.90,South,184,4.0,14.0,38,0.00,,---,0.00,VWS V14.00,2013-05-06 18:14:00,
2013-05-06 14:15:00,71.7,43.3,29.91,SSW,195,4.0,14.0,36,0.00,,---,0.00,VWS V14.00,2013-05-06 18:15:00,
2013-05-06 14:16:00,71.8,45.5,29.90,SSW,209,2.0,6.0,39,0.00,,---,0.00,VWS V14.00,2013-05-06 18:16:00,
2013-05-06 14:17:00,71.9,45.6,29.90,South,180,0.0,6.0,39,0.00,,---,0.00,VWS V14.00,2013-05-06 18:17:00,
2013-05-06 14:18:00,72.1,45.8,29.90,South,175,7.0,8.0,39,0.00,,---,0.00,VWS V14.00,2013-05-06 18:18:00,
2013-05-06 14:19:00,72.3,45.3,29.90,SSW,192,4.0,8.0,38,0.00,,---,0.00,VWS V14.00,2013-05-06 18:19:00,
2013-05-06 14:20:00,72.3,43.1,29.90,SSW,192,6.0,8.0,35,0.00,,---,0.00,VWS V14.00,2013-05-06 18:20:00,
2013-05-06 14:21:00,72.3,43.9,29.90,South,188,5.0,9.0,36,0.00,,---,0.00,VWS V14.00,2013-05-06 18:21:00,
2013-05-06 14:22:00,72.3,44.6,29.90,South,182,7.0,9.0,37,0.00,,---,0.00,VWS V14.00,2013-05-06 18:22:00,
2013-05-06 14:23:00,72.2,43.1,29.90,SE,146,0.0,9.0,35,0.00,,---,0.00,VWS V14.00,2013-05-06 18:23:00,
2013-05-06 14:24:00,72.2,44.5,29.90,SSW,198,2.0,9.0,37,0.00,,---,0.00,VWS V14.00,2013-05-06 18:24:00,
2013-05-06 14:25:00,72.3,45.3,29.90,SSW,209,4.0,9.0,38,0.00,,---,0.00,VWS V14.00,2013-05-06 18:25:00,
2013-05-06 14:26:00,72.4,44.7,29.90,SSW,213,1.0,9.0,37,0.00,,---,0.00,VWS V14.00,2013-05-06 18:26:00,
2013-05-06 14:27:00,72.5,45.5,29.90,SSE,154,1.0,9.0,38,0.00,,---,0.00,VWS V14.00,2013-05-06 18:27:00,
2013-05-06 14:28:00,72.6,46.2,29.89,SSW,193,5.0,9.0,39,0.00,,---,0.00,VWS V14.00,2013-05-06 18:28:00,
2013-05-06 14:29:00,72.7,44.2,29.90,SSE,161,8.0,9.0,36,0.00,,---,0.00,VWS V14.00,2013-05-06 18:29:00,
2013-05-06 14:30:00,72.7,43.5,29.90,ESE,108,4.0,9.0,35,0.00,,---,0.00,VWS V14.00,2013-05-06 18:30:00,
2013-05-06 14:31:00,72.6,43.4,29.89,SSW,211,4.0,9.0,35,0.00,,---,0.00,VWS V14.00,2013-05-06 18:31:00,
2013-05-06 14:32:00,72.6,43.4,29.89,SSE,164,0.0,9.0,35,0.00,,---,0.00,VWS V14.00,2013-05-06 18:32:00,
2013-05-06 14:33:00,72.6,44.9,29.89,SSE,167,6.0,9.0,37,0.00,,---,0.00,VWS V14.00,2013-05-06 18:33:00,
2013-05-06 14:34:00,72.7,43.5,29.89,SSW,198,10.0,14.0,35,0.00,,---,0.00,VWS V14.00,2013-05-06 18:34:00,
2013-05-06 14:35:00,72.7,44.2,29.89,SSW,196,5.0,14.0,36,0.00,,---,0.00,VWS V14.00,2013-05-06 18:35:00,
2013-05-06 14:36:00,72.6,45.6,29.89,SSW,207,10.0,14.0,38,0.00,,---,0.00,VWS V14.00,2013-05-06 18:36:00,
2013-05-06 14:37:00,72.6,44.9,29.89,SSE,157,6.0,14.0,37,0.00,,---,0.00,VWS V14.00,2013-05-06 18:37:00,
2013-05-06 14:38:00,72.6,43.4,29.89,SE,139,5.0,14.0,35,0.00,,---,0.00,VWS V14.00,2013-05-06 18:38:00,
2013-05-06 14:39:00,72.6,43.4,29.89,South,178,0.0,14.0,35,0.00,,---,0.00,VWS V14.00,2013-05-06 18:39:00,
2013-05-06 14:40:00,72.6,44.1,29.89,South,188,8.0,14.0,36,0.00,,---,0.00,VWS V14.00,2013-05-06 18:40:00,
2013-05-06 14:41:00,72.7,44.2,29.89,SSW,209,8.0,14.0,36,0.00,,---,0.00,VWS V14.00,2013-05-06 18:41:00,
2013-05-06 14:42:00,72.7,43.5,29.89,SSW,211,2.0,14.0,35,0.00,,---,0.00,VWS V14.00,2013-05-06 18:42:00,
2013-05-06 14:43:00,72.6,43.4,29.89,South,189,3.0,14.0,35,0.00,,---,0.00,VWS V14.00,2013-05-06 18:43:00,
2013-05-06 14:44:00,72.7,42.7,29.89,SSW,196,1.0,14.0,34,0.00,,---,0.00,VWS V14.00,2013-05-06 18:44:00,
2013-05-06 14:45:00,72.7,44.2,29.89,South,180,2.0,3.0,36,0.00,,---,0.00,VWS V14.00,2013-05-06 18:45:00,
2013-05-06 14:46:00,72.8,44.3,29.89,SSW,203,6.0,6.0,36,0.00,,---,0.00,VWS V14.00,2013-05-06 18:46:00,
2013-05-06 14:47:00,72.8,43.6,29.89,South,190,10.0,10.0,35,0.00,,---,0.00,VWS V14.00,2013-05-06 18:47:00,
2013-05-06 14:48:00,72.8,43.6,29.89,South,189,6.0,11.0,35,0.00,,---,0.00,VWS V14.00,2013-05-06 18:48:00,
2013-05-06 14:49:00,72.8,44.3,29.89,South,176,8.0,12.0,36,0.00,,---,0.00,VWS V14.00,2013-05-06 18:49:00,
2013-05-06 14:50:00,72.9,43.7,29.89,South,178,4.0,12.0,35,0.00,,---,0.00,VWS V14.00,2013-05-06 18:50:00,
2013-05-06 14:51:00,72.9,43.7,29.89,ESE,105,7.0,12.0,35,0.00,,---,0.00,VWS V14.00,2013-05-06 18:51:00,
2013-05-06 14:52:00,72.9,44.4,29.89,SE,141,1.0,12.0,36,0.00,,---,0.00,VWS V14.00,2013-05-06 18:52:00,
2013-05-06 14:53:00,72.9,44.4,29.89,SSE,154,4.0,12.0,36,0.00,,---,0.00,VWS V14.00,2013-05-06 18:53:00,
2013-05-06 14:54:00,73.0,43.8,29.89,SSW,198,0.0,12.0,35,0.00,,---,0.00,VWS V14.00,2013-05-06 18:54:00,
2013-05-06 14:55:00,73.0,43.8,29.89,South,172,2.0,12.0,35,0.00,,---,0.00,VWS V14.00,2013-05-06 18:55:00,
2013-05-06 14:56:00,73.1,45.3,29.89,SW,228,0.0,12.0,37,0.00,,---,0.00,VWS V14.00,2013-05-06 18:56:00,
2013-05-06 14:57:00,73.1,44.6,29.89,SSE,167,1.0,12.0,36,0.00,,---,0.00,VWS V14.00,2013-05-06 18:57:00,
2013-05-06 14:58:00,73.1,43.8,29.89,SSW,195,0.0,12.0,35,0.00,,---,0.00,VWS V14.00,2013-05-06 18:58:00,
2013-05-06 14:59:00,73.2,43.9,29.88,SSE,149,1.0,12.0,35,0.00,,---,0.00,VWS V14.00,2013-05-06 18:59:00,
2013-05-06 15:00:00,73.3,45.5,29.88,East,95,5.0,12.0,37,0.00,,---,0.00,VWS V14.00,2013-05-06 19:00:00,
2013-05-06 15:01:00,73.4,45.6,29.88,SE,146,0.0,6.0,37,0.00,,---,0.00,VWS V14.00,2013-05-06 19:01:00,
2013-05-06 15:02:00,73.5,45.7,29.88,SE,146,0.0,6.0,37,0.00,,---,0.00,VWS V14.00,2013-05-06 19:02:00,
2013-05-06 15:03:00,73.7,45.8,29.88,South,188,4.0,6.0,37,0.00,,---,0.00,VWS V14.00,2013-05-06 19:03:00,
2013-05-06 15:04:00,73.7,45.1,29.88,SE,137,8.0,8.0,36,0.00,,---,0.00,VWS V14.00,2013-05-06 19:04:00,
2013-05-06 15:05:00,73.8,45.9,29.88,SE,127,0.0,8.0,37,0.00,,---,0.00,VWS V14.00,2013-05-06 19:05:00,
2013-05-06 15:06:00,73.8,45.2,29.88,ESE,102,5.0,8.0,36,0.00,,---,0.00,VWS V14.00,2013-05-06 19:06:00,
2013-05-06 15:07:00,73.8,44.5,29.88,East,99,1.0,8.0,35,0.00,,---,0.00,VWS V14.00,2013-05-06 19:07:00,
2013-05-06 15:08:00,73.7,44.4,29.88,South,184,7.0,13.0,35,0.00,,---,0.00,VWS V14.00,2013-05-06 19:08:00,
2013-05-06 15:09:00,73.5,44.9,29.88,SE,125,9.0,13.0,36,0.00,,---,0.00,VWS V14.00,2013-05-06 19:09:00,
2013-05-06 15:10:00,73.5,44.2,29.88,WSW,255,2.0,13.0,35,0.00,,---,0.00,VWS V14.00,2013-05-06 19:10:00,
2013-05-06 15:11:00,73.4,44.8,29.88,East,84,4.0,13.0,36,0.00,,---,0.00,VWS V14.00,2013-05-06 19:11:00,
2013-05-06 15:12:00,73.3,45.5,29.88,ESE,113,11.0,13.0,37,0.00,,---,0.00,VWS V14.00,2013-05-06 19:12:00,
2013-05-06 15:13:00,73.2,45.4,29.88,South,175,1.0,13.0,37,0.00,,---,0.00,VWS V14.00,2013-05-06 19:13:00,
2013-05-06 15:14:00,73.1,44.6,29.88,SSW,210,3.0,13.0,36,0.00,,---,0.00,VWS V14.00,2013-05-06 19:14:00,
2013-05-06 15:15:00,72.9,45.1,29.88,ESE,105,11.0,13.0,37,0.00,,---,0.00,VWS V14.00,2013-05-06 19:15:00,
2013-05-06 15:16:00,72.8,45.0,29.88,South,179,6.0,11.0,37,0.00,,---,0.00,VWS V14.00,2013-05-06 19:16:00,
2013-05-06 15:17:00,72.7,45.7,29.87,SSE,150,10.0,12.0,38,0.00,,---,0.00,VWS V14.00,2013-05-06 19:17:00,
2013-05-06 15:18:00,72.7,45.7,29.87,SSE,159,0.0,12.0,38,0.00,,---,0.00,VWS V14.00,2013-05-06 19:18:00,
2013-05-06 15:19:00,72.7,46.3,29.87,SSE,148,1.0,12.0,39,0.00,,---,0.00,VWS V14.00,2013-05-06 19:19:00,
2013-05-06 15:20:00,72.8,45.0,29.87,South,173,0.0,12.0,37,0.00,,---,0.00,VWS V14.00,2013-05-06 19:20:00,
2013-05-06 15:21:00,72.9,46.5,29.87,SW,215,5.0,12.0,39,0.00,,---,0.00,VWS V14.00,2013-05-06 19:21:00,
2013-05-06 15:22:00,72.9,45.8,29.87,South,175,12.0,12.0,38,0.00,,---,0.00,VWS V14.00,2013-05-06 19:22:00,
2013-05-06 15:23:00,73.0,45.2,29.87,SSW,196,2.0,12.0,37,0.00,,---,0.00,VWS V14.00,2013-05-06 19:23:00,
2013-05-06 15:24:00,73.1,46.7,29.87,SW,217,0.0,12.0,39,0.00,,---,0.00,VWS V14.00,2013-05-06 19:24:00,
2013-05-06 15:25:00,73.2,46.8,29.87,SSW,213,0.0,12.0,39,0.00,,---,0.00,VWS V14.00,2013-05-06 19:25:00,
2013-05-06 15:26:00,73.2,45.4,29.87,SW,235,0.0,12.0,37,0.00,,---,0.00,VWS V14.00,2013-05-06 19:26:00,
2013-05-06 15:27:00,73.3,45.5,29.87,South,185,6.0,12.0,37,0.00,,---,0.00,VWS V14.00,2013-05-06 19:27:00,
2013-05-06 15:28:00,73.3,46.2,29.87,SSW,202,4.0,12.0,38,0.00,,---,0.00,VWS V14.00,2013-05-06 19:28:00,
2013-05-06 15:29:00,73.2,45.4,29.87,South,190,3.0,12.0,37,0.00,,---,0.00,VWS V14.00,2013-05-06 19:29:00,
2013-05-06 15:30:00,73.1,46.7,29.87,South,182,4.0,12.0,39,0.00,,---,0.00,VWS V14.00,2013-05-06 19:30:00,
2013-05-06 15:31:00,73.1,45.3,29.87,SSE,167,0.0,5.0,37,0.00,,---,0.00,VWS V14.00,2013-05-06 19:31:00,
2013-05-06 15:32:00,73.1,46.7,29.87,SSE,150,2.0,6.0,39,0.00,,---,0.00,VWS V14.00,2013-05-06 19:32:00,
2013-05-06 15:33:00,73.2,46.1,29.87,South,182,1.0,6.0,38,0.00,,---,0.00,VWS V14.00,2013-05-06 19:33:00,
2013-05-06 15:34:00,73.2,46.1,29.87,WSW,258,1.0,6.0,38,0.00,,---,0.00,VWS V14.00,2013-05-06 19:34:00,
2013-05-06 15:35:00,73.3,47.5,29.87,South,190,3.0,8.0,40,0.00,,---,0.00,VWS V14.00,2013-05-06 19:35:00,
2013-05-06 15:36:00,73.4,47.0,29.87,South,176,5.0,8.0,39,0.00,,---,0.00,VWS V14.00,2013-05-06 19:36:00,
2013-05-06 15:37:00,73.5,47.0,29.86,SSE,166,15.0,15.0,39,0.00,,---,0.00,VWS V14.00,2013-05-06 19:37:00,
2013-05-06 15:38:00,73.5,47.0,29.87,SE,128,6.0,15.0,39,0.00,,---,0.00,VWS V14.00,2013-05-06 19:38:00,
2013-05-06 15:39:00,73.4,45.6,29.87,South,191,9.0,15.0,37,0.00,,---,0.00,VWS V14.00,2013-05-06 19:39:00,
2013-05-06 15:40:00,73.3,45.5,29.87,South,174,4.0,15.0,37,0.00,,---,0.00,VWS V14.00,2013-05-06 19:40:00,
2013-05-06 15:41:00,73.0,45.9,29.87,SSE,152,2.0,15.0,38,0.00,,---,0.00,VWS V14.00,2013-05-06 19:41:00,
2013-05-06 15:42:00,72.9,45.8,29.87,SE,132,4.0,15.0,38,0.00,,---,0.00,VWS V14.00,2013-05-06 19:42:00,
2013-05-06 15:43:00,72.8,45.7,29.87,South,170,8.0,15.0,38,0.00,,---,0.00,VWS V14.00,2013-05-06 19:43:00,
2013-05-06 15:44:00,72.6,45.6,29.87,SSE,167,6.0,15.0,38,0.00,,---,0.00,VWS V14.00,2013-05-06 19:44:00,
2013-05-06 15:45:00,72.4,46.1,29.87,South,173,0.0,15.0,39,0.00,,---,0.00,VWS V14.00,2013-05-06 19:45:00,
2013-05-06 15:46:00,72.3,46.0,29.87,South,182,2.0,5.0,39,0.00,,---,0.00,VWS V14.00,2013-05-06 19:46:00,
2013-05-06 15:47:00,72.2,45.9,29.87,South,188,1.0,5.0,39,0.00,,---,0.00,VWS V14.00,2013-05-06 19:47:00,
2013-05-06 15:48:00,72.2,46.6,29.87,SE,125,2.0,5.0,40,0.00,,---,0.00,VWS V14.00,2013-05-06 19:48:00,
2013-05-06 15:49:00,72.2,46.6,29.87,ESE,117,4.0,8.0,40,0.00,,---,0.00,VWS V14.00,2013-05-06 19:49:00,
2013-05-06 15:50:00,72.2,45.9,29.86,SSE,150,0.0,8.0,39,0.00,,---,0.00,VWS V14.00,2013-05-06 19:50:00,
2013-05-06 15:51:00,72.1,45.8,29.86,South,177,10.0,10.0,39,0.00,,---,0.00,VWS V14.00,2013-05-06 19:51:00,
2013-05-06 15:52:00,72.1,45.8,29.86,South,169,9.0,10.0,39,0.00,,---,0.00,VWS V14.00,2013-05-06 19:52:00,
2013-05-06 15:53:00,72.2,45.9,29.86,South,187,3.0,10.0,39,0.00,,---,0.00,VWS V14.00,2013-05-06 19:53:00,
2013-05-06 15:54:00,72.2,47.2,29.86,South,184,4.0,10.0,41,0.00,,---,0.00,VWS V14.00,2013-05-06 19:54:00,
2013-05-06 15:55:00,72.2,47.2,29.86,South,173,0.0,10.0,41,0.00,,---,0.00,VWS V14.00,2013-05-06 19:55:00,
2013-05-06 15:56:00,72.2,45.9,29.86,SE,130,2.0,10.0,39,0.00,,---,0.00,VWS V14.00,2013-05-06 19:56:00,
2013-05-06 15:57:00,72.3,46.0,29.86,South,178,6.0,10.0,39,0.00,,---,0.00,VWS V14.00,2013-05-06 19:57:00,
2013-05-06 15:58:00,72.3,45.3,29.86,SSE,155,2.0,10.0,38,0.00,,---,0.00,VWS V14.00,2013-05-06 19:58:00,
2013-05-06 15:59:00,72.4,44.7,29.86,SSW,192,6.0,10.0,37,0.00,,---,0.00,VWS V14.00,2013-05-06 19:59:00,
2013-05-06 16:00:00,72.3,44.6,29.86,South,186,5.0,10.0,37,0.00,,---,0.00,VWS V14.00,2013-05-06 20:00:00,
2013-05-06 16:01:00,72.3,45.3,29.86,South,182,3.0,7.0,38,0.00,,---,0.00,VWS V14.00,2013-05-06 20:01:00,
2013-05-06 16:02:00,72.2,45.2,29.86,South,169,2.0,8.0,38,0.00,,---,0.00,VWS V14.00,2013-05-06 20:02:00,
2013-05-06 16:03:00,72.1,45.1,29.86,SSW,197,1.0,8.0,38,0.00,,---,0.00,VWS V14.00,2013-05-06 20:03:00,
2013-05-06 16:04:00,72.1,45.1,29.86,South,182,0.0,8.0,38,0.00,,---,0.00,VWS V14.00,2013-05-06 20:04:00,
2013-05-06 16:05:00,72.0,45.0,29.86,South,185,4.0,8.0,38,0.00,,---,0.00,VWS V14.00,2013-05-06 20:05:00,
2013-05-06 16:06:00,71.9,46.3,29.86,South,183,2.0,8.0,40,0.00,,---,0.00,VWS V14.00,2013-05-06 20:06:00,
2013-05-06 16:07:00,71.9,45.6,29.86,SSW,193,3.0,8.0,39,0.00,,---,0.00,VWS V14.00,2013-05-06 20:07:00,
2013-05-06 16:08:00,71.9,45.6,29.86,SSE,165,6.0,8.0,39,0.00,,---,0.00,VWS V14.00,2013-05-06 20:08:00,
2013-05-06 16:09:00,72.0,47.0,29.86,SSW,195,4.0,11.0,41,0.00,,---,0.00,VWS V14.00,2013-05-06 20:09:00,
2013-05-06 16:10:00,72.1,45.8,29.86,SSW,196,4.0,11.0,39,0.00,,---,0.00,VWS V14.00,2013-05-06 20:10:00,
2013-05-06 16:11:00,72.1,46.5,29.86,East,101,2.0,11.0,40,0.00,,---,0.00,VWS V14.00,2013-05-06 20:11:00,
2013-05-06 16:12:00,72.2,45.9,29.86,South,178,1.0,11.0,39,0.00,,---,0.00,VWS V14.00,2013-05-06 20:12:00,
2013-05-06 16:13:00,72.3,46.7,29.86,South,178,7.0,13.0,40,0.00,,---,0.00,VWS V14.00,2013-05-06 20:13:00,
2013-05-06 16:14:00,72.3,46.0,29.86,SSW,202,2.0,13.0,39,0.00,,---,0.00,VWS V14.00,2013-05-06 20:14:00,
2013-05-06 16:15:00,72.4,46.7,29.86,SSE,167,8.0,13.0,40,0.00,,---,0.00,VWS V14.00,2013-05-06 20:15:00,
2013-05-06 16:16:00,72.4,46.1,29.86,South,179,9.0,9.0,39,0.00,,---,0.00,VWS V14.00,2013-05-06 20:16:00,
2013-05-06 16:17:00,72.4,46.1,29.86,SSW,193,1.0,9.0,39,0.00,,---,0.00,VWS V14.00,2013-05-06 20:17:00,
2013-05-06 16:18:00,72.3,46.7,29.86,South,175,6.0,9.0,40,0.00,,---,0.00,VWS V14.00,2013-05-06 20:18:00,
2013-05-06 16:19:00,72.2,46.6,29.86,South,169,8.0,11.0,40,0.00,,---,0.00,VWS V14.00,2013-05-06 20:19:00,
2013-05-06 16:20:00,72.2,46.6,29.86,SE,128,4.0,11.0,40,0.00,,---,0.00,VWS V14.00,2013-05-06 20:20:00,
2013-05-06 16:21:00,72.2,47.2,29.86,South,169,0.0,11.0,41,0.00,,---,0.00,VWS V14.00,2013-05-06 20:21:00,
2013-05-06 16:22:00,72.1,47.8,29.86,SW,214,7.0,11.0,42,0.00,,---,0.00,VWS V14.00,2013-05-06 20:22:00,
2013-05-06 16:23:00,72.1,47.1,29.87,SW,216,8.0,12.0,41,0.00,,---,0.00,VWS V14.00,2013-05-06 20:23:00,
2013-05-06 16:24:00,71.9,47.0,29.86,SSW,193,5.0,12.0,41,0.00,,---,0.00,VWS V14.00,2013-05-06 20:24:00,
2013-05-06 16:25:00,71.9,47.0,29.86,SSE,156,7.0,14.0,41,0.00,,---,0.00,VWS V14.00,2013-05-06 20:25:00,
2013-05-06 16:26:00,71.7,47.4,29.87,SE,134,2.0,14.0,42,0.00,,---,0.00,VWS V14.00,2013-05-06 20:26:00,
2013-05-06 16:27:00,71.6,47.3,29.87,South,184,5.0,14.0,42,0.00,,---,0.00,VWS V14.00,2013-05-06 20:27:00,
2013-05-06 16:28:00,71.5,47.8,29.86,SSE,153,0.0,14.0,43,0.00,,---,0.00,VWS V14.00,2013-05-06 20:28:00,
2013-05-06 16:29:00,71.4,47.1,29.87,SSW,194,2.0,14.0,42,0.00,,---,0.00,VWS V14.00,2013-05-06 20:29:00,
2013-05-06 16:30:00,71.3,47.7,29.87,South,186,0.0,14.0,43,0.00,,---,0.00,VWS V14.00,2013-05-06 20:30:00,
2013-05-06 16:31:00,71.2,47.6,29.87,SW,215,7.0,7.0,43,0.00,,---,0.00,VWS V14.00,2013-05-06 20:31:00,
2013-05-06 16:32:00,71.1,46.9,29.87,South,175,6.0,9.0,42,0.00,,---,0.00,VWS V14.00,2013-05-06 20:32:00,
2013-05-06 16:33:00,71.1,47.5,29.87,South,183,6.0,9.0,43,0.00,,---,0.00,VWS V14.00,2013-05-06 20:33:00,
2013-05-06 16:34:00,71.2,47.6,29.87,SE,141,6.0,9.0,43,0.00,,---,0.00,VWS V14.00,2013-05-06 20:34:00,
2013-05-06 16:35:00,71.2,47.6,29.87,SSE,152,0.0,9.0,43,0.00,,---,0.00,VWS V14.00,2013-05-06 20:35:00,
2013-05-06 16:36:00,71.3,47.7,29.87,South,173,5.0,9.0,43,0.00,,---,0.00,VWS V14.00,2013-05-06 20:36:00,
2013-05-06 16:37:00,71.5,47.2,29.87,South,184,3.0,9.0,42,0.00,,---,0.00,VWS V14.00,2013-05-06 20:37:00,
2013-05-06 16:38:00,71.6,47.3,29.87,South,182,1.0,9.0,42,0.00,,---,0.00,VWS V14.00,2013-05-06 20:38:00,
2013-05-06 16:39:00,71.7,48.0,29.86,South,190,1.0,9.0,43,0.00,,---,0.00,VWS V14.00,2013-05-06 20:39:00,
2013-05-06 16:40:00,71.8,48.1,29.86,SSW,192,1.0,9.0,43,0.00,,---,0.00,VWS V14.00,2013-05-06 20:40:00,
2013-05-06 16:41:00,72.0,47.7,29.86,SSW,198,7.0,11.0,42,0.00,,---,0.00,VWS V14.00,2013-05-06 20:41:00,
2013-05-06 16:42:00,72.1,47.8,29.86,South,191,5.0,11.0,42,0.00,,---,0.00,VWS V14.00,2013-05-06 20:42:00,
2013-05-06 16:43:00,72.2,47.9,29.86,SSW,199,7.0,11.0,42,0.00,,---,0.00,VWS V14.00,2013-05-06 20:43:00,
2013-05-06 16:44:00,72.2,47.9,29.86,South,175,2.0,11.0,42,0.00,,---,0.00,VWS V14.00,2013-05-06 20:44:00,
2013-05-06 16:45:00,72.2,47.9,29.86,SSW,209,1.0,11.0,42,0.00,,---,0.00,VWS V14.00,2013-05-06 20:45:00,
2013-05-06 16:46:00,72.3,48.6,29.86,SSW,198,6.0,8.0,43,0.00,,---,0.00,VWS V14.00,2013-05-06 20:46:00,
2013-05-06 16:47:00,72.5,48.8,29.86,South,186,4.0,8.0,43,0.00,,---,0.00,VWS V14.00,2013-05-06 20:47:00,
2013-05-06 16:48:00,72.6,49.5,29.86,SE,134,4.0,8.0,44,0.00,,---,0.00,VWS V14.00,2013-05-06 20:48:00,
2013-05-06 16:49:00,72.7,48.9,29.86,SW,219,5.0,13.0,43,0.00,,---,0.00,VWS V14.00,2013-05-06 20:49:00,
2013-05-06 16:50:00,72.7,49.5,29.86,South,191,10.0,13.0,44,0.00,,---,0.00,VWS V14.00,2013-05-06 20:50:00,
2013-05-06 16:51:00,72.7,48.9,29.86,SSE,161,4.0,13.0,43,0.00,,---,0.00,VWS V14.00,2013-05-06 20:51:00,
2013-05-06 16:52:00,72.8,49.0,29.86,SSW,192,4.0,13.0,43,0.00,,---,0.00,VWS V14.00,2013-05-06 20:52:00,
2013-05-06 16:53:00,72.8,48.4,29.87,South,190,2.0,13.0,42,0.00,,---,0.00,VWS V14.00,2013-05-06 20:53:00,
2013-05-06 16:54:00,72.7,48.3,29.86,SSE,157,4.0,13.0,42,0.00,,---,0.00,VWS V14.00,2013-05-06 20:54:00,
2013-05-06 16:55:00,72.7,48.3,29.87,SSW,202,6.0,13.0,42,0.00,,---,0.00,VWS V14.00,2013-05-06 20:55:00,
2013-05-06 16:56:00,72.7,48.3,29.87,SE,144,0.0,13.0,42,0.00,,---,0.00,VWS V14.00,2013-05-06 20:56:00,
2013-05-06 16:57:00,72.6,48.8,29.87,South,186,5.0,13.0,43,0.00,,---,0.00,VWS V14.00,2013-05-06 20:57:00,
2013-05-06 16:58:00,72.6,48.2,29.87,South,186,4.0,13.0,42,0.00,,---,0.00,VWS V14.00,2013-05-06 20:58:00,
2013-05-06 16:59:00,72.5,48.1,29.87,SSW,200,3.0,13.0,42,0.00,,---,0.00,VWS V14.00,2013-05-06 20:59:00,
2013-05-06 17:00:00,72.5,48.1,29.86,SSW,198,3.0,13.0,42,0.00,,---,0.00,VWS V14.00,2013-05-06 21:00:00,
2013-05-06 17:01:00,72.4,48.0,29.86,SE,126,5.0,7.0,42,0.00,,---,0.00,VWS V14.00,2013-05-06 21:01:00,
2013-05-06 17:02:00,72.4,48.7,29.86,SSE,147,1.0,7.0,43,0.00,,---,0.00,VWS V14.00,2013-05-06 21:02:00,
2013-05-06 17:03:00,72.4,48.7,29.86,SSW,196,10.0,11.0,43,0.00,,---,0.00,VWS V14.00,2013-05-06 21:03:00,
2013-05-06 17:04:00,72.4,48.0,29.86,SSE,153,6.0,11.0,42,0.00,,---,0.00,VWS V14.00,2013-05-06 21:04:00,
2013-05-06 17:05:00,72.4,48.7,29.86,SE,130,2.0,11.0,43,0.00,,---,0.00,VWS V14.00,2013-05-06 21:05:00,
2013-05-06 17:06:00,72.3,48.6,29.86,SE,142,2.0,11.0,43,0.00,,---,0.00,VWS V14.00,2013-05-06 21:06:00,
2013-05-06 17:07:00,72.4,49.3,29.86,SE,134,2.0,11.0,44,0.00,,---,0.00,VWS V14.00,2013-05-06 21:07:00,
2013-05-06 17:08:00,72.4,49.3,29.86,SSW,194,6.0,11.0,44,0.00,,---,0.00,VWS V14.00,2013-05-06 21:08:00,
2013-05-06 17:09:00,72.4,49.3,29.86,SE,130,0.0,11.0,44,0.00,,---,0.00,VWS V14.00,2013-05-06 21:09:00,
2013-05-06 17:10:00,72.4,48.7,29.87,SSW,198,4.0,11.0,43,0.00,,---,0.00,VWS V14.00,2013-05-06 21:10:00,
2013-05-06 17:11:00,72.4,48.0,29.87,ESE,121,4.0,11.0,42,0.00,,---,0.00,VWS V14.00,2013-05-06 21:11:00,
2013-05-06 17:12:00,72.4,48.0,29.86,South,172,0.0,11.0,42,0.00,,---,0.00,VWS V14.00,2013-05-06 21:12:00,
2013-05-06 17:13:00,72.4,48.7,29.87,South,171,2.0,11.0,43,0.00,,---,0.00,VWS V14.00,2013-05-06 21:13:00,
2013-05-06 17:14:00,72.4,48.7,29.87,SSW,206,1.0,11.0,43,0.00,,---,0.00,VWS V14.00,2013-05-06 21:14:00,
2013-05-06 17:15:00,72.4,48.7,29.87,South,182,4.0,11.0,43,0.00,,---,0.00,VWS V14.00,2013-05-06 21:15:00,
2013-05-06 17:16:00,72.4,48.7,29.87,SSE,161,9.0,9.0,43,0.00,,---,0.00,VWS V14.00,2013-05-06 21:16:00,
2013-05-06 17:17:00,72.3,48.6,29.87,South,184,10.0,11.0,43,0.00,,---,0.00,VWS V14.00,2013-05-06 21:17:00,
2013-05-06 17:18:00,72.2,48.5,29.87,SSW,198,9.0,11.0,43,0.00,,---,0.00,VWS V14.00,2013-05-06 21:18:00,
2013-05-06 17:19:00,72.1,48.4,29.87,South,172,10.0,11.0,43,0.00,,---,0.00,VWS V14.00,2013-05-06 21:19:00,
2013-05-06 17:20:00,72.1,47.8,29.87,SSW,192,6.0,11.0,42,0.00,,---,0.00,VWS V14.00,2013-05-06 21:20:00,
2013-05-06 17:21:00,72.0,47.7,29.87,SSE,148,6.0,11.0,42,0.00,,---,0.00,VWS V14.00,2013-05-06 21:21:00,
2013-05-06 17:22:00,72.0,48.3,29.87,SSE,153,11.0,14.0,43,0.00,,---,0.00,VWS V14.00,2013-05-06 21:22:00,
2013-05-06 17:23:00,72.0,48.3,29.87,South,190,3.0,14.0,43,0.00,,---,0.00,VWS V14.00,2013-05-06 21:23:00,
2013-05-06 17:24:00,71.9,47.6,29.87,SSW,198,4.0,14.0,42,0.00,,---,0.00,VWS V14.00,2013-05-06 21:24:00,
2013-05-06 17:25:00,71.9,47.6,29.87,South,176,1.0,14.0,42,0.00,,---,0.00,VWS V14.00,2013-05-06 21:25:00,
2013-05-06 17:26:00,71.9,48.2,29.87,ESE,120,5.0,14.0,43,0.00,,---,0.00,VWS V14.00,2013-05-06 21:26:00,
2013-05-06 17:27:00,71.9,48.2,29.87,SE,125,5.0,14.0,43,0.00,,---,0.00,VWS V14.00,2013-05-06 21:27:00,
2013-05-06 17:28:00,71.9,47.6,29.87,South,182,4.0,14.0,42,0.00,,---,0.00,VWS V14.00,2013-05-06 21:28:00,
2013-05-06 17:29:00,71.9,47.6,29.87,SSE,151,6.0,14.0,42,0.00,,---,0.00,VWS V14.00,2013-05-06 21:29:00,
2013-05-06 17:30:00,71.9,47.0,29.87,South,181,2.0,14.0,41,0.00,,---,0.00,VWS V14.00,2013-05-06 21:30:00,
2013-05-06 17:31:00,72.0,47.0,29.87,South,191,7.0,7.0,41,0.00,,---,0.00,VWS V14.00,2013-05-06 21:31:00,
2013-05-06 17:32:00,72.0,47.7,29.87,SE,142,0.0,8.0,42,0.00,,---,0.00,VWS V14.00,2013-05-06 21:32:00,
2013-05-06 17:33:00,72.0,48.3,29.87,South,183,7.0,9.0,43,0.00,,---,0.00,VWS V14.00,2013-05-06 21:33:00,
2013-05-06 17:34:00,72.0,47.0,29.87,SE,142,2.0,10.0,41,0.00,,---,0.00,VWS V14.00,2013-05-06 21:34:00,
2013-05-06 17:35:00,72.0,47.7,29.87,South,184,6.0,10.0,42,0.00,,---,0.00,VWS V14.00,2013-05-06 21:35:00,
2013-05-06 17:36:00,71.9,47.6,29.87,SSW,203,6.0,10.0,42,0.00,,---,0.00,VWS V14.00,2013-05-06 21:36:00,
2013-05-06 17:37:00,71.9,47.6,29.87,South,180,3.0,10.0,42,0.00,,---,0.00,VWS V14.00,2013-05-06 21:37:00,
2013-05-06 17:38:00,71.9,48.2,29.87,SSW,194,7.0,10.0,43,0.00,,---,0.00,VWS V14.00,2013-05-06 21:38:00,
2013-05-06 17:39:00,71.9,48.2,29.87,South,173,2.0,11.0,43,0.00,,---,0.00,VWS V14.00,2013-05-06 21:39:00,
2013-05-06 17:40:00,71.9,48.2,29.87,SSW,193,3.0,11.0,43,0.00,,---,0.00,VWS V14.00,2013-05-06 21:40:00,
2013-05-06 17:41:00,71.9,48.8,29.87,South,189,1.0,11.0,44,0.00,,---,0.00,VWS V14.00,2013-05-06 21:41:00,
2013-05-06 17:42:00,71.9,48.8,29.87,South,180,3.0,11.0,44,0.00,,---,0.00,VWS V14.00,2013-05-06 21:42:00,
2013-05-06 17:43:00,71.9,48.8,29.87,ESE,107,1.0,11.0,44,0.00,,---,0.00,VWS V14.00,2013-05-06 21:43:00,
2013-05-06 17:44:00,71.9,48.8,29.87,SSE,167,1.0,11.0,44,0.00,,---,0.00,VWS V14.00,2013-05-06 21:44:00,
2013-05-06 17:45:00,71.8,48.7,29.87,SSE,159,6.0,11.0,44,0.00,,---,0.00,VWS V14.00,2013-05-06 21:45:00,
2013-05-06 17:46:00,71.7,48.7,29.87,SSW,194,6.0,9.0,44,0.00,,---,0.00,VWS V14.00,2013-05-06 21:46:00,
2013-05-06 17:47:00,71.5,48.5,29.87,South,180,4.0,9.0,44,0.00,,---,0.00,VWS V14.00,2013-05-06 21:47:00,
2013-05-06 17:48:00,71.4,48.4,29.87,SSE,161,4.0,9.0,44,0.00,,---,0.00,VWS V14.00,2013-05-06 21:48:00,
2013-05-06 17:49:00,71.3,48.9,29.87,South,180,3.0,9.0,45,0.00,,---,0.00,VWS V14.00,2013-05-06 21:49:00,
2013-05-06 17:50:00,71.2,48.8,29.87,South,175,5.0,9.0,45,0.00,,---,0.00,VWS V14.00,2013-05-06 21:50:00,
2013-05-06 17:51:00,71.1,48.7,29.87,South,182,3.0,9.0,45,0.00,,---,0.00,VWS V14.00,2013-05-06 21:51:00,
2013-05-06 17:52:00,71.0,48.6,29.87,SSW,202,6.0,9.0,45,0.00,,---,0.00,VWS V14.00,2013-05-06 21:52:00,
2013-05-06 17:53:00,71.0,48.6,29.87,South,188,4.0,9.0,45,0.00,,---,0.00,VWS V14.00,2013-05-06 21:53:00,
2013-05-06 17:54:00,70.9,48.5,29.87,South,169,6.0,10.0,45,0.00,,---,0.00,VWS V14.00,2013-05-06 21:54:00,
2013-05-06 17:55:00,70.9,48.5,29.87,SSW,194,5.0,12.0,45,0.00,,---,0.00,VWS V14.00,2013-05-06 21:55:00,
2013-05-06 17:56:00,70.9,48.5,29.87,SSE,150,8.0,15.0,45,0.00,,---,0.00,VWS V14.00,2013-05-06 21:56:00,
2013-05-06 17:57:00,70.9,48.5,29.87,SSW,209,4.0,15.0,45,0.00,,---,0.00,VWS V14.00,2013-05-06 21:57:00,
2013-05-06 17:58:00,70.8,48.4,29.87,SSW,197,5.0,15.0,45,0.00,,---,0.00,VWS V14.00,2013-05-06 21:58:00,
2013-05-06 17:59:00,70.8,48.4,29.87,SSE,150,2.0,15.0,45,0.00,,---,0.00,VWS V14.00,2013-05-06 21:59:00,
2013-05-06 18:00:00,70.8,48.4,29.87,SE,146,5.0,15.0,45,0.00,,---,0.00,VWS V14.00,2013-05-06 22:00:00,
2013-05-06 18:01:00,70.8,49.0,29.87,South,175,7.0,10.0,46,0.00,,---,0.00,VWS V14.00,2013-05-06 22:01:00,
2013-05-06 18:02:00,70.8,48.4,29.87,SSW,197,3.0,10.0,45,0.00,,---,0.00,VWS V14.00,2013-05-06 22:02:00,
2013-05-06 18:03:00,70.8,48.4,29.87,SSW,207,2.0,10.0,45,0.00,,---,0.00,VWS V14.00,2013-05-06 22:03:00,
2013-05-06 18:04:00,70.8,48.4,29.87,South,178,9.0,14.0,45,0.00,,---,0.00,VWS V14.00,2013-05-06 22:04:00,
2013-05-06 18:05:00,70.8,48.4,29.87,SSE,161,6.0,14.0,45,0.00,,---,0.00,VWS V14.00,2013-05-06 22:05:00,
2013-05-06 18:06:00,70.8,48.4,29.87,ESE,112,4.0,14.0,45,0.00,,---,0.00,VWS V14.00,2013-05-06 22:06:00,
2013-05-06 18:07:00,70.8,48.4,29.87,South,190,5.0,14.0,45,0.00,,---,0.00,VWS V14.00,2013-05-06 22:07:00,
2013-05-06 18:08:00,70.8,49.0,29.87,SSW,193,6.0,14.0,46,0.00,,---,0.00,VWS V14.00,2013-05-06 22:08:00,
2013-05-06 18:09:00,70.8,48.4,29.88,SE,146,11.0,14.0,45,0.00,,---,0.00,VWS V14.00,2013-05-06 22:09:00,
2013-05-06 18:10:00,70.7,48.3,29.88,SE,136,0.0,14.0,45,0.00,,---,0.00,VWS V14.00,2013-05-06 22:10:00,
2013-05-06 18:11:00,70.7,47.7,29.87,SSW,196,6.0,14.0,44,0.00,,---,0.00,VWS V14.00,2013-05-06 22:11:00,
2013-05-06 18:12:00,70.7,48.3,29.87,South,186,1.0,14.0,45,0.00,,---,0.00,VWS V14.00,2013-05-06 22:12:00,
2013-05-06 18:13:00,70.6,47.7,29.88,South,172,5.0,14.0,44,0.00,,---,0.00,VWS V14.00,2013-05-06 22:13:00,
2013-05-06 18:14:00,70.6,47.7,29.88,South,180,6.0,14.0,44,0.00,,---,0.00,VWS V14.00,2013-05-06 22:14:00,
2013-05-06 18:15:00,70.5,47.6,29.88,SSE,158,1.0,14.0,44,0.00,,---,0.00,VWS V14.00,2013-05-06 22:15:00,
2013-05-06 18:16:00,70.5,47.6,29.88,SSW,197,3.0,4.0,44,0.00,,---,0.00,VWS V14.00,2013-05-06 22:16:00,
2013-05-06 18:17:00,70.5,48.2,29.88,SE,146,2.0,7.0,45,0.00,,---,0.00,VWS V14.00,2013-05-06 22:17:00,
2013-05-06 18:18:00,70.5,48.2,29.88,South,173,0.0,7.0,45,0.00,,---,0.00,VWS V14.00,2013-05-06 22:18:00,
2013-05-06 18:19:00,70.5,48.2,29.87,South,190,3.0,7.0,45,0.00,,---,0.00,VWS V14.00,2013-05-06 22:19:00,
2013-05-06 18:20:00,70.6,48.8,29.87,SSE,168,1.0,7.0,46,0.00,,---,0.00,VWS V14.00,2013-05-06 22:20:00,
2013-05-06 18:21:00,70.6,48.8,29.87,South,188,0.0,7.0,46,0.00,,---,0.00,VWS V14.00,2013-05-06 22:21:00,
2013-05-06 18:22:00,70.6,48.2,29.87,SSW,194,1.0,8.0,45,0.00,,---,0.00,VWS V14.00,2013-05-06 22:22:00,
2013-05-06 18:23:00,70.5,48.2,29.87,South,188,7.0,8.0,45,0.00,,---,0.00,VWS V14.00,2013-05-06 22:23:00,
2013-05-06 18:24:00,70.5,48.2,29.87,SSE,150,4.0,11.0,45,0.00,,---,0.00,VWS V14.00,2013-05-06 22:24:00,
2013-05-06 18:25:00,70.4,48.1,29.87,South,190,5.0,11.0,45,0.00,,---,0.00,VWS V14.00,2013-05-06 22:25:00,
2013-05-06 18:26:00,70.4,48.1,29.87,South,172,6.0,11.0,45,0.00,,---,0.00,VWS V14.00,2013-05-06 22:26:00,
2013-05-06 18:27:00,70.3,48.0,29.87,South,175,2.0,11.0,45,0.00,,---,0.00,VWS V14.00,2013-05-06 22:27:00,
2013-05-06 18:28:00,70.3,48.0,29.87,SSW,196,3.0,11.0,45,0.00,,---,0.00,VWS V14.00,2013-05-06 22:28:00,
2013-05-06 18:29:00,70.3,48.6,29.87,South,180,6.0,11.0,46,0.00,,---,0.00,VWS V14.00,2013-05-06 22:29:00,
2013-05-06 18:30:00,70.3,48.6,29.87,South,188,3.0,11.0,46,0.00,,---,0.00,VWS V14.00,2013-05-06 22:30:00,
2013-05-06 18:31:00,70.2,49.0,29.87,SSW,194,4.0,9.0,47,0.00,,---,0.00,VWS V14.00,2013-05-06 22:31:00,
2013-05-06 18:32:00,70.1,48.4,29.87,SSW,200,4.0,9.0,46,0.00,,---,0.00,VWS V14.00,2013-05-06 22:32:00,
2013-05-06 18:33:00,70.1,48.4,29.87,South,191,7.0,9.0,46,0.00,,---,0.00,VWS V14.00,2013-05-06 22:33:00,
2013-05-06 18:34:00,70.0,48.9,29.87,SSW,192,9.0,9.0,47,0.00,,---,0.00,VWS V14.00,2013-05-06 22:34:00,
2013-05-06 18:35:00,69.9,48.2,29.87,SSW,200,3.0,9.0,46,0.00,,---,0.00,VWS V14.00,2013-05-06 22:35:00,
2013-05-06 18:36:00,69.9,48.2,29.87,South,185,5.0,9.0,46,0.00,,---,0.00,VWS V14.00,2013-05-06 22:36:00,
2013-05-06 18:37:00,69.9,48.2,29.87,South,183,3.0,9.0,46,0.00,,---,0.00,VWS V14.00,2013-05-06 22:37:00,
2013-05-06 18:38:00,69.9,48.8,29.87,South,185,2.0,9.0,47,0.00,,---,0.00,VWS V14.00,2013-05-06 22:38:00,
2013-05-06 18:39:00,69.9,48.2,29.87,South,186,5.0,9.0,46,0.00,,---,0.00,VWS V14.00,2013-05-06 22:39:00,
2013-05-06 18:40:00,69.9,48.2,29.87,South,188,4.0,9.0,46,0.00,,---,0.00,VWS V14.00,2013-05-06 22:40:00,
2013-05-06 18:41:00,69.9,48.8,29.87,SSW,202,5.0,9.0,47,0.00,,---,0.00,VWS V14.00,2013-05-06 22:41:00,
2013-05-06 18:42:00,69.8,48.1,29.87,South,178,4.0,9.0,46,0.00,,---,0.00,VWS V14.00,2013-05-06 22:42:00,
2013-05-06 18:43:00,69.8,48.1,29.87,South,184,2.0,9.0,46,0.00,,---,0.00,VWS V14.00,2013-05-06 22:43:00,
2013-05-06 18:44:00,69.8,48.7,29.88,South,176,7.0,9.0,47,0.00,,---,0.00,VWS V14.00,2013-05-06 22:44:00,
2013-05-06 18:45:00,69.8,48.7,29.88,SSW,193,6.0,9.0,47,0.00,,---,0.00,VWS V14.00,2013-05-06 22:45:00,
2013-05-06 18:46:00,69.7,48.0,29.88,SSW,193,8.0,9.0,46,0.00,,---,0.00,VWS V14.00,2013-05-06 22:46:00,
2013-05-06 18:47:00,69.7,48.6,29.88,South,171,6.0,9.0,47,0.00,,---,0.00,VWS V14.00,2013-05-06 22:47:00,
2013-05-06 18:48:00,69.7,48.0,29.88,South,179,5.0,11.0,46,0.00,,---,0.00,VWS V14.00,2013-05-06 22:48:00,
2013-05-06 18:49:00,69.7,48.6,29.88,SSE,163,6.0,11.0,47,0.00,,---,0.00,VWS V14.00,2013-05-06 22:49:00,
2013-05-06 18:50:00,69.7,48.6,29.88,SSW,198,3.0,11.0,47,0.00,,---,0.00,VWS V14.00,2013-05-06 22:50:00,
2013-05-06 18:51:00,69.6,48.5,29.88,SSW,201,1.0,11.0,47,0.00,,---,0.00,VWS V14.00,2013-05-06 22:51:00,
2013-05-06 18:52:00,69.6,49.1,29.88,South,169,2.0,11.0,48,0.00,,---,0.00,VWS V14.00,2013-05-06 22:52:00,
2013-05-06 18:53:00,69.5,48.4,29.88,South,171,5.0,11.0,47,0.00,,---,0.00,VWS V14.00,2013-05-06 22:53:00,
2013-05-06 18:54:00,69.5,48.4,29.88,SSE,165,1.0,11.0,47,0.00,,---,0.00,VWS V14.00,2013-05-06 22:54:00,
2013-05-06 18:55:00,69.5,49.0,29.88,SSW,194,2.0,11.0,48,0.00,,---,0.00,VWS V14.00,2013-05-06 22:55:00,
2013-05-06 18:56:00,69.4,48.9,29.88,SSE,154,4.0,11.0,48,0.00,,---,0.00,VWS V14.00,2013-05-06 22:56:00,
2013-05-06 18:57:00,69.4,48.9,29.88,South,190,4.0,11.0,48,0.00,,---,0.00,VWS V14.00,2013-05-06 22:57:00,
2013-05-06 18:58:00,69.4,48.9,29.88,South,189,2.0,11.0,48,0.00,,---,0.00,VWS V14.00,2013-05-06 22:58:00,
2013-05-06 18:59:00,69.3,49.3,29.88,South,190,6.0,11.0,49,0.00,,---,0.00,VWS V14.00,2013-05-06 22:59:00,
2013-05-06 19:00:00,69.3,48.8,29.88,SSW,192,4.0,11.0,48,0.00,,---,0.00,VWS V14.00,2013-05-06 23:00:00,
2013-05-06 19:01:00,69.2,49.2,29.88,South,174,8.0,8.0,49,0.00,,---,0.00,VWS V14.00,2013-05-06 23:01:00,
2013-05-06 19:02:00,69.2,49.2,29.88,South,175,5.0,8.0,49,0.00,,---,0.00,VWS V14.00,2013-05-06 23:02:00,
2013-05-06 19:03:00,69.2,49.2,29.88,SSW,193,2.0,8.0,49,0.00,,---,0.00,VWS V14.00,2013-05-06 23:03:00,
2013-05-06 19:04:00,69.2,49.2,29.88,South,186,2.0,8.0,49,0.00,,---,0.00,VWS V14.00,2013-05-06 23:04:00,
2013-05-06 19:05:00,69.1,49.2,29.88,South,182,0.0,8.0,49,0.00,,---,0.00,VWS V14.00,2013-05-06 23:05:00,
2013-05-06 19:06:00,69.2,49.8,29.88,South,190,4.0,8.0,50,0.00,,---,0.00,VWS V14.00,2013-05-06 23:06:00,
2013-05-06 19:07:00,69.2,49.8,29.88,South,176,4.0,8.0,50,0.00,,---,0.00,VWS V14.00,2013-05-06 23:07:00,
2013-05-06 19:08:00,69.1,49.2,29.88,South,184,5.0,8.0,49,0.00,,---,0.00,VWS V14.00,2013-05-06 23:08:00,
2013-05-06 19:09:00,69.1,49.7,29.89,South,184,7.0,8.0,50,0.00,,---,0.00,VWS V14.00,2013-05-06 23:09:00,
2013-05-06 19:10:00,69.1,49.2,29.88,South,190,7.0,8.0,49,0.00,,---,0.00,VWS V14.00,2013-05-06 23:10:00,
2013-05-06 19:11:00,69.0,49.6,29.89,SSW,192,8.0,10.0,50,0.00,,---,0.00,VWS V14.00,2013-05-06 23:11:00,
2013-05-06 19:12:00,69.0,49.1,29.89,SSE,147,1.0,10.0,49,0.00,,---,0.00,VWS V14.00,2013-05-06 23:12:00,
2013-05-06 19:13:00,68.9,49.5,29.89,SSE,167,5.0,10.0,50,0.00,,---,0.00,VWS V14.00,2013-05-06 23:13:00,
2013-05-06 19:14:00,68.8,49.4,29.89,SE,133,6.0,10.0,50,0.00,,---,0.00,VWS V14.00,2013-05-06 23:14:00,
2013-05-06 19:15:00,68.8,50.0,29.89,SE,142,1.0,10.0,51,0.00,,---,0.00,VWS V14.00,2013-05-06 23:15:00,
2013-05-06 19:16:00,68.7,49.3,29.89,SSE,163,1.0,5.0,50,0.00,,---,0.00,VWS V14.00,2013-05-06 23:16:00,
2013-05-06 19:17:00,68.6,49.8,29.89,South,169,7.0,7.0,51,0.00,,---,0.00,VWS V14.00,2013-05-06 23:17:00,
2013-05-06 19:18:00,68.5,49.7,29.89,SSE,166,5.0,13.0,51,0.00,,---,0.00,VWS V14.00,2013-05-06 23:18:00,
2013-05-06 19:19:00,68.4,49.6,29.89,South,185,1.0,13.0,51,0.00,,---,0.00,VWS V14.00,2013-05-06 23:19:00,
2013-05-06 19:20:00,68.3,49.5,29.89,SSW,192,1.0,13.0,51,0.00,,---,0.00,VWS V14.00,2013-05-06 23:20:00,
2013-05-06 19:21:00,68.2,49.9,29.89,South,184,6.0,13.0,52,0.00,,---,0.00,VWS V14.00,2013-05-06 23:21:00,
2013-05-06 19:22:00,68.1,49.8,29.89,South,184,6.0,13.0,52,0.00,,---,0.00,VWS V14.00,2013-05-06 23:22:00,
2013-05-06 19:23:00,68.1,49.8,29.89,SSW,192,4.0,13.0,52,0.00,,---,0.00,VWS V14.00,2013-05-06 23:23:00,
2013-05-06 19:24:00,68.1,49.8,29.89,SSE,167,4.0,13.0,52,0.00,,---,0.00,VWS V14.00,2013-05-06 23:24:00,
2013-05-06 19:25:00,68.0,49.7,29.89,SE,144,2.0,13.0,52,0.00,,---,0.00,VWS V14.00,2013-05-06 23:25:00,
2013-05-06 19:26:00,67.9,50.2,29.89,ESE,113,7.0,13.0,53,0.00,,---,0.00,VWS V14.00,2013-05-06 23:26:00,
2013-05-06 19:27:00,67.8,49.5,29.89,SE,142,2.0,13.0,52,0.00,,---,0.00,VWS V14.00,2013-05-06 23:27:00,
2013-05-06 19:28:00,67.7,49.5,29.89,East,82,7.0,15.0,52,0.00,,---,0.00,VWS V14.00,2013-05-06 23:28:00,
2013-05-06 19:29:00,67.6,49.4,29.89,South,170,4.0,15.0,52,0.00,,---,0.00,VWS V14.00,2013-05-06 23:29:00,
2013-05-06 19:30:00,67.6,49.9,29.89,South,171,1.0,15.0,53,0.00,,---,0.00,VWS V14.00,2013-05-06 23:30:00,
2013-05-06 19:31:00,67.5,49.8,29.89,South,180,1.0,4.0,53,0.00,,---,0.00,VWS V14.00,2013-05-06 23:31:00,
2013-05-06 19:32:00,67.4,49.7,29.89,South,189,1.0,4.0,53,0.00,,---,0.00,VWS V14.00,2013-05-06 23:32:00,
2013-05-06 19:33:00,67.3,49.6,29.89,SSW,196,5.0,5.0,53,0.00,,---,0.00,VWS V14.00,2013-05-06 23:33:00,
2013-05-06 19:34:00,67.2,49.5,29.89,South,180,2.0,7.0,53,0.00,,---,0.00,VWS V14.00,2013-05-06 23:34:00,
2013-05-06 19:35:00,67.1,49.9,29.89,SSW,203,1.0,7.0,54,0.00,,---,0.00,VWS V14.00,2013-05-06 23:35:00,
2013-05-06 19:36:00,67.0,49.8,29.89,SSW,194,1.0,7.0,54,0.00,,---,0.00,VWS V14.00,2013-05-06 23:36:00,
2013-05-06 19:37:00,67.0,49.8,29.89,South,191,2.0,7.0,54,0.00,,---,0.00,VWS V14.00,2013-05-06 23:37:00,
2013-05-06 19:38:00,66.9,50.2,29.89,South,182,1.0,7.0,55,0.00,,---,0.00,VWS V14.00,2013-05-06 23:38:00,
2013-05-06 19:39:00,66.7,50.0,29.89,South,190,4.0,7.0,55,0.00,,---,0.00,VWS V14.00,2013-05-06 23:39:00,
2013-05-06 19:40:00,66.6,50.0,29.89,South,178,2.0,7.0,55,0.00,,---,0.00,VWS V14.00,2013-05-06 23:40:00,
2013-05-06 19:41:00,66.5,49.8,29.89,South,171,0.0,7.0,55,0.00,,---,0.00,VWS V14.00,2013-05-06 23:41:00,
2013-05-06 19:42:00,66.4,49.8,29.89,South,175,2.0,7.0,55,0.00,,---,0.00,VWS V14.00,2013-05-06 23:42:00,
2013-05-06 19:43:00,66.3,50.2,29.89,South,187,6.0,7.0,56,0.00,,---,0.00,VWS V14.00,2013-05-06 23:43:00,
2013-05-06 19:44:00,66.3,50.2,29.89,SSW,200,5.0,8.0,56,0.00,,---,0.00,VWS V14.00,2013-05-06 23:44:00,
2013-05-06 19:45:00,66.2,50.1,29.89,South,173,0.0,8.0,56,0.00,,---,0.00,VWS V14.00,2013-05-06 23:45:00,
2013-05-06 19:46:00,66.2,50.1,29.89,SSE,155,2.0,8.0,56,0.00,,---,0.00,VWS V14.00,2013-05-06 23:46:00,
2013-05-06 19:47:00,66.1,50.0,29.90,South,185,0.0,8.0,56,0.00,,---,0.00,VWS V14.00,2013-05-06 23:47:00,
2013-05-06 19:48:00,66.0,49.9,29.90,SSE,161,0.0,8.0,56,0.00,,---,0.00,VWS V14.00,2013-05-06 23:48:00,
2013-05-06 19:49:00,66.0,49.9,29.90,South,175,0.0,8.0,56,0.00,,---,0.00,VWS V14.00,2013-05-06 23:49:00,
2013-05-06 19:50:00,65.9,49.8,29.90,South,170,5.0,8.0,56,0.00,,---,0.00,VWS V14.00,2013-05-06 23:50:00,
2013-05-06 19:51:00,65.9,49.8,29.90,South,180,0.0,8.0,56,0.00,,---,0.00,VWS V14.00,2013-05-06 23:51:00,
2013-05-06 19:52:00,65.8,50.2,29.90,South,178,1.0,8.0,57,0.00,,---,0.00,VWS V14.00,2013-05-06 23:52:00,
2013-05-06 19:53:00,65.7,50.1,29.90,South,178,1.0,8.0,57,0.00,,---,0.00,VWS V14.00,2013-05-06 23:53:00,
2013-05-06 19:54:00,65.7,50.1,29.90,South,184,0.0,8.0,57,0.00,,---,0.00,VWS V14.00,2013-05-06 23:54:00,
2013-05-06 19:55:00,65.6,50.0,29.90,South,184,0.0,8.0,57,0.00,,---,0.00,VWS V14.00,2013-05-06 23:55:00,
2013-05-06 19:57:00,65.4,49.8,29.90,SSE,164,1.0,1.0,57,0.00,,---,0.00,VWS V14.00,2013-05-06 23:57:00,
2013-05-06 19:58:00,65.4,49.8,29.90,SSE,164,0.0,1.0,57,0.00,,---,0.00,VWS V14.00,2013-05-06 23:58:00,
2013-05-06 19:59:00,65.4,49.8,29.90,SSE,166,1.0,1.0,57,0.00,,---,0.00,VWS V14.00,2013-05-06 23:59:00,
2013-05-06 20:00:00,65.3,49.7,29.90,SSE,166,0.0,1.0,57,0.00,,---,0.00,VWS V14.00,2013-05-07 00:00:00,
2013-05-06 20:01:00,65.3,50.2,29.90,SSE,166,0.0,0.0,58,0.00,,---,0.00,VWS V14.00,2013-05-07 00:01:00,
2013-05-06 20:02:00,65.2,50.1,29.90,SSE,166,0.0,0.0,58,0.00,,---,0.00,VWS V14.00,2013-05-07 00:02:00,
2013-05-06 20:03:00,65.2,50.1,29.90,SSE,166,0.0,0.0,58,0.00,,---,0.00,VWS V14.00,2013-05-07 00:03:00,
2013-05-06 20:04:00,65.1,50.0,29.90,SSE,166,0.0,0.0,58,0.00,,---,0.00,VWS V14.00,2013-05-07 00:04:00,
2013-05-06 20:05:00,65.0,49.9,29.90,SSE,166,0.0,0.0,58,0.00,,---,0.00,VWS V14.00,2013-05-07 00:05:00,
2013-05-06 20:06:00,65.0,49.9,29.90,SSE,166,0.0,0.0,58,0.00,,---,0.00,VWS V14.00,2013-05-07 00:06:00,
2013-05-06 20:07:00,65.0,49.9,29.90,SSE,166,0.0,0.0,58,0.00,,---,0.00,VWS V14.00,2013-05-07 00:07:00,
2013-05-06 20:08:00,64.9,49.8,29.90,SSE,166,0.0,0.0,58,0.00,,---,0.00,VWS V14.00,2013-05-07 00:08:00,
2013-05-06 20:09:00,64.8,49.7,29.90,SSE,166,0.0,0.0,58,0.00,,---,0.00,VWS V14.00,2013-05-07 00:09:00,
2013-05-06 20:10:00,64.8,50.2,29.90,SSE,166,0.0,0.0,59,0.00,,---,0.00,VWS V14.00,2013-05-07 00:10:00,
2013-05-06 20:11:00,64.7,50.1,29.90,SSE,166,0.0,0.0,59,0.00,,---,0.00,VWS V14.00,2013-05-07 00:11:00,
2013-05-06 20:12:00,64.6,50.0,29.90,SSE,166,0.0,0.0,59,0.00,,---,0.00,VWS V14.00,2013-05-07 00:12:00,
2013-05-06 20:13:00,64.5,49.9,29.90,SSE,166,0.0,0.0,59,0.00,,---,0.00,VWS V14.00,2013-05-07 00:13:00,
2013-05-06 20:14:00,64.4,50.2,29.90,SSE,166,0.0,0.0,60,0.00,,---,0.00,VWS V14.00,2013-05-07 00:14:00,
2013-05-06 20:15:00,64.3,49.7,29.90,SSE,166,0.0,0.0,59,0.00,,---,0.00,VWS V14.00,2013-05-07 00:15:00,
2013-05-06 20:16:00,64.2,50.0,29.90,SSE,166,0.0,0.0,60,0.00,,---,0.00,VWS V14.00,2013-05-07 00:16:00,
2013-05-06 20:17:00,64.1,50.0,29.90,SSE,166,0.0,0.0,60,0.00,,---,0.00,VWS V14.00,2013-05-07 00:17:00,
2013-05-06 20:18:00,64.0,49.8,29.90,SSE,166,0.0,0.0,60,0.00,,---,0.00,VWS V14.00,2013-05-07 00:18:00,
2013-05-06 20:19:00,63.9,49.8,29.90,SSE,158,1.0,1.0,60,0.00,,---,0.00,VWS V14.00,2013-05-07 00:19:00,
2013-05-06 20:20:00,63.8,49.7,29.90,SSE,158,0.0,1.0,60,0.00,,---,0.00,VWS V14.00,2013-05-07 00:20:00,
2013-05-06 20:21:00,63.8,49.7,29.90,SSE,158,0.0,1.0,60,0.00,,---,0.00,VWS V14.00,2013-05-07 00:21:00,
2013-05-06 20:22:00,63.7,49.6,29.90,SSE,158,1.0,1.0,60,0.00,,---,0.00,VWS V14.00,2013-05-07 00:22:00,
2013-05-06 20:23:00,63.6,49.5,29.90,SSE,158,0.0,1.0,60,0.00,,---,0.00,VWS V14.00,2013-05-07 00:23:00,
2013-05-06 20:24:00,63.6,49.9,29.90,SSE,158,0.0,1.0,61,0.00,,---,0.00,VWS V14.00,2013-05-07 00:24:00,
2013-05-06 20:25:00,63.5,49.8,29.91,SSE,158,0.0,1.0,61,0.00,,---,0.00,VWS V14.00,2013-05-07 00:25:00,
2013-05-06 20:26:00,63.5,49.8,29.91,SSE,158,0.0,1.0,61,0.00,,---,0.00,VWS V14.00,2013-05-07 00:26:00,
2013-05-06 20:27:00,63.5,49.8,29.91,SSE,158,0.0,1.0,61,0.00,,---,0.00,VWS V14.00,2013-05-07 00:27:00,
2013-05-06 20:28:00,63.4,49.7,29.91,SSE,158,0.0,1.0,61,0.00,,---,0.00,VWS V14.00,2013-05-07 00:28:00,
2013-05-06 20:29:00,63.4,49.7,29.91,SSE,158,0.0,1.0,61,0.00,,---,0.00,VWS V14.00,2013-05-07 00:29:00,
2013-05-06 20:30:00,63.4,49.7,29.91,SSE,158,0.0,1.0,61,0.00,,---,0.00,VWS V14.00,2013-05-07 00:30:00,
2013-05-06 20:31:00,63.4,49.7,29.91,SSE,158,0.0,1.0,61,0.00,,---,0.00,VWS V14.00,2013-05-07 00:31:00,
2013-05-06 20:32:00,63.4,49.7,29.91,SSE,158,0.0,1.0,61,0.00,,---,0.00,VWS V14.00,2013-05-07 00:32:00,
2013-05-06 20:33:00,63.3,49.6,29.91,SSE,158,0.0,1.0,61,0.00,,---,0.00,VWS V14.00,2013-05-07 00:33:00,
2013-05-06 20:34:00,63.3,49.6,29.91,SSE,158,0.0,1.0,61,0.00,,---,0.00,VWS V14.00,2013-05-07 00:34:00,
2013-05-06 20:35:00,63.3,49.6,29.91,SSE,158,0.0,1.0,61,0.00,,---,0.00,VWS V14.00,2013-05-07 00:35:00,
2013-05-06 20:36:00,63.3,49.6,29.91,SSE,158,0.0,1.0,61,0.00,,---,0.00,VWS V14.00,2013-05-07 00:36:00,
2013-05-06 20:37:00,63.3,49.6,29.91,SSE,158,0.0,1.0,61,0.00,,---,0.00,VWS V14.00,2013-05-07 00:37:00,
2013-05-06 20:38:00,63.3,49.6,29.91,SSE,158,0.0,1.0,61,0.00,,---,0.00,VWS V14.00,2013-05-07 00:38:00,
2013-05-06 20:39:00,63.2,49.5,29.91,SSE,158,1.0,1.0,61,0.00,,---,0.00,VWS V14.00,2013-05-07 00:39:00,
2013-05-06 20:40:00,63.2,49.5,29.91,SSE,158,0.0,2.0,61,0.00,,---,0.00,VWS V14.00,2013-05-07 00:40:00,
2013-05-06 20:41:00,63.2,49.5,29.91,SSE,158,0.0,2.0,61,0.00,,---,0.00,VWS V14.00,2013-05-07 00:41:00,
2013-05-06 21:05:00,63.2,49.5,29.91,SSE,158,0.0,2.0,61,0.00,,---,0.00,VWS V14.00,2013-05-07 01:05:00,
2013-05-06 21:06:00,61.9,49.6,29.92,SSE,154,1.0,2.0,64,0.00,,---,0.00,VWS V14.00,2013-05-07 01:06:00,
2013-05-06 21:07:00,61.9,49.6,29.92,SE,143,0.0,4.0,64,0.00,,---,0.00,VWS V14.00,2013-05-07 01:07:00,
2013-05-06 21:08:00,62.0,49.7,29.92,SE,141,0.0,4.0,64,0.00,,---,0.00,VWS V14.00,2013-05-07 01:08:00,
2013-05-06 21:09:00,62.0,49.7,29.93,SE,140,1.0,4.0,64,0.00,,---,0.00,VWS V14.00,2013-05-07 01:09:00,
2013-05-06 21:10:00,62.0,49.7,29.93,SSE,163,0.0,4.0,64,0.00,,---,0.00,VWS V14.00,2013-05-07 01:10:00,
2013-05-06 21:11:00,62.0,49.7,29.93,SE,138,0.0,4.0,64,0.00,,---,0.00,VWS V14.00,2013-05-07 01:11:00,
2013-05-06 21:12:00,62.0,49.7,29.93,SE,136,4.0,7.0,64,0.00,,---,0.00,VWS V14.00,2013-05-07 01:12:00,
2013-05-06 21:13:00,62.1,49.8,29.93,SSE,150,4.0,7.0,64,0.00,,---,0.00,VWS V14.00,2013-05-07 01:13:00,
2013-05-06 21:14:00,62.1,49.8,29.93,SE,144,0.0,7.0,64,0.00,,---,0.00,VWS V14.00,2013-05-07 01:14:00,
2013-05-06 21:15:00,62.1,49.8,29.93,SSW,192,0.0,7.0,64,0.00,,---,0.00,VWS V14.00,2013-05-07 01:15:00,
2013-05-06 21:16:00,62.2,49.9,29.93,SE,146,1.0,4.0,64,0.00,,---,0.00,VWS V14.00,2013-05-07 01:16:00,
2013-05-06 21:17:00,62.2,50.3,29.93,SE,143,1.0,8.0,65,0.00,,---,0.00,VWS V14.00,2013-05-07 01:17:00,
2013-05-06 21:18:00,62.2,50.3,29.93,SSE,158,0.0,8.0,65,0.00,,---,0.00,VWS V14.00,2013-05-07 01:18:00,
2013-05-06 21:19:00,62.2,50.3,29.93,South,185,1.0,8.0,65,0.00,,---,0.00,VWS V14.00,2013-05-07 01:19:00,
2013-05-06 21:20:00,62.2,50.3,29.93,South,186,1.0,8.0,65,0.00,,---,0.00,VWS V14.00,2013-05-07 01:20:00,
2013-05-06 21:21:00,62.2,50.3,29.93,ENE,76,1.0,8.0,65,0.00,,---,0.00,VWS V14.00,2013-05-07 01:21:00,
2013-05-06 21:22:00,62.2,50.3,29.93,SW,229,2.0,8.0,65,0.00,,---,0.00,VWS V14.00,2013-05-07 01:22:00,
2013-05-06 21:23:00,62.1,50.2,29.93,South,177,2.0,8.0,65,0.00,,---,0.00,VWS V14.00,2013-05-07 01:23:00,
2013-05-06 21:24:00,62.1,50.2,29.93,South,178,4.0,8.0,65,0.00,,---,0.00,VWS V14.00,2013-05-07 01:24:00,
2013-05-06 21:25:00,62.1,50.2,29.93,South,188,0.0,8.0,65,0.00,,---,0.00,VWS V14.00,2013-05-07 01:25:00,
2013-05-06 21:26:00,62.1,50.2,29.93,South,183,2.0,8.0,65,0.00,,---,0.00,VWS V14.00,2013-05-07 01:26:00,
2013-05-06 21:27:00,62.1,50.2,29.93,SSW,193,2.0,8.0,65,0.00,,---,0.00,VWS V14.00,2013-05-07 01:27:00,
2013-05-06 21:28:00,62.1,50.2,29.93,South,179,0.0,8.0,65,0.00,,---,0.00,VWS V14.00,2013-05-07 01:28:00,
2013-05-06 21:29:00,62.1,50.6,29.93,South,179,0.0,8.0,66,0.00,,---,0.00,VWS V14.00,2013-05-07 01:29:00,
2013-05-06 21:30:00,62.1,50.6,29.93,SSW,201,1.0,8.0,66,0.00,,---,0.00,VWS V14.00,2013-05-07 01:30:00,
2013-05-06 21:31:00,62.1,50.6,29.93,SE,145,0.0,7.0,66,0.00,,---,0.00,VWS V14.00,2013-05-07 01:31:00,
2013-05-06 21:32:00,62.1,50.6,29.93,SSE,161,0.0,7.0,66,0.00,,---,0.00,VWS V14.00,2013-05-07 01:32:00,
2013-05-06 21:33:00,62.1,50.6,29.93,SE,145,1.0,7.0,66,0.00,,---,0.00,VWS V14.00,2013-05-07 01:33:00,
2013-05-06 21:34:00,62.0,50.5,29.93,South,181,2.0,7.0,66,0.00,,---,0.00,VWS V14.00,2013-05-07 01:34:00,
2013-05-06 21:35:00,62.0,50.5,29.93,SSE,167,2.0,7.0,66,0.00,,---,0.00,VWS V14.00,2013-05-07 01:35:00,
2013-05-06 21:36:00,62.0,50.5,29.94,South,185,1.0,7.0,66,0.00,,---,0.00,VWS V14.00,2013-05-07 01:36:00,
2013-05-06 21:37:00,62.0,50.5,29.93,ESE,115,0.0,7.0,66,0.00,,---,0.00,VWS V14.00,2013-05-07 01:37:00,
2013-05-06 21:38:00,61.9,50.4,29.94,SE,136,1.0,7.0,66,0.00,,---,0.00,VWS V14.00,2013-05-07 01:38:00,
2013-05-06 21:39:00,61.9,50.4,29.94,SSE,165,0.0,7.0,66,0.00,,---,0.00,VWS V14.00,2013-05-07 01:39:00,
2013-05-06 21:40:00,61.8,50.7,29.94,South,175,0.0,7.0,67,0.00,,---,0.00,VWS V14.00,2013-05-07 01:40:00,
2013-05-06 21:41:00,61.8,50.7,29.94,SSE,161,0.0,7.0,67,0.00,,---,0.00,VWS V14.00,2013-05-07 01:41:00,
2013-05-06 21:42:00,61.8,50.7,29.94,South,175,0.0,7.0,67,0.00,,---,0.00,VWS V14.00,2013-05-07 01:42:00,
2013-05-06 21:43:00,61.7,50.6,29.94,SE,140,1.0,7.0,67,0.00,,---,0.00,VWS V14.00,2013-05-07 01:43:00,
2013-05-06 21:44:00,61.7,50.6,29.94,SSE,165,0.0,7.0,67,0.00,,---,0.00,VWS V14.00,2013-05-07 01:44:00,
2013-05-06 21:45:00,61.6,50.5,29.94,South,179,0.0,7.0,67,0.00,,---,0.00,VWS V14.00,2013-05-07 01:45:00,
2013-05-06 21:46:00,61.6,50.5,29.94,South,186,1.0,2.0,67,0.00,,---,0.00,VWS V14.00,2013-05-07 01:46:00,
2013-05-06 21:47:00,61.6,50.5,29.94,South,186,2.0,3.0,67,0.00,,---,0.00,VWS V14.00,2013-05-07 01:47:00,
2013-05-06 21:48:00,61.6,50.5,29.94,SSE,161,0.0,4.0,67,0.00,,---,0.00,VWS V14.00,2013-05-07 01:48:00,
2013-05-06 21:49:00,61.6,50.5,29.94,SSE,163,1.0,4.0,67,0.00,,---,0.00,VWS V14.00,2013-05-07 01:49:00,
2013-05-06 21:50:00,61.5,50.5,29.94,SSE,151,0.0,4.0,67,0.00,,---,0.00,VWS V14.00,2013-05-07 01:50:00,
2013-05-06 21:51:00,61.5,50.5,29.93,South,171,0.0,4.0,67,0.00,,---,0.00,VWS V14.00,2013-05-07 01:51:00,
2013-05-06 21:52:00,61.5,50.5,29.93,South,182,0.0,4.0,67,0.00,,---,0.00,VWS V14.00,2013-05-07 01:52:00,
2013-05-06 21:53:00,61.5,50.5,29.93,SSE,155,0.0,4.0,67,0.00,,---,0.00,VWS V14.00,2013-05-07 01:53:00,
2013-05-06 21:54:00,61.4,50.8,29.93,SSE,159,0.0,4.0,68,0.00,,---,0.00,VWS V14.00,2013-05-07 01:54:00,
2013-05-06 21:55:00,61.4,50.8,29.93,SSE,159,0.0,4.0,68,0.00,,---,0.00,VWS V14.00,2013-05-07 01:55:00,
2013-05-06 21:56:00,61.3,50.7,29.93,South,171,4.0,4.0,68,0.00,,---,0.00,VWS V14.00,2013-05-07 01:56:00,
2013-05-06 21:57:00,61.3,50.7,29.93,SSE,163,0.0,4.0,68,0.00,,---,0.00,VWS V14.00,2013-05-07 01:57:00,
2013-05-06 21:58:00,61.2,50.6,29.93,South,175,1.0,7.0,68,0.00,,---,0.00,VWS V14.00,2013-05-07 01:58:00,
2013-05-06 21:59:00,61.2,50.6,29.93,South,177,6.0,7.0,68,0.00,,---,0.00,VWS V14.00,2013-05-07 01:59:00,
2013-05-06 22:00:00,61.2,50.6,29.93,South,178,0.0,7.0,68,0.00,,---,0.00,VWS V14.00,2013-05-07 02:00:00,
2013-05-06 22:01:00,61.2,50.6,29.93,South,180,3.0,3.0,68,0.00,,---,0.00,VWS V14.00,2013-05-07 02:01:00,
2013-05-06 22:02:00,61.2,50.6,29.93,South,175,0.0,4.0,68,0.00,,---,0.00,VWS V14.00,2013-05-07 02:02:00,
2013-05-06 22:03:00,61.2,50.6,29.94,South,178,0.0,4.0,68,0.00,,---,0.00,VWS V14.00,2013-05-07 02:03:00,
2013-05-06 22:04:00,61.2,50.6,29.94,SSE,160,0.0,4.0,68,0.00,,---,0.00,VWS V14.00,2013-05-07 02:04:00,
2013-05-06 22:05:00,61.1,50.5,29.94,SSE,160,0.0,4.0,68,0.00,,---,0.00,VWS V14.00,2013-05-07 02:05:00,
2013-05-06 22:06:00,61.1,50.5,29.94,South,180,0.0,4.0,68,0.00,,---,0.00,VWS V14.00,2013-05-07 02:06:00,
2013-05-06 22:07:00,61.1,50.5,29.94,South,180,0.0,4.0,68,0.00,,---,0.00,VWS V14.00,2013-05-07 02:07:00,
2013-05-06 22:08:00,61.0,50.4,29.94,South,180,0.0,4.0,68,0.00,,---,0.00,VWS V14.00,2013-05-07 02:08:00,
2013-05-06 22:09:00,61.0,50.4,29.94,SE,146,0.0,4.0,68,0.00,,---,0.00,VWS V14.00,2013-05-07 02:09:00,
2013-05-06 22:10:00,60.9,50.7,29.94,SE,146,0.0,4.0,69,0.00,,---,0.00,VWS V14.00,2013-05-07 02:10:00,
2013-05-06 22:11:00,60.9,50.7,29.94,SE,144,0.0,5.0,69,0.00,,---,0.00,VWS V14.00,2013-05-07 02:11:00,
2013-05-06 22:12:00,60.9,50.7,29.94,SE,143,0.0,5.0,69,0.00,,---,0.00,VWS V14.00,2013-05-07 02:12:00,
2013-05-06 22:13:00,60.8,50.6,29.94,SE,144,0.0,5.0,69,0.00,,---,0.00,VWS V14.00,2013-05-07 02:13:00,
2013-05-06 22:14:00,60.8,50.6,29.94,SE,144,0.0,5.0,69,0.00,,---,0.00,VWS V14.00,2013-05-07 02:14:00,
2013-05-06 22:15:00,60.8,50.6,29.94,SE,144,0.0,5.0,69,0.00,,---,0.00,VWS V14.00,2013-05-07 02:15:00,
2013-05-06 22:16:00,60.7,50.5,29.94,SE,144,0.0,0.0,69,0.00,,---,0.00,VWS V14.00,2013-05-07 02:16:00,
2013-05-06 22:17:00,60.6,50.4,29.93,SE,144,0.0,1.0,69,0.00,,---,0.00,VWS V14.00,2013-05-07 02:17:00,
2013-05-06 22:18:00,60.6,50.8,29.93,SE,144,0.0,1.0,70,0.00,,---,0.00,VWS V14.00,2013-05-07 02:18:00,
2013-05-06 22:19:00,60.5,50.7,29.94,SE,144,0.0,1.0,70,0.00,,---,0.00,VWS V14.00,2013-05-07 02:19:00,
2013-05-06 22:20:00,60.5,50.7,29.93,SE,143,0.0,1.0,70,0.00,,---,0.00,VWS V14.00,2013-05-07 02:20:00,
2013-05-06 22:21:00,60.4,50.6,29.93,SE,144,0.0,1.0,70,0.00,,---,0.00,VWS V14.00,2013-05-07 02:21:00,
2013-05-06 22:22:00,60.3,50.5,29.93,SE,144,0.0,1.0,70,0.00,,---,0.00,VWS V14.00,2013-05-07 02:22:00,
2013-05-06 22:23:00,60.3,50.5,29.93,SE,143,0.0,1.0,70,0.00,,---,0.00,VWS V14.00,2013-05-07 02:23:00,
2013-05-06 22:24:00,60.2,50.4,29.94,SE,143,0.0,1.0,70,0.00,,---,0.00,VWS V14.00,2013-05-07 02:24:00,
2013-05-06 22:25:00,60.1,50.3,29.94,SE,144,0.0,1.0,70,0.00,,---,0.00,VWS V14.00,2013-05-07 02:25:00,
2013-05-06 22:26:00,60.0,50.2,29.93,SE,144,0.0,1.0,70,0.00,,---,0.00,VWS V14.00,2013-05-07 02:26:00,
2013-05-06 22:27:00,60.0,50.6,29.93,SSE,161,0.0,1.0,71,0.00,,---,0.00,VWS V14.00,2013-05-07 02:27:00,
2013-05-06 22:28:00,59.9,50.5,29.93,SSE,161,0.0,1.0,71,0.00,,---,0.00,VWS V14.00,2013-05-07 02:28:00,
2013-05-06 22:29:00,59.9,50.5,29.93,SSE,161,1.0,1.0,71,0.00,,---,0.00,VWS V14.00,2013-05-07 02:29:00,
2013-05-06 22:30:00,59.8,50.4,29.93,SSE,161,0.0,1.0,71,0.00,,---,0.00,VWS V14.00,2013-05-07 02:30:00,
2013-05-06 22:31:00,59.8,50.4,29.93,SSE,161,0.0,0.0,71,0.00,,---,0.00,VWS V14.00,2013-05-07 02:31:00,
2013-05-06 22:32:00,59.8,50.4,29.93,SSE,161,0.0,4.0,71,0.00,,---,0.00,VWS V14.00,2013-05-07 02:32:00,
2013-05-06 22:33:00,59.7,50.3,29.93,SSE,161,0.0,4.0,71,0.00,,---,0.00,VWS V14.00,2013-05-07 02:33:00,
2013-05-06 22:34:00,59.7,50.7,29.93,SE,145,1.0,5.0,72,0.00,,---,0.00,VWS V14.00,2013-05-07 02:34:00,
2013-05-06 22:35:00,59.7,50.7,29.93,SE,145,0.0,5.0,72,0.00,,---,0.00,VWS V14.00,2013-05-07 02:35:00,
2013-05-06 22:36:00,59.7,50.7,29.93,SE,145,1.0,5.0,72,0.00,,---,0.00,VWS V14.00,2013-05-07 02:36:00,
2013-05-06 22:37:00,59.6,50.6,29.93,SE,145,0.0,5.0,72,0.00,,---,0.00,VWS V14.00,2013-05-07 02:37:00,
2013-05-06 22:38:00,59.6,50.6,29.93,SE,145,0.0,5.0,72,0.00,,---,0.00,VWS V14.00,2013-05-07 02:38:00,
2013-05-06 22:39:00,59.6,50.6,29.93,SE,145,0.0,5.0,72,0.00,,---,0.00,VWS V14.00,2013-05-07 02:39:00,
2013-05-06 22:40:00,59.6,50.6,29.93,SE,145,0.0,5.0,72,0.00,,---,0.00,VWS V14.00,2013-05-07 02:40:00,
2013-05-06 22:41:00,59.5,50.5,29.93,SE,145,0.0,5.0,72,0.00,,---,0.00,VWS V14.00,2013-05-07 02:41:00,
2013-05-06 22:42:00,59.5,50.5,29.93,ESE,123,0.0,5.0,72,0.00,,---,0.00,VWS V14.00,2013-05-07 02:42:00,
2013-05-06 22:43:00,59.4,50.4,29.93,ESE,123,0.0,5.0,72,0.00,,---,0.00,VWS V14.00,2013-05-07 02:43:00,
2013-05-06 22:44:00,59.4,50.4,29.93,ESE,123,0.0,5.0,72,0.00,,---,0.00,VWS V14.00,2013-05-07 02:44:00,
2013-05-06 22:45:00,59.3,50.7,29.93,SE,129,0.0,5.0,73,0.00,,---,0.00,VWS V14.00,2013-05-07 02:45:00,
2013-05-06 22:46:00,59.3,50.7,29.93,SE,129,0.0,0.0,73,0.00,,---,0.00,VWS V14.00,2013-05-07 02:46:00,
2013-05-06 22:47:00,59.3,50.7,29.93,SE,129,0.0,0.0,73,0.00,,---,0.00,VWS V14.00,2013-05-07 02:47:00,
2013-05-06 22:48:00,59.2,50.6,29.93,SE,129,0.0,0.0,73,0.00,,---,0.00,VWS V14.00,2013-05-07 02:48:00,
2013-05-06 22:49:00,59.1,50.5,29.93,SE,129,0.0,1.0,73,0.00,,---,0.00,VWS V14.00,2013-05-07 02:49:00,
2013-05-06 22:50:00,59.1,50.5,29.93,SE,129,0.0,1.0,73,0.00,,---,0.00,VWS V14.00,2013-05-07 02:50:00,
2013-05-06 22:51:00,59.0,50.4,29.93,SE,129,0.0,1.0,73,0.00,,---,0.00,VWS V14.00,2013-05-07 02:51:00,
2013-05-06 22:52:00,59.0,50.4,29.93,SE,129,0.0,1.0,73,0.00,,---,0.00,VWS V14.00,2013-05-07 02:52:00,
2013-05-06 22:53:00,58.9,50.6,29.93,SE,129,0.0,1.0,74,0.00,,---,0.00,VWS V14.00,2013-05-07 02:53:00,
2013-05-06 22:54:00,58.9,50.6,29.93,SE,129,0.0,1.0,74,0.00,,---,0.00,VWS V14.00,2013-05-07 02:54:00,
2013-05-06 22:55:00,58.8,50.5,29.93,SE,129,0.0,1.0,74,0.00,,---,0.00,VWS V14.00,2013-05-07 02:55:00,
2013-05-06 22:56:00,58.7,50.5,29.93,SE,129,0.0,1.0,74,0.00,,---,0.00,VWS V14.00,2013-05-07 02:56:00,
2013-05-06 22:57:00,58.7,50.5,29.93,SE,129,0.0,1.0,74,0.00,,---,0.00,VWS V14.00,2013-05-07 02:57:00,
2013-05-06 22:58:00,58.6,50.3,29.93,ESE,103,2.0,4.0,74,0.00,,---,0.00,VWS V14.00,2013-05-07 02:58:00,
2013-05-06 22:59:00,58.6,50.3,29.93,ESE,103,0.0,4.0,74,0.00,,---,0.00,VWS V14.00,2013-05-07 02:59:00,
2013-05-06 23:00:00,58.5,50.2,29.93,ESE,103,2.0,4.0,74,0.00,,---,0.00,VWS V14.00,2013-05-07 03:00:00,
2013-05-06 23:01:00,58.5,50.2,29.93,ESE,103,1.0,5.0,74,0.00,,---,0.00,VWS V14.00,2013-05-07 03:01:00,
2013-05-06 23:02:00,58.5,50.6,29.93,East,90,2.0,5.0,75,0.00,,---,0.00,VWS V14.00,2013-05-07 03:02:00,
2013-05-06 23:03:00,58.5,50.6,29.93,East,90,0.0,5.0,75,0.00,,---,0.00,VWS V14.00,2013-05-07 03:03:00,
2013-05-06 23:04:00,58.5,50.6,29.93,East,90,0.0,5.0,75,0.00,,---,0.00,VWS V14.00,2013-05-07 03:04:00,
2013-05-06 23:05:00,58.5,50.6,29.93,East,90,0.0,5.0,75,0.00,,---,0.00,VWS V14.00,2013-05-07 03:05:00,
2013-05-06 23:06:00,58.5,50.6,29.93,East,90,0.0,5.0,75,0.00,,---,0.00,VWS V14.00,2013-05-07 03:06:00,
2013-05-06 23:07:00,58.5,50.6,29.93,East,90,0.0,5.0,75,0.00,,---,0.00,VWS V14.00,2013-05-07 03:07:00,
2013-05-06 23:08:00,58.5,50.6,29.93,East,90,0.0,5.0,75,0.00,,---,0.00,VWS V14.00,2013-05-07 03:08:00,
2013-05-06 23:09:00,58.5,50.6,29.93,East,90,0.0,5.0,75,0.00,,---,0.00,VWS V14.00,2013-05-07 03:09:00,
2013-05-06 23:10:00,58.5,50.6,29.93,East,90,0.0,5.0,75,0.00,,---,0.00,VWS V14.00,2013-05-07 03:10:00,
2013-05-06 23:11:00,58.5,50.6,29.93,East,90,0.0,5.0,75,0.00,,---,0.00,VWS V14.00,2013-05-07 03:11:00,
2013-05-06 23:12:00,58.4,50.5,29.93,East,90,0.0,5.0,75,0.00,,---,0.00,VWS V14.00,2013-05-07 03:12:00,
2013-05-06 23:13:00,58.4,50.5,29.93,East,90,0.0,5.0,75,0.00,,---,0.00,VWS V14.00,2013-05-07 03:13:00,
2013-05-06 23:14:00,58.4,50.5,29.93,East,90,0.0,5.0,75,0.00,,---,0.00,VWS V14.00,2013-05-07 03:14:00,
2013-05-06 23:15:00,58.4,50.5,29.93,East,90,0.0,5.0,75,0.00,,---,0.00,VWS V14.00,2013-05-07 03:15:00,
2013-05-06 23:16:00,58.4,50.5,29.93,East,90,0.0,0.0,75,0.00,,---,0.00,VWS V14.00,2013-05-07 03:16:00,
2013-05-06 23:17:00,58.3,50.4,29.93,East,90,0.0,1.0,75,0.00,,---,0.00,VWS V14.00,2013-05-07 03:17:00,
2013-05-06 23:18:00,58.2,50.3,29.93,East,90,0.0,1.0,75,0.00,,---,0.00,VWS V14.00,2013-05-07 03:18:00,
2013-05-06 23:19:00,58.1,50.2,29.93,East,90,0.0,1.0,75,0.00,,---,0.00,VWS V14.00,2013-05-07 03:19:00,
2013-05-06 23:20:00,58.1,50.2,29.93,East,90,0.0,1.0,75,0.00,,---,0.00,VWS V14.00,2013-05-07 03:20:00,
2013-05-06 23:21:00,58.0,50.5,29.93,East,90,0.0,1.0,76,0.00,,---,0.00,VWS V14.00,2013-05-07 03:21:00,
2013-05-06 23:22:00,57.8,50.3,29.93,East,90,0.0,1.0,76,0.00,,---,0.00,VWS V14.00,2013-05-07 03:22:00,
2013-05-06 23:23:00,57.8,50.3,29.93,East,90,0.0,1.0,76,0.00,,---,0.00,VWS V14.00,2013-05-07 03:23:00,
2013-05-06 23:24:00,57.7,50.2,29.93,East,90,0.0,1.0,76,0.00,,---,0.00,VWS V14.00,2013-05-07 03:24:00,
2013-05-06 23:25:00,57.6,50.1,29.93,East,91,0.0,1.0,76,0.00,,---,0.00,VWS V14.00,2013-05-07 03:25:00,
2013-05-06 23:26:00,57.6,50.5,29.93,East,91,1.0,2.0,77,0.00,,---,0.00,VWS V14.00,2013-05-07 03:26:00,
2013-05-06 23:27:00,57.6,50.5,29.93,East,91,0.0,2.0,77,0.00,,---,0.00,VWS V14.00,2013-05-07 03:27:00,
2013-05-06 23:28:00,57.6,50.5,29.93,East,91,0.0,2.0,77,0.00,,---,0.00,VWS V14.00,2013-05-07 03:28:00,
2013-05-06 23:29:00,57.6,50.5,29.93,East,91,0.0,2.0,77,0.00,,---,0.00,VWS V14.00,2013-05-07 03:29:00,
2013-05-06 23:30:00,57.6,50.5,29.93,East,91,0.0,2.0,77,0.00,,---,0.00,VWS V14.00,2013-05-07 03:30:00,
2013-05-06 23:31:00,57.5,50.4,29.93,East,91,0.0,0.0,77,0.00,,---,0.00,VWS V14.00,2013-05-07 03:31:00,
2013-05-06 23:32:00,57.5,50.4,29.93,East,91,0.0,1.0,77,0.00,,---,0.00,VWS V14.00,2013-05-07 03:32:00,
2013-05-06 23:33:00,57.5,50.4,29.93,East,91,0.0,1.0,77,0.00,,---,0.00,VWS V14.00,2013-05-07 03:33:00,
2013-05-06 23:34:00,57.4,50.3,29.93,East,91,0.0,1.0,77,0.00,,---,0.00,VWS V14.00,2013-05-07 03:34:00,
2013-05-06 23:35:00,57.4,50.3,29.93,East,91,0.0,1.0,77,0.00,,---,0.00,VWS V14.00,2013-05-07 03:35:00,
2013-05-06 23:36:00,57.4,50.3,29.93,ESE,121,0.0,4.0,77,0.00,,---,0.00,VWS V14.00,2013-05-07 03:36:00,
2013-05-06 23:37:00,57.4,50.3,29.93,ESE,121,0.0,4.0,77,0.00,,---,0.00,VWS V14.00,2013-05-07 03:37:00,
2013-05-06 23:38:00,57.3,50.2,29.93,ESE,120,0.0,4.0,77,0.00,,---,0.00,VWS V14.00,2013-05-07 03:38:00,
2013-05-06 23:39:00,57.3,50.2,29.93,ESE,120,0.0,4.0,77,0.00,,---,0.00,VWS V14.00,2013-05-07 03:39:00,
2013-05-06 23:40:00,57.3,50.2,29.93,ESE,120,1.0,4.0,77,0.00,,---,0.00,VWS V14.00,2013-05-07 03:40:00,
2013-05-06 23:41:00,57.2,50.1,29.93,ESE,120,0.0,4.0,77,0.00,,---,0.00,VWS V14.00,2013-05-07 03:41:00,
2013-05-06 23:42:00,57.2,50.4,29.93,ESE,120,0.0,4.0,78,0.00,,---,0.00,VWS V14.00,2013-05-07 03:42:00,
2013-05-06 23:43:00,57.2,50.4,29.93,ESE,120,0.0,4.0,78,0.00,,---,0.00,VWS V14.00,2013-05-07 03:43:00,
2013-05-06 23:44:00,57.1,50.3,29.93,ESE,120,0.0,4.0,78,0.00,,---,0.00,VWS V14.00,2013-05-07 03:44:00,
2013-05-06 23:45:00,57.1,50.3,29.93,ESE,120,0.0,4.0,78,0.00,,---,0.00,VWS V14.00,2013-05-07 03:45:00,
2013-05-06 23:46:00,57.1,50.3,29.93,ESE,120,0.0,1.0,78,0.00,,---,0.00,VWS V14.00,2013-05-07 03:46:00,
2013-05-06 23:47:00,57.1,50.3,29.93,ESE,120,0.0,1.0,78,0.00,,---,0.00,VWS V14.00,2013-05-07 03:47:00,
2013-05-06 23:48:00,57.0,50.2,29.93,ESE,120,0.0,1.0,78,0.00,,---,0.00,VWS V14.00,2013-05-07 03:48:00,
2013-05-06 23:49:00,57.0,50.2,29.93,ESE,107,0.0,1.0,78,0.00,,---,0.00,VWS V14.00,2013-05-07 03:49:00,
2013-05-06 23:50:00,57.0,50.2,29.93,ESE,107,0.0,1.0,78,0.00,,---,0.00,VWS V14.00,2013-05-07 03:50:00,
2013-05-06 23:51:00,57.0,50.2,29.93,ESE,107,1.0,1.0,78,0.00,,---,0.00,VWS V14.00,2013-05-07 03:51:00,
2013-05-06 23:52:00,57.0,50.2,29.93,ESE,107,0.0,1.0,78,0.00,,---,0.00,VWS V14.00,2013-05-07 03:52:00,
2013-05-06 23:53:00,57.0,50.2,29.93,ESE,107,0.0,1.0,78,0.00,,---,0.00,VWS V14.00,2013-05-07 03:53:00,
2013-05-06 23:54:00,56.9,50.1,29.93,ESE,107,0.0,1.0,78,0.00,,---,0.00,VWS V14.00,2013-05-07 03:54:00,
2013-05-06 23:55:00,56.9,50.5,29.93,SE,125,1.0,4.0,79,0.00,,---,0.00,VWS V14.00,2013-05-07 03:55:00,
2013-05-06 23:56:00,56.9,50.5,29.93,SE,125,0.0,4.0,79,0.00,,---,0.00,VWS V14.00,2013-05-07 03:56:00,
2013-05-06 23:57:00,56.9,50.5,29.93,SE,125,0.0,4.0,79,0.00,,---,0.00,VWS V14.00,2013-05-07 03:57:00,
2013-05-06 23:58:00,56.9,50.5,29.93,SE,125,0.0,4.0,79,0.00,,---,0.00,VWS V14.00,2013-05-07 03:58:00,
2013-05-06 23:59:00,56.8,50.4,29.93,SE,125,0.0,4.0,79,0.00,,---,0.00,VWS V14.00,2013-05-07 03:59:00,